GFSSGP_sfc_thetae_000.txt.gz
Theta_e
331 321 309 309 301 300 296 301 304 307 305 304 305 304 303 303 303 296 319 328 335 336 341 346 352 349 347 344 341 340 338 337 335 337 336 339 338 335 334 334 333 333 333 330 331 332 333 335 337
327 318 307 304 296 293 295 302 305 308 309 305 304 304 302 302 314 319 320 333 337 339 342 343 352 348 345 344 341 339 337 337 336 336 339 339 338 337 335 333 331 331 330 330 330 329 329 329 330
318 312 301 298 295 293 296 304 307 310 306 304 302 305 303 303 314 320 323 334 337 339 343 345 352 349 345 342 342 339 338 336 336 338 340 341 338 337 335 332 330 329 329 328 330 328 329 328 328
310 303 299 295 293 298 300 303 307 309 306 305 303 302 306 314 316 322 325 332 335 335 340 348 352 350 347 343 341 339 337 337 336 340 342 340 339 338 333 331 330 330 329 328 327 329 328 329 328
305 298 292 290 292 297 299 305 311 308 306 304 303 303 305 317 322 324 325 332 330 332 339 347 352 350 348 344 342 340 337 337 336 336 340 339 340 336 334 331 330 330 330 329 327 328 329 329 329
301 297 288 287 291 296 298 302 306 308 307 303 303 306 306 316 321 323 325 324 332 334 340 345 349 350 348 345 343 341 338 338 337 339 337 337 336 334 335 333 331 332 333 332 329 328 328 330 330
300 295 290 289 292 294 299 304 305 308 304 303 305 305 309 314 321 323 322 323 333 337 341 342 344 345 346 345 344 342 340 341 340 336 337 337 337 335 336 333 334 334 334 332 330 328 328 329 330
303 298 291 290 291 294 301 306 308 306 306 306 307 305 306 313 320 323 321 321 328 334 338 338 336 337 337 337 343 342 341 340 339 339 338 336 335 336 336 336 335 334 334 332 330 328 326 327 329
306 295 290 292 294 297 303 302 308 309 305 305 310 308 313 317 322 320 318 320 322 332 333 334 333 332 332 333 336 340 340 338 337 337 335 332 327 328 330 333 334 336 334 332 330 328 326 327 329
301 295 296 299 298 300 302 303 305 306 305 303 310 318 319 320 319 317 317 318 319 323 328 332 332 331 329 331 329 331 331 329 329 330 328 326 324 323 328 330 333 333 334 333 331 330 327 328 317
302 297 302 304 305 305 303 303 305 303 303 305 305 313 317 316 317 317 317 319 320 320 321 330 330 331 328 327 325 326 326 325 325 326 325 324 324 321 322 323 325 327 329 324 326 322 318 314 313
300 304 304 306 308 304 302 305 303 303 305 308 309 311 318 317 317 318 318 319 318 320 321 322 327 328 326 325 325 324 324 324 323 324 324 322 321 319 319 321 323 322 322 320 318 317 315 313 312
302 305 307 308 306 303 304 302 303 303 307 306 309 315 318 317 317 318 320 320 319 320 322 323 322 326 325 320 324 322 323 324 323 323 324 323 322 319 317 319 321 321 319 318 317 316 316 313 312
305 304 303 303 304 303 302 302 301 304 306 305 307 310 315 317 318 317 318 320 319 318 322 324 324 324 324 322 321 323 322 322 322 323 323 322 323 322 318 318 319 319 318 318 318 317 316 315 313
304 299 301 302 302 302 301 298 299 304 302 303 304 305 308 312 314 317 317 318 319 319 318 322 325 325 324 324 320 320 321 322 321 322 321 321 321 321 321 318 317 317 314 315 315 314 312 311 310
296 296 292 298 301 302 301 293 301 304 299 301 303 300 301 303 304 304 306 310 316 317 315 319 326 326 326 326 325 320 319 318 319 320 320 320 320 319 318 318 317 315 314 313 312 313 312 311 310
293 289 290 294 300 300 298 295 301 301 301 301 298 297 300 302 304 305 308 307 307 308 314 315 320 324 326 327 327 325 321 319 319 317 317 318 319 320 318 318 318 316 314 314 315 315 313 314 313
289 289 290 290 295 297 295 296 299 299 297 296 296 297 300 302 303 306 309 308 309 308 309 311 315 319 323 324 324 324 324 324 321 320 319 318 318 318 319 320 319 318 316 316 314 315 314 315 316
294 290 289 293 298 297 295 295 298 298 296 295 296 298 300 302 302 306 307 307 309 309 309 309 311 312 319 321 321 320 324 323 322 322 322 321 320 319 318 320 320 318 318 319 318 316 315 315 312
294 291 289 294 298 295 293 294 297 294 296 297 299 299 301 302 303 305 306 305 306 306 308 308 309 310 314 319 321 323 322 323 324 325 325 324 324 323 321 320 321 320 319 319 319 316 316 316 314
292 290 290 293 296 296 293 292 291 295 297 299 299 300 301 302 303 304 304 304 304 304 304 306 308 311 312 318 321 321 322 321 321 322 323 325 326 326 325 325 323 322 320 320 320 319 316 317 320
290 296 296 295 291 287 292 285 287 292 295 296 296 298 299 301 302 303 304 304 304 304 304 306 307 307 309 311 312 312 313 313 316 317 319 319 321 323 325 326 325 325 324 321 322 323 321 321 317
294 298 295 293 289 287 288 286 288 293 293 296 296 297 298 300 302 303 303 305 304 304 304 305 306 307 306 306 306 306 306 309 311 311 310 311 314 317 318 321 323 324 325 325 325 324 324 324 322
299 294 292 290 288 283 287 288 287 290 294 295 295 297 299 300 301 302 303 305 304 304 304 305 305 305 306 305 304 304 303 303 305 304 306 307 309 312 311 311 314 321 323 324 326 327 326 326 325
293 289 284 282 282 283 287 286 290 294 295 299 297 297 298 300 301 302 301 303 303 303 303 305 305 304 304 304 304 304 303 303 303 303 303 304 305 306 307 306 307 307 309 312 319 323 324 325 324
290 290 285 281 281 284 287 284 290 293 296 299 300 299 298 300 301 301 301 302 302 303 303 303 303 303 304 304 304 304 304 304 304 304 303 304 304 305 305 306 306 307 307 307 308 309 313 317 320
290 288 292 288 285 284 287 290 291 295 296 297 297 298 297 299 300 301 301 302 302 302 301 301 302 302 303 303 304 304 304 304 303 303 304 304 304 306 306 306 305 306 306 306 306 306 306 307 309
291 293 287 287 282 280 283 284 288 290 293 296 296 297 298 298 300 301 301 302 301 300 300 301 302 302 302 303 302 303 303 303 302 302 301 302 302 303 303 303 304 304 305 305 305 305 306 306 306
290 287 287 288 286 282 280 284 291 291 294 296 297 298 298 298 299 300 301 300 300 300 301 301 301 300 300 301 301 300 301 301 300 299 299 299 300 300 300 301 302 302 303 303 302 303 303 303 304
291 291 289 285 283 283 282 285 293 292 294 296 297 299 298 299 299 299 299 299 300 299 299 299 298 297 297 298 298 297 299 297 296 296 296 297 297 297 298 299 299 299 299 300 301 301 301 302 300

GFSSGP_sfc_thetae_003.txt.gz
Theta_e
335 321 306 309 300 298 294 299 302 305 305 302 303 302 301 302 300 296 317 328 332 333 339 345 351 350 348 346 344 341 339 336 335 336 335 339 336 335 334 334 333 333 330 329 332 333 330 335 336
327 315 306 303 296 292 294 299 302 306 309 305 303 304 301 300 312 317 318 328 334 337 340 342 351 350 348 346 343 341 339 337 336 336 339 340 338 335 334 332 331 331 330 329 331 331 328 330 335
314 307 301 298 293 292 294 300 304 307 309 303 301 303 302 302 312 317 323 333 335 337 341 343 351 349 347 345 343 341 339 338 337 337 339 341 339 335 335 332 331 329 330 329 330 329 328 329 330
307 302 298 293 291 296 298 301 301 302 308 303 302 302 305 312 312 320 326 334 334 335 338 345 352 349 347 344 343 340 339 338 337 339 339 342 339 336 335 332 331 331 330 329 329 330 329 330 330
303 297 290 289 291 295 297 300 301 303 306 304 303 302 305 312 321 323 327 333 332 333 337 345 351 349 346 344 342 340 338 337 337 339 341 342 340 337 334 332 331 331 331 331 329 328 330 331 330
302 296 288 285 289 294 296 298 300 302 305 304 301 302 305 315 321 322 325 328 333 333 338 344 349 350 348 345 343 341 338 338 336 337 338 338 340 338 334 334 333 332 333 332 331 329 329 330 331
299 295 289 288 290 293 297 302 302 303 304 305 305 301 308 312 320 322 321 325 330 333 338 340 344 346 347 346 345 344 340 341 340 339 337 338 337 336 335 335 334 334 334 335 333 331 329 329 330
302 298 291 290 289 292 299 302 304 304 302 305 307 303 304 311 319 321 320 321 327 333 337 337 339 341 339 338 344 343 342 341 341 340 338 337 336 337 337 337 336 334 335 335 334 332 330 328 328
303 295 291 292 292 295 301 301 305 307 304 305 308 308 313 315 320 318 317 317 322 331 332 334 334 334 334 334 337 342 341 340 338 336 335 333 327 327 329 333 334 335 335 335 334 332 330 330 329
300 294 296 299 296 298 302 301 303 304 303 303 305 316 317 318 317 317 316 316 316 325 329 331 331 330 329 334 330 331 332 331 329 328 327 327 324 323 327 328 334 334 334 335 333 332 332 330 318
300 296 300 302 302 304 303 302 304 301 300 304 304 306 315 316 316 317 316 316 317 320 326 331 329 328 327 327 324 326 326 325 324 324 324 324 324 321 321 321 323 325 327 325 327 323 321 316 314
298 303 303 305 306 304 302 303 302 302 304 307 307 307 316 316 316 317 316 316 317 318 320 326 329 328 326 326 322 323 325 323 321 322 323 321 320 318 318 318 319 319 321 320 319 317 316 315 313
300 304 306 307 306 304 304 301 301 302 306 306 306 308 314 316 316 317 318 318 317 318 320 320 325 328 327 323 322 322 322 323 322 321 322 322 320 319 317 317 317 318 318 318 317 316 316 314 313
305 305 305 303 303 302 301 301 300 302 304 304 304 305 310 315 316 315 315 317 317 318 319 321 320 324 326 324 321 322 321 321 321 321 322 322 322 319 318 317 316 317 317 317 317 317 316 315 314
304 299 300 301 303 301 301 298 298 303 301 301 301 301 303 307 311 314 316 316 318 319 319 319 322 321 321 323 320 322 322 321 320 321 320 320 320 320 320 318 316 317 316 316 316 315 314 313 313
296 295 292 298 299 301 301 294 301 303 300 300 298 297 299 301 303 304 306 306 306 310 316 316 322 323 321 322 320 319 319 320 320 320 319 319 320 319 318 319 318 317 314 314 313 314 312 312 312
296 288 289 294 298 297 296 293 301 299 299 299 296 297 300 302 304 305 308 307 308 308 307 312 316 320 322 322 322 320 317 317 318 317 317 318 319 318 318 318 319 317 316 314 314 314 312 313 312
290 289 290 290 294 295 293 295 300 298 296 294 295 298 299 302 303 304 306 306 308 308 308 309 312 317 320 321 322 321 321 319 317 316 317 317 317 317 318 319 318 317 317 316 314 314 314 313 315
294 291 289 291 295 293 293 294 297 297 295 294 296 297 299 301 302 304 304 304 305 306 307 307 309 310 316 319 318 318 320 321 321 321 321 320 319 318 316 318 318 318 317 318 318 315 314 314 312
294 290 290 293 296 293 292 293 296 294 294 294 296 297 299 300 301 303 304 303 303 303 304 305 307 309 313 318 319 321 320 321 322 323 324 324 323 322 320 319 320 320 318 317 317 316 315 315 317
292 290 290 290 295 294 292 291 293 293 295 298 297 299 300 301 301 301 302 302 302 302 302 304 305 306 309 314 319 319 319 318 316 317 318 318 319 322 322 322 322 322 319 319 320 318 316 316 318
296 296 294 293 290 286 291 284 289 291 293 295 295 297 299 300 300 302 302 302 302 302 303 304 305 305 306 306 307 308 308 308 310 311 310 310 311 313 313 315 317 319 322 320 321 322 322 319 317
295 296 293 292 288 285 286 285 289 290 291 294 295 295 297 299 301 301 302 303 302 303 302 303 304 305 304 304 303 303 302 303 304 304 304 305 306 308 306 306 306 308 311 315 319 321 322 323 321
297 293 291 288 287 282 286 287 287 288 293 292 294 295 297 299 300 301 302 302 302 301 302 303 304 303 303 304 303 302 301 301 303 302 303 303 304 305 305 305 304 304 304 305 307 309 312 316 319
292 289 283 282 282 282 285 284 291 292 293 297 296 295 296 299 299 300 300 301 301 300 301 303 302 302 302 303 302 302 301 301 301 300 301 301 302 302 303 302 303 303 303 304 304 305 305 307 308
289 290 284 280 280 282 286 283 290 292 293 297 298 296 296 298 298 299 300 300 299 299 300 300 301 301 301 301 301 300 300 301 300 300 300 299 300 300 300 302 302 302 303 304 304 304 303 304 304
288 287 291 287 283 282 285 288 291 294 293 295 295 295 296 297 298 299 299 299 298 298 299 300 300 300 300 300 300 299 298 298 298 297 297 298 297 300 299 299 299 300 301 302 302 301 301 302 302
291 293 287 285 281 279 282 283 287 289 291 293 294 295 296 297 298 299 299 298 298 299 299 299 298 297 297 297 297 298 296 296 296 295 294 295 295 296 296 296 297 298 299 298 298 299 301 300 301
287 286 286 287 284 280 279 283 290 291 293 294 295 296 296 296 298 298 297 297 298 298 297 296 295 295 294 295 295 294 294 293 292 291 291 292 292 293 293 293 294 294 294 294 297 297 298 299 297
289 288 287 284 282 282 280 284 291 291 294 296 296 296 296 297 297 297 297 297 297 296 294 293 293 292 293 293 292 292 290 289 289 289 289 289 289 290 290 290 290 290 291 293 293 293 296 294 294

GFSSGP_sfc_thetae_006.txt.gz
Theta_e
334 315 306 308 299 297 293 298 302 303 304 302 303 300 300 300 300 297 313 326 328 331 335 344 351 350 348 345 344 342 339 336 335 335 333 336 336 335 333 335 333 330 329 329 333 332 333 331 335
318 311 306 302 295 291 293 298 301 302 307 309 302 302 300 300 311 316 316 327 332 333 337 341 350 350 349 347 345 342 340 338 336 336 335 340 338 334 333 332 331 332 330 330 331 334 330 330 333
310 306 301 297 293 291 293 298 303 304 304 304 300 302 301 302 308 315 321 328 333 334 339 341 349 350 349 347 344 342 340 339 337 336 337 341 338 337 335 332 332 331 331 330 331 331 329 329 331
306 302 297 292 290 295 297 298 300 299 304 304 300 301 304 307 311 319 325 332 332 333 337 342 349 350 348 346 344 342 339 338 337 337 339 343 340 336 336 332 332 331 330 330 330 331 330 330 331
303 296 290 287 289 293 296 298 298 299 302 304 300 300 303 309 320 320 329 332 331 333 336 340 349 350 347 345 344 342 339 338 337 338 339 341 343 338 337 334 331 331 331 331 331 330 330 331 331
302 296 289 286 287 293 295 297 298 299 302 306 299 300 304 312 317 320 328 329 333 333 336 340 348 350 349 345 343 342 339 338 337 337 338 341 342 340 336 334 333 332 332 332 332 331 330 329 331
299 295 290 288 289 292 295 301 298 301 301 303 302 300 306 312 319 321 323 326 330 332 335 339 342 345 347 346 345 343 341 341 339 338 340 337 339 337 335 335 335 334 333 333 335 334 333 331 330
301 298 290 290 290 291 296 302 302 301 302 305 305 301 302 311 319 320 319 323 324 329 334 335 338 340 339 339 344 344 343 341 341 340 339 336 336 336 337 338 337 334 334 334 334 334 333 332 330
302 294 291 292 292 294 298 301 304 305 303 304 305 306 311 316 318 316 314 316 320 328 330 333 335 336 337 335 337 342 342 340 339 338 335 333 327 326 328 331 334 335 334 334 333 334 333 333 332
299 293 295 299 296 295 300 301 303 302 301 301 302 311 315 316 314 316 315 315 315 322 328 331 332 332 332 336 332 333 333 331 329 328 326 327 325 323 325 327 331 334 334 334 334 334 335 332 319
299 296 299 302 302 301 302 302 303 300 299 302 303 305 310 313 315 316 315 315 315 317 325 330 330 330 329 329 327 327 327 326 325 324 323 324 324 320 320 319 319 320 325 323 325 323 321 318 316
297 302 301 304 305 304 302 303 301 301 303 306 305 305 306 313 314 316 315 314 313 317 320 327 329 328 327 326 324 324 324 323 322 322 322 320 319 318 317 317 317 317 318 319 319 318 318 316 315
299 302 305 305 306 304 304 301 300 301 305 305 304 304 304 310 314 314 316 316 316 316 319 319 326 328 327 324 323 321 321 323 322 321 321 321 319 318 317 316 316 316 317 317 317 317 318 316 315
304 304 305 304 304 302 300 301 299 301 303 303 302 302 302 306 313 313 315 316 316 317 318 320 319 325 327 326 322 323 320 321 321 320 321 321 320 318 318 317 316 315 317 318 318 318 317 317 315
304 299 301 300 301 301 300 298 298 303 299 301 300 298 300 301 304 305 308 307 308 310 315 318 320 320 324 324 323 322 322 321 319 320 320 320 320 318 319 317 317 317 316 317 317 316 315 315 315
297 295 291 298 298 299 299 293 299 301 299 300 298 296 300 302 304 305 307 306 307 307 307 309 319 320 319 320 320 320 321 320 320 319 319 319 320 319 317 318 319 319 315 315 314 314 313 313 313
296 292 289 293 297 297 295 292 298 298 298 296 294 296 299 301 303 303 305 305 307 306 306 308 312 317 319 318 319 318 317 317 318 317 317 318 318 318 317 318 318 317 315 313 314 314 312 314 314
293 292 289 290 294 294 293 293 299 297 296 294 293 296 298 300 301 302 304 303 304 305 306 308 310 311 316 319 319 319 318 316 315 315 315 316 316 316 316 317 317 316 314 315 313 313 316 315 316
295 291 291 292 294 291 291 291 295 297 296 293 294 297 298 300 300 303 303 302 303 303 303 304 308 310 316 317 317 317 317 319 320 321 322 321 319 318 316 315 316 316 315 317 317 315 312 315 314
295 293 289 294 295 291 292 292 295 295 295 293 295 297 298 299 300 301 302 301 301 301 303 304 305 306 311 317 318 319 319 319 320 318 316 316 318 318 319 318 318 318 317 317 316 316 317 318 318
294 293 291 292 293 293 290 290 291 292 293 295 296 297 298 299 300 300 300 300 300 301 301 303 303 304 306 308 313 312 313 311 309 309 307 308 309 308 307 308 309 312 315 316 317 318 318 316 319
294 296 296 292 289 285 290 283 288 290 291 294 294 296 298 299 299 301 301 301 301 301 302 302 303 304 304 304 304 304 303 302 303 304 303 304 305 305 304 304 304 304 306 305 308 309 313 315 313
297 298 296 294 288 284 286 284 287 287 290 292 293 295 296 298 299 300 301 301 301 301 301 301 303 303 303 303 302 302 301 301 301 301 301 301 302 303 303 303 302 302 303 302 303 303 304 306 308
300 295 293 290 286 281 286 286 285 287 289 290 292 294 297 298 299 299 300 300 299 300 300 301 302 301 302 302 301 300 299 298 299 299 298 299 300 301 301 301 301 301 301 301 302 302 302 303 304
296 292 285 283 281 281 284 283 287 290 292 294 295 294 296 297 298 298 299 298 298 299 299 301 301 300 300 300 299 298 298 297 296 296 296 296 296 297 297 298 298 299 299 300 301 301 301 301 301
293 291 283 280 279 281 284 282 288 290 293 294 297 296 296 297 297 298 298 297 297 298 298 299 299 298 298 298 297 296 296 296 295 295 295 294 295 295 295 296 296 297 297 298 298 298 299 299 299
289 288 290 285 281 281 284 287 292 292 292 292 294 295 295 296 297 298 297 296 297 297 297 297 297 296 296 296 295 294 293 292 292 292 291 292 292 293 293 292 292 293 293 293 294 295 295 296 298
291 293 286 285 280 279 281 282 286 289 290 291 292 293 294 296 297 297 296 296 297 297 296 295 295 294 294 293 293 292 290 290 289 289 288 288 289 289 289 289 289 289 289 290 290 294 292 293 297
287 286 286 287 284 280 278 283 288 289 291 292 292 293 294 296 297 296 296 296 296 295 293 292 292 292 291 291 290 288 288 287 287 286 286 286 286 287 287 287 287 287 287 288 288 290 289 291 291
288 287 287 284 281 280 280 283 289 290 290 294 294 295 295 296 297 296 295 296 295 293 291 290 290 290 290 290 288 286 286 285 284 284 285 285 284 285 285 285 286 285 286 286 287 286 287 289 287

GFSSGP_sfc_thetae_009.txt.gz
Theta_e
330 314 313 315 305 303 299 303 307 307 309 311 309 306 307 308 306 306 323 332 333 336 338 347 352 351 350 347 345 341 340 337 336 334 334 332 334 333 332 334 333 331 330 330 331 332 333 331 334
317 312 312 308 300 296 298 304 305 308 309 311 308 308 307 308 316 320 325 331 335 336 339 346 352 350 350 347 346 343 340 337 336 335 334 336 338 335 333 332 331 332 331 330 331 334 334 331 334
313 309 307 302 297 296 298 304 305 306 305 306 307 309 308 309 313 320 327 333 336 337 340 345 349 350 350 348 347 344 341 340 337 336 337 339 340 335 335 333 331 331 331 331 331 332 331 331 331
310 308 303 296 295 300 302 305 304 302 309 308 307 306 311 314 318 324 329 334 336 338 341 345 349 350 351 348 345 342 341 339 338 337 337 339 341 338 337 334 331 330 330 330 330 330 332 331 331
307 303 296 293 293 297 301 302 302 303 305 307 307 307 310 316 326 326 333 334 335 338 342 343 347 350 349 347 345 342 341 339 338 337 339 340 343 341 336 335 332 331 331 331 331 331 330 330 331
308 302 296 294 294 297 299 301 302 304 305 308 306 306 311 319 325 326 334 335 337 338 341 343 346 350 350 347 345 343 341 339 338 337 338 340 342 342 340 335 333 333 332 332 332 333 332 331 331
306 301 297 294 295 297 298 304 304 304 304 307 308 306 311 317 324 327 333 335 337 339 340 342 344 348 348 347 346 345 342 341 341 339 339 341 339 339 335 335 335 336 334 333 333 336 335 334 332
305 303 295 296 296 297 300 304 307 305 306 310 310 307 310 317 323 325 327 331 334 337 339 341 343 347 347 345 345 344 344 342 342 341 339 338 336 336 336 338 336 336 335 334 333 334 336 334 333
306 299 295 297 295 300 302 304 308 309 307 307 309 312 316 321 322 323 323 324 329 332 336 340 342 345 345 344 342 343 342 341 339 338 337 335 335 333 333 332 333 334 335 334 334 334 334 335 334
304 298 298 302 300 300 302 304 306 306 305 306 308 312 319 320 321 321 321 321 322 328 333 337 340 342 343 342 343 342 341 341 338 336 335 334 334 332 330 329 330 332 333 334 334 334 334 334 331
303 299 302 304 304 303 303 305 308 305 304 306 307 309 310 317 319 320 321 321 322 324 330 335 337 339 340 341 341 340 339 339 337 335 332 332 331 331 330 329 329 330 327 329 329 329 329 329 329
301 303 304 306 307 307 305 307 306 305 308 310 309 309 308 309 312 317 320 321 321 322 324 330 336 337 338 338 338 337 335 335 334 333 331 329 329 328 328 328 328 327 328 327 327 327 327 327 327
301 304 306 306 306 306 307 305 305 304 308 310 307 307 307 307 310 317 321 322 322 321 323 325 331 335 336 335 335 334 332 332 332 332 331 329 328 327 328 328 327 327 327 326 326 326 325 325 325
306 306 307 307 307 305 303 305 304 309 307 307 305 305 304 305 310 318 318 320 320 320 321 324 324 330 334 334 334 333 332 331 330 330 330 329 328 327 327 327 326 326 326 326 326 325 325 325 325
306 303 304 304 305 305 304 301 300 308 305 305 304 302 304 306 308 308 310 310 311 312 313 314 321 325 329 332 333 332 331 330 329 328 328 328 327 327 327 326 326 326 326 325 325 324 324 323 323
302 300 298 303 302 302 302 297 302 302 302 303 302 302 304 305 306 307 309 311 312 312 313 315 316 324 325 328 329 330 330 330 329 328 328 327 326 326 326 325 325 326 325 324 323 322 321 321 319
297 294 294 298 302 302 300 296 301 302 302 302 301 302 304 305 306 306 307 308 310 311 313 315 317 319 323 323 325 325 325 326 326 326 325 325 325 324 324 324 324 324 323 323 322 322 321 320 322
291 294 294 294 298 297 296 296 299 301 301 302 301 302 303 304 304 305 306 307 308 309 311 314 317 319 323 325 325 326 326 326 326 326 326 325 325 324 323 323 324 324 323 323 323 321 322 320 320
296 296 295 297 298 295 295 294 298 300 299 299 298 301 302 303 304 305 306 306 308 308 309 310 314 318 323 324 324 325 323 321 318 317 316 316 317 318 318 318 317 318 319 319 319 320 319 320 322
296 294 293 296 297 296 296 295 299 299 299 299 298 300 302 303 303 304 305 305 305 306 307 308 309 311 318 324 324 324 319 314 313 312 311 311 309 309 308 308 309 309 310 310 311 312 312 314 317
296 294 293 294 295 296 293 293 294 297 298 297 299 301 302 303 302 303 304 304 305 305 306 307 308 308 309 312 314 313 313 311 310 308 307 307 308 306 306 306 306 306 307 306 307 308 307 305 308
295 297 298 295 294 290 294 287 292 296 295 296 298 300 301 302 303 303 304 304 305 304 306 307 307 307 308 309 308 307 306 304 305 305 305 305 305 305 303 304 304 304 304 304 305 305 305 305 303
297 301 299 297 293 289 289 288 292 292 292 295 296 299 301 302 303 302 303 303 304 305 305 306 306 305 305 305 305 304 302 303 303 302 301 302 302 303 301 301 301 301 302 302 303 303 303 304 303
297 296 294 292 290 285 288 290 290 292 293 294 296 298 300 301 302 302 302 303 303 304 305 305 304 302 303 303 302 301 300 299 298 298 297 297 298 299 298 298 298 298 298 299 300 301 302 302 302
297 295 287 284 283 284 287 286 291 294 294 297 297 297 299 301 301 301 301 302 302 303 303 303 303 300 300 300 299 299 298 297 295 295 294 293 293 295 294 295 294 295 295 295 296 296 299 299 299
296 295 287 282 282 284 286 285 291 295 296 296 299 298 300 300 301 301 301 301 301 301 301 301 300 299 299 297 296 295 295 294 293 293 292 291 291 292 293 293 293 292 292 292 293 293 297 295 296
292 292 294 286 285 284 287 290 295 295 294 294 295 297 299 299 300 300 300 301 301 300 299 299 298 297 297 295 293 292 291 291 290 290 290 290 290 290 290 291 290 291 290 290 291 291 293 293 293
295 297 289 288 283 281 284 285 289 292 293 293 293 297 298 299 299 299 299 300 299 298 297 297 296 295 294 292 291 289 289 289 289 289 288 288 288 289 289 289 289 289 289 289 289 290 291 290 290
290 290 289 289 287 283 281 286 291 292 293 294 294 296 298 298 299 299 298 299 297 296 295 294 294 293 292 290 288 288 287 287 287 287 287 287 287 287 287 287 287 287 287 287 287 288 288 288 289
291 290 291 286 283 283 283 286 293 292 292 294 295 296 298 299 299 298 298 297 295 293 293 292 291 291 290 288 287 286 286 286 286 286 286 286 286 286 286 286 286 286 286 286 286 286 287 287 287

GFSSGP_sfc_thetae_012.txt.gz
Theta_e
333 320 324 321 308 309 302 305 313 310 312 314 315 312 313 314 311 310 332 338 337 338 339 350 353 352 350 350 345 343 341 338 336 334 333 331 333 332 332 332 332 332 331 331 334 335 337 334 332
327 318 321 317 303 299 301 309 309 312 312 314 314 314 312 312 318 323 329 337 338 339 340 344 351 351 351 349 346 343 341 338 336 335 333 334 336 335 333 332 331 331 332 331 331 334 335 333 334
322 316 313 309 303 298 302 309 309 310 313 312 313 314 314 314 318 323 333 337 338 339 341 344 352 351 351 348 347 344 342 340 337 335 337 337 340 334 334 332 332 331 331 331 331 331 332 333 332
320 318 312 302 297 303 305 308 307 310 313 314 314 312 316 321 322 329 334 337 337 339 342 347 351 350 351 350 347 344 342 340 339 337 336 338 341 339 337 335 331 330 330 331 331 330 330 331 332
322 314 305 302 301 302 306 307 307 308 311 313 314 313 314 322 329 331 335 337 336 338 341 342 348 350 349 348 345 343 342 339 338 337 337 340 340 342 338 336 333 330 331 331 331 331 331 331 330
314 312 302 301 303 306 309 308 308 310 311 313 312 312 316 325 328 331 337 337 337 339 341 340 345 349 350 348 346 342 342 340 339 336 338 338 340 342 342 337 334 332 333 333 331 334 334 333 333
312 308 303 303 303 305 305 309 308 309 311 311 314 310 316 323 329 333 337 337 339 340 341 341 342 346 349 348 347 345 343 341 340 338 337 340 338 337 337 335 334 336 336 334 333 334 335 335 334
314 310 303 304 302 303 308 307 312 310 310 316 315 312 314 323 327 332 335 336 338 340 341 341 342 345 346 346 345 345 344 343 342 342 340 338 336 334 333 335 335 335 336 335 334 334 335 335 335
313 305 301 303 303 305 308 308 314 315 313 313 315 316 319 324 327 329 329 332 335 337 340 342 341 343 345 344 343 343 342 341 340 339 337 335 332 334 333 333 332 333 334 334 334 334 335 336 335
311 305 304 309 309 308 309 310 312 312 312 312 313 316 318 318 322 323 325 326 329 332 336 340 341 342 344 342 344 343 341 341 339 338 336 334 332 333 333 330 330 332 333 333 334 334 334 334 332
311 305 309 309 310 310 310 311 313 312 310 312 311 314 317 317 318 319 322 326 328 330 333 337 340 342 342 342 343 342 342 341 340 338 337 334 332 332 333 332 332 332 329 330 331 331 330 330 330
306 310 311 311 312 311 310 313 311 313 314 318 318 318 315 315 316 317 319 324 327 328 330 333 337 340 341 342 342 341 340 340 339 338 337 335 332 331 330 330 330 331 331 330 331 330 330 330 330
308 310 311 312 312 311 312 310 312 313 317 319 318 316 314 314 315 317 323 325 328 328 330 331 333 337 340 341 341 341 339 338 338 338 337 335 333 331 331 331 331 331 331 331 331 331 331 331 331
312 311 311 312 312 312 309 311 310 313 318 317 315 314 314 312 313 318 321 324 326 326 326 328 331 332 337 339 340 339 339 338 338 337 336 334 334 333 333 332 332 331 332 332 331 331 331 330 331
313 307 310 311 311 310 312 307 308 314 313 310 311 312 311 312 314 315 316 317 318 320 320 321 322 328 333 336 338 339 339 337 337 337 336 334 334 333 333 332 332 332 332 331 332 331 331 330 330
307 308 302 309 310 311 308 302 310 311 308 308 308 310 311 311 312 314 315 316 318 319 322 323 322 324 330 333 336 336 337 337 337 337 335 333 332 332 332 331 331 332 332 331 331 330 329 328 328
306 298 301 303 310 309 306 303 308 308 308 308 310 309 310 311 312 314 314 316 317 320 323 324 324 326 329 331 332 332 332 333 333 334 333 332 331 331 331 331 331 330 329 328 327 326 326 325 324
297 298 300 301 305 304 303 303 307 309 307 308 309 309 310 310 310 312 313 316 317 320 323 325 327 328 329 331 331 332 332 332 331 328 327 328 325 324 325 322 319 320 320 319 318 318 320 320 320
302 300 300 303 305 302 303 304 305 310 309 308 308 308 309 309 310 312 313 315 316 318 320 324 327 329 330 330 329 327 321 319 317 316 315 314 313 313 313 313 312 313 312 312 312 312 311 311 313
303 299 298 303 302 301 303 304 307 309 307 308 307 308 309 308 309 310 311 312 313 314 315 318 322 327 329 330 326 321 317 315 314 314 312 312 311 310 310 310 310 310 310 309 309 309 308 308 309
301 298 299 299 301 303 301 302 304 303 303 303 305 309 309 309 308 309 310 311 313 312 313 314 316 317 318 318 317 317 316 315 312 311 310 309 309 307 307 307 307 307 307 306 306 306 305 303 305
296 304 302 300 298 295 301 294 302 304 302 302 304 307 308 308 309 309 310 311 311 312 314 314 314 314 315 316 314 313 311 308 308 308 308 307 306 304 302 303 303 303 303 302 302 302 303 302 300
300 305 303 301 298 296 299 295 300 299 300 300 304 306 307 309 309 308 309 310 311 312 312 312 311 311 311 311 311 309 307 307 306 305 304 303 303 302 299 299 299 299 299 300 300 299 299 301 299
303 301 300 299 295 292 297 296 298 300 300 301 304 306 307 308 308 308 309 310 310 311 311 310 308 307 308 307 307 306 304 303 302 301 300 299 299 299 297 297 297 297 297 297 297 297 298 299 298
302 298 290 288 288 290 293 293 299 302 300 303 303 305 307 308 307 307 307 308 309 309 309 308 306 304 305 304 303 302 301 300 298 297 296 295 295 295 295 295 295 295 295 295 295 295 296 298 296
297 300 293 285 288 291 292 291 298 300 302 302 306 307 307 307 308 308 308 308 308 307 307 306 305 303 302 301 299 299 298 297 296 295 294 294 293 293 294 293 293 293 293 294 294 294 294 295 295
296 294 299 292 292 291 294 297 301 300 300 300 303 305 306 307 307 307 308 308 307 306 305 304 303 301 300 298 297 295 295 294 293 293 293 292 292 292 292 293 292 293 292 292 292 292 292 292 293
300 303 292 294 287 286 291 292 296 298 299 299 301 303 306 307 307 307 307 307 306 304 304 303 302 299 297 296 295 294 293 292 292 292 291 291 291 291 291 291 291 291 291 291 291 291 291 291 291
298 296 297 297 293 290 289 293 300 299 300 300 301 305 306 306 306 306 306 306 304 303 302 300 299 297 295 294 293 292 292 291 291 290 290 290 290 290 290 290 289 289 289 290 289 289 289 289 290
302 298 298 293 289 292 291 294 299 299 300 300 302 304 306 306 307 306 306 304 302 301 300 298 298 296 294 292 292 291 290 290 290 290 290 290 289 289 289 289 288 288 288 288 288 288 288 288 288

GFSSGP_sfc_thetae_015.txt.gz
Theta_e
337 329 322 321 307 306 303 305 314 313 313 315 316 314 314 315 313 310 333 337 336 337 342 348 353 352 350 350 348 344 341 338 336 333 332 331 332 333 333 333 333 334 333 332 334 336 337 337 334
331 325 321 313 301 299 300 309 309 314 315 316 315 315 314 313 320 326 331 336 336 337 341 346 354 351 350 350 346 344 342 339 335 334 332 333 334 333 332 331 331 331 332 332 333 333 334 335 334
329 324 314 309 302 297 302 309 312 313 316 315 315 317 316 316 321 326 334 337 336 337 340 348 353 351 351 349 346 344 342 339 336 333 334 337 338 337 335 332 332 331 331 331 331 330 331 333 333
323 320 315 305 302 303 305 310 310 310 316 316 316 314 319 324 325 331 335 336 336 337 340 349 353 351 351 348 347 344 342 341 339 336 336 336 338 342 337 335 333 330 330 331 331 331 330 330 331
324 315 305 304 305 305 306 309 309 309 312 313 316 315 317 324 330 332 335 335 335 337 341 344 351 349 348 349 346 344 342 339 338 336 335 337 340 341 340 337 334 332 331 331 331 331 332 332 332
314 313 303 301 305 308 309 310 310 311 313 314 313 313 317 327 330 332 335 335 337 338 340 341 347 349 349 348 346 343 342 339 337 335 336 337 339 340 340 339 335 333 333 333 332 332 334 336 335
312 308 303 303 304 307 310 309 309 310 312 313 316 312 319 322 328 333 335 335 337 339 340 339 341 344 349 349 348 344 343 340 338 337 336 339 337 336 337 336 334 335 336 335 334 334 335 336 336
316 311 304 305 303 304 312 309 310 311 311 318 317 313 315 323 327 332 335 335 337 339 340 339 341 343 346 344 346 345 345 344 341 341 340 338 337 336 334 335 336 334 335 335 335 334 334 335 336
319 306 302 303 304 306 312 309 314 317 314 315 316 316 319 321 326 329 330 332 334 336 339 340 340 342 343 343 344 343 342 341 340 338 337 336 330 332 334 334 334 332 333 333 334 334 334 336 336
312 305 304 310 310 309 311 311 313 313 313 314 316 318 320 320 320 321 323 327 330 332 335 339 340 340 342 341 343 342 341 340 339 338 336 335 331 331 332 332 332 333 334 334 334 334 335 334 330
313 305 310 311 312 312 310 311 314 312 310 314 313 316 319 319 319 319 321 323 328 331 333 336 339 340 341 341 341 340 340 339 338 336 335 334 331 330 331 331 331 332 330 331 332 332 331 330 330
308 311 311 312 313 312 310 313 311 313 314 318 319 320 320 318 317 318 318 321 326 329 331 333 336 339 340 341 340 340 339 338 337 337 335 334 332 331 330 329 330 331 330 330 331 331 331 331 331
308 310 312 313 313 312 313 310 310 312 317 320 320 320 319 319 318 318 319 324 327 328 331 332 334 336 339 340 340 340 338 338 337 337 337 335 333 332 332 331 331 332 332 331 331 331 332 332 332
312 312 311 312 312 312 310 311 312 313 318 317 318 318 318 318 317 317 321 323 326 329 329 331 332 333 336 338 339 339 339 338 337 337 337 336 335 334 333 333 333 333 333 333 332 331 331 331 331
311 306 309 310 311 310 313 307 308 314 316 314 312 313 314 315 316 317 318 319 321 323 323 323 324 329 333 336 339 339 339 338 337 337 336 335 335 334 334 333 333 333 333 332 331 330 330 328 328
305 306 300 308 310 311 310 302 310 315 313 310 310 311 313 314 314 316 317 319 321 322 322 325 324 322 330 334 337 337 337 337 337 336 335 334 333 333 332 332 331 331 331 330 328 326 324 324 323
303 298 300 304 310 309 308 304 309 313 310 309 310 311 313 313 314 316 317 318 320 322 324 325 327 328 330 334 335 334 334 333 333 334 334 333 332 331 332 327 322 323 323 320 318 316 317 316 316
297 297 300 300 306 308 306 305 309 312 311 310 310 311 312 312 312 315 316 319 321 324 326 328 329 330 331 332 332 333 332 326 323 320 319 318 317 317 318 316 314 315 315 313 313 311 313 312 312
301 300 300 304 307 306 304 304 307 310 311 310 310 310 311 312 313 315 316 318 319 323 326 328 328 330 331 331 329 324 319 318 316 315 314 313 313 313 312 312 311 311 311 310 309 309 308 309 310
301 299 300 303 306 304 303 303 307 310 310 312 310 310 311 311 311 313 314 315 316 318 322 325 327 330 329 325 323 320 317 315 314 314 312 311 309 308 308 308 308 307 307 307 306 306 304 305 305
300 299 299 299 304 304 303 301 304 309 311 310 310 312 312 310 310 311 312 313 315 315 317 318 318 319 319 320 319 317 317 316 312 310 309 308 307 304 304 304 303 303 304 303 303 302 302 300 302
295 303 302 301 300 294 304 293 302 306 304 305 307 310 310 310 311 311 312 312 313 314 316 316 316 316 317 318 316 314 311 307 308 308 307 307 305 302 300 300 300 300 300 300 300 299 300 300 298
298 305 302 302 300 298 298 296 300 306 303 304 306 309 310 310 310 310 311 312 313 314 314 313 313 312 313 313 312 310 308 307 307 306 304 303 302 301 298 298 298 298 298 298 297 298 297 299 298
305 303 302 301 298 291 297 297 298 301 303 305 306 308 309 309 310 311 311 312 312 313 312 312 310 309 309 309 308 307 306 305 303 302 300 300 299 299 297 297 297 296 296 296 296 297 297 297 297
301 297 289 288 288 289 299 297 300 301 303 305 305 307 308 309 309 309 309 310 310 310 310 308 307 305 306 305 305 304 303 302 299 299 297 296 296 295 295 295 294 294 295 295 295 295 295 295 295
297 298 291 285 287 291 296 292 298 304 305 307 308 308 309 309 309 309 310 310 310 309 308 307 305 303 303 302 301 301 300 299 297 296 296 295 294 294 294 294 293 293 293 293 294 294 294 294 294
295 295 300 294 296 293 295 299 301 303 303 303 306 307 307 308 309 309 310 310 309 308 308 306 304 302 301 300 299 298 297 296 295 295 294 294 293 292 292 293 292 292 292 292 292 291 292 292 292
300 304 294 296 287 287 293 295 296 299 301 302 303 306 307 308 309 309 309 309 309 307 306 306 304 301 300 299 298 296 295 294 294 294 292 292 292 292 291 291 291 291 291 291 291 291 291 290 291
297 296 299 299 296 290 290 293 303 301 302 302 304 307 307 308 308 308 309 309 307 306 305 303 301 299 298 297 296 295 294 293 293 292 291 291 291 291 290 290 290 290 289 290 289 289 289 289 289
302 298 299 294 291 294 293 293 302 302 303 303 304 306 308 309 309 308 308 307 305 304 303 302 301 299 297 296 295 293 293 293 292 291 290 290 290 290 290 289 289 289 289 289 288 287 288 287 287

GFSSGP_sfc_thetae_018.txt.gz
Theta_e
337 329 323 317 305 302 298 300 306 309 309 310 312 309 308 310 309 306 326 330 333 337 345 349 355 353 351 351 348 344 341 338 336 333 334 332 333 335 336 335 334 335 335 334 334 335 337 337 337
333 328 319 312 297 294 296 303 306 309 310 311 312 310 309 307 320 323 326 331 334 338 342 344 354 352 351 351 348 344 342 338 337 333 333 333 334 334 333 332 333 333 332 332 332 332 333 334 335
331 324 310 306 300 293 296 305 306 308 311 310 310 312 310 311 321 323 330 331 333 332 340 349 354 353 352 350 346 344 343 339 337 333 334 336 337 338 336 334 334 332 332 331 331 330 330 331 332
322 316 311 300 298 303 300 304 306 306 310 312 312 309 315 321 321 326 331 332 331 332 345 351 353 353 353 350 347 345 343 341 339 335 335 335 337 339 338 336 334 332 332 331 331 330 330 331 330
320 313 301 299 301 305 302 305 306 304 307 310 310 308 312 320 325 329 329 331 330 333 344 349 353 352 351 350 348 345 343 341 339 336 335 336 339 341 341 338 335 333 332 331 329 330 330 332 333
311 311 298 296 300 306 305 306 306 305 308 310 307 307 312 321 325 327 330 328 333 333 338 345 349 351 350 350 347 345 343 340 338 335 334 335 337 339 340 340 337 334 334 333 332 331 334 335 336
309 305 300 300 300 303 308 306 301 305 307 307 310 305 313 317 325 329 328 330 331 334 335 336 341 346 350 349 348 346 344 342 340 338 336 338 336 335 338 341 337 336 336 335 335 334 334 335 336
313 308 301 301 301 302 309 308 307 305 306 314 311 305 306 314 324 328 329 328 329 333 334 334 336 339 344 342 346 345 345 343 342 341 340 337 336 336 338 339 339 336 335 335 334 334 334 334 335
318 303 299 301 302 304 309 306 311 313 309 311 312 310 315 319 324 324 323 326 327 332 332 333 334 338 342 339 341 343 343 342 340 339 337 335 328 326 331 334 336 335 333 333 334 335 335 336 336
310 302 302 307 307 306 309 308 309 309 309 309 311 314 316 315 313 314 320 323 325 327 330 332 333 335 336 339 339 338 337 336 334 333 332 331 327 325 329 330 332 334 335 335 335 335 336 335 329
311 304 308 308 309 310 308 308 310 307 306 310 309 313 315 314 313 313 314 316 322 326 329 331 333 333 335 335 338 336 336 335 334 332 329 328 324 323 324 325 326 325 329 326 329 330 330 327 326
306 310 310 310 311 311 307 310 308 308 309 314 314 316 315 315 313 312 311 311 316 323 326 330 331 333 333 335 334 333 332 332 330 330 329 326 324 323 323 322 323 323 324 323 323 324 325 325 326
307 310 311 311 311 310 311 307 307 308 312 314 315 316 315 315 314 313 312 316 317 322 324 326 328 331 333 333 334 333 331 331 331 330 330 328 326 324 325 324 325 325 325 325 325 325 327 327 328
309 310 311 311 310 310 308 308 308 309 312 312 314 314 313 314 312 310 312 314 318 321 324 326 327 328 332 332 332 332 332 331 331 331 330 330 328 327 327 327 329 328 329 329 328 327 327 327 326
307 303 308 309 309 308 309 304 305 310 312 311 311 310 310 310 312 309 312 313 314 316 317 318 319 325 327 331 333 332 331 333 332 331 332 329 329 327 327 327 327 328 328 328 328 326 322 320 320
303 303 297 306 309 309 307 298 307 311 310 309 309 305 307 310 310 310 312 312 313 314 317 320 321 316 322 329 332 332 333 331 331 330 331 330 329 328 326 326 321 321 320 317 312 311 310 310 310
300 293 296 300 308 307 304 300 307 311 309 306 304 304 307 308 309 311 311 314 313 317 319 320 320 317 324 329 329 329 328 327 324 324 319 316 314 315 315 312 309 309 310 308 307 306 305 304 305
291 294 296 297 304 305 303 301 306 309 306 304 304 305 306 308 308 310 312 314 316 319 321 322 323 324 326 326 326 322 316 314 313 311 310 310 309 309 309 308 306 306 306 305 304 302 303 303 302
296 296 296 300 306 303 302 302 304 307 307 305 305 304 304 306 309 310 311 313 316 320 321 322 323 324 325 325 321 315 311 309 308 308 307 306 305 306 304 304 303 303 302 301 300 299 298 298 299
296 295 296 301 304 303 301 301 304 305 306 306 305 305 304 306 306 308 309 309 313 317 319 321 322 320 319 318 315 313 310 308 308 307 305 303 301 301 300 299 299 298 298 298 297 296 296 296 297
293 294 295 296 302 303 298 296 299 303 305 306 308 307 306 306 305 306 306 308 309 310 311 313 314 314 314 313 313 311 311 308 305 304 302 301 299 298 297 296 296 296 296 295 294 294 293 293 294
289 298 298 299 296 291 298 286 296 301 303 305 304 303 305 305 306 306 307 307 307 308 310 311 312 312 313 312 310 307 303 301 302 301 300 299 298 295 295 295 294 293 294 292 292 294 292 292 291
292 300 298 298 296 296 296 290 295 300 300 302 300 301 305 305 305 305 306 308 309 308 307 306 307 307 307 306 305 303 301 300 300 299 297 296 296 294 294 293 292 292 292 291 291 291 291 292 291
297 297 297 298 296 289 293 292 292 296 299 299 300 302 305 305 305 306 307 308 307 307 306 304 303 303 303 302 301 300 298 297 296 294 293 293 293 293 292 293 291 291 291 290 290 290 290 290 289
295 292 286 286 286 284 294 291 294 296 300 302 301 302 304 305 305 305 305 305 305 304 303 303 302 300 300 299 298 297 296 294 292 292 291 290 290 290 289 290 289 289 289 290 289 289 288 288 288
293 289 286 281 282 285 294 288 293 299 301 303 304 304 304 304 304 304 304 304 304 304 302 301 299 298 297 296 295 294 294 293 291 290 290 289 288 288 288 288 288 288 288 288 288 288 288 287 287
293 286 295 291 290 287 289 292 294 298 298 300 302 303 303 303 304 304 305 305 304 302 301 299 298 297 296 294 293 291 291 290 289 289 289 288 288 289 288 287 287 287 287 287 287 286 286 286 285
298 299 291 292 284 283 287 289 290 293 295 297 300 301 303 304 304 304 305 304 303 302 301 299 297 295 294 293 291 290 289 289 289 288 287 287 287 287 287 286 286 286 286 286 285 285 286 285 285
293 293 296 296 292 286 283 286 296 296 298 297 299 303 303 303 304 304 304 304 302 301 299 297 295 294 293 292 290 289 288 288 288 287 286 286 286 286 286 286 285 285 285 285 284 284 285 284 284
297 296 295 289 287 289 288 286 297 297 298 299 299 304 304 304 304 304 304 302 300 299 297 296 294 293 292 291 289 289 288 287 286 286 286 286 285 285 285 285 285 285 285 285 284 283 284 283 283

GFSSGP_sfc_thetae_021.txt.gz
Theta_e
340 329 323 312 299 297 294 299 298 305 305 305 307 306 304 305 306 305 323 333 342 343 350 353 356 354 352 352 348 345 342 339 336 335 333 334 335 337 335 335 335 335 334 333 333 333 336 337 335
336 329 313 305 293 289 292 298 299 302 306 308 309 307 306 306 318 321 322 330 342 345 348 349 355 354 352 352 347 344 341 339 336 334 334 334 334 336 335 333 334 333 332 331 331 330 331 333 333
331 325 306 300 295 290 292 300 300 304 307 308 307 309 308 311 319 321 325 330 341 342 344 348 355 353 352 351 347 344 342 339 337 335 334 337 337 338 334 334 334 332 332 331 330 329 329 329 329
318 311 305 296 294 299 299 298 303 303 307 309 308 306 314 318 319 325 328 329 330 338 342 351 354 354 354 350 346 345 343 341 339 337 335 335 337 339 339 337 335 333 332 331 330 330 330 331 331
313 306 296 294 296 301 302 301 303 301 304 307 308 305 310 318 324 326 327 329 335 340 346 349 354 353 353 349 347 345 344 342 341 337 336 336 339 341 342 338 336 334 333 332 329 329 330 331 334
307 304 293 291 296 302 303 304 303 301 302 306 305 305 310 319 323 324 327 326 340 341 345 348 350 352 352 350 348 345 344 341 339 337 336 336 336 338 343 339 337 335 334 334 334 332 332 335 336
305 300 295 295 296 300 304 303 301 301 302 305 307 304 308 316 323 327 324 328 333 338 342 343 345 347 349 349 348 347 344 342 341 338 336 338 336 336 338 342 339 336 336 335 335 335 334 334 335
309 303 297 296 297 299 306 306 305 303 302 310 309 303 305 314 324 327 326 328 329 333 336 338 340 343 344 344 346 345 345 343 342 340 338 336 335 336 339 341 341 338 336 336 334 333 334 335 335
315 299 297 299 299 302 307 304 308 310 307 308 309 307 313 319 323 323 322 323 326 330 330 333 335 338 343 341 343 343 343 341 340 338 336 334 328 326 330 334 335 338 335 334 334 335 335 337 336
307 300 301 304 304 302 307 305 306 306 306 306 308 312 313 317 318 320 319 321 322 326 328 330 334 335 340 341 338 337 338 337 334 333 330 330 327 323 327 329 334 336 336 336 335 336 338 336 329
308 303 306 307 308 308 305 305 308 304 303 307 307 308 312 313 312 311 312 320 323 326 328 330 330 334 336 337 337 335 333 332 331 330 329 328 327 322 322 322 324 323 326 325 327 326 328 327 326
303 309 310 310 311 309 305 307 305 306 306 310 311 312 311 312 312 313 310 310 316 322 327 329 330 330 331 336 335 334 333 331 329 329 327 324 322 320 320 319 320 321 321 321 322 321 322 324 326
304 307 310 311 311 310 309 306 305 305 309 311 311 312 311 312 312 313 311 312 314 320 324 327 329 330 330 331 331 330 331 329 328 327 327 325 323 322 322 323 323 323 323 325 326 326 326 326 327
305 306 307 310 311 310 306 305 305 306 309 309 310 310 310 311 312 309 309 309 312 317 321 325 326 329 330 330 330 329 330 330 329 330 328 328 326 325 325 325 328 326 328 327 327 323 322 318 317
305 301 303 304 308 308 309 303 303 307 308 308 309 308 310 308 310 309 311 312 311 313 314 320 323 326 329 330 330 330 332 332 331 330 330 329 327 325 325 323 321 322 318 313 310 308 308 307 308
299 301 294 301 305 309 307 298 305 307 306 306 307 306 305 309 309 309 311 312 312 313 316 317 319 316 326 329 329 331 331 330 328 326 318 315 316 323 316 311 309 311 307 306 305 304 303 303 303
296 289 292 297 305 305 304 299 305 307 306 306 304 304 304 306 307 308 311 311 312 314 317 318 317 314 323 326 324 320 317 315 314 313 312 310 308 309 308 306 304 305 304 303 302 301 300 299 299
288 289 291 293 299 302 301 301 304 305 305 305 303 302 302 305 306 308 311 311 315 317 318 319 319 322 324 318 314 313 311 309 308 306 305 305 305 304 303 302 301 301 301 299 297 297 296 296 296
292 290 290 295 302 300 299 300 303 306 306 302 300 300 301 304 306 309 310 313 316 317 318 320 321 322 322 316 311 309 306 306 305 303 302 300 300 300 298 299 298 297 297 295 295 295 294 294 295
292 290 290 295 300 299 299 299 303 305 304 304 303 302 301 303 304 307 308 311 314 314 314 315 315 315 317 315 311 309 306 304 303 302 299 298 297 297 296 295 295 294 295 293 292 292 292 293 293
291 289 289 290 297 300 297 296 299 303 305 305 304 305 305 304 304 303 305 307 308 308 310 311 311 312 311 311 309 308 306 303 301 299 297 295 295 295 294 293 293 292 292 291 290 290 290 289 291
286 293 293 292 293 289 298 288 294 299 299 300 301 300 303 303 304 305 304 305 306 306 308 309 310 310 309 309 307 304 301 299 298 298 296 294 293 293 293 292 291 291 291 289 290 291 289 289 288
288 295 293 292 291 291 293 291 291 296 298 301 302 298 302 304 305 304 305 306 306 304 303 303 304 304 304 304 302 301 298 297 297 295 293 292 291 291 292 291 290 289 290 288 288 288 287 288 288
294 291 291 292 292 284 290 291 289 293 298 300 301 300 302 303 303 305 306 306 304 302 301 300 301 300 300 300 299 298 295 293 292 291 290 290 290 290 289 290 288 288 288 288 288 287 287 286 286
291 286 278 280 281 281 293 291 293 295 298 301 298 301 302 303 304 304 304 303 302 300 299 299 299 297 296 296 295 293 291 290 289 289 288 288 288 287 287 287 286 286 287 287 287 286 285 285 284
288 286 281 273 280 284 294 288 291 302 298 302 302 302 302 302 304 304 303 302 301 300 298 297 296 294 294 293 292 291 291 290 289 288 287 286 286 286 286 286 286 286 286 286 285 285 285 285 284
287 283 290 286 288 286 288 290 293 295 297 300 300 301 301 301 302 303 303 303 300 298 297 296 295 293 292 291 290 288 288 288 287 286 286 286 286 288 286 285 285 285 285 285 284 284 283 283 283
292 295 284 285 281 280 285 285 287 291 293 298 299 299 300 301 302 303 303 302 300 298 296 295 294 292 291 290 288 288 287 287 286 286 285 285 285 285 285 285 284 284 284 284 283 283 284 283 283
290 287 291 290 287 283 281 285 292 294 296 297 299 300 300 301 302 302 303 302 300 297 295 293 292 291 290 289 287 287 286 286 285 285 284 284 284 284 284 284 284 284 284 283 282 282 283 282 281
295 291 291 284 286 289 285 284 294 295 296 298 299 301 301 302 302 302 302 300 298 296 294 292 291 290 289 288 287 287 286 285 284 284 284 284 284 284 284 284 284 284 284 283 282 281 282 281 281

GFSSGP_sfc_thetae_024.txt.gz
Theta_e
340 330 320 310 297 296 292 296 296 300 303 305 307 305 304 304 304 301 322 334 341 346 351 353 356 356 352 351 346 344 341 338 336 335 336 338 338 338 336 335 334 333 333 331 332 333 335 336 334
339 329 311 303 292 288 291 296 298 300 304 307 307 306 304 307 316 319 323 338 344 347 350 350 355 354 352 351 347 344 341 339 336 335 334 336 337 337 336 335 334 332 331 331 330 329 331 333 332
326 323 305 298 292 289 290 298 300 304 305 307 305 308 308 310 319 320 324 339 343 345 348 350 355 355 352 350 346 343 341 340 336 336 336 336 336 338 337 335 333 333 331 330 330 329 328 328 329
318 310 303 295 292 296 296 300 301 302 305 307 306 306 312 316 319 324 329 339 340 341 342 351 354 355 354 350 346 344 342 340 337 337 336 337 339 340 337 337 335 334 333 331 330 330 330 331 331
312 304 296 292 294 297 299 303 300 300 302 305 306 304 309 317 322 325 326 335 335 335 340 349 354 354 353 348 346 345 343 341 339 336 337 336 338 341 342 339 336 335 333 331 330 329 330 331 333
307 302 292 290 293 299 301 303 300 301 301 304 303 305 309 318 322 323 325 331 339 340 344 348 351 353 351 349 347 345 344 342 341 337 337 338 336 338 343 339 337 336 334 334 334 333 332 333 335
305 298 293 293 295 298 302 305 297 300 302 303 306 303 308 315 322 325 323 333 339 343 344 343 346 349 349 349 348 347 344 342 341 338 338 339 337 336 341 341 339 336 336 336 335 335 335 334 334
307 302 295 295 296 297 304 305 302 301 300 308 308 304 306 313 322 324 324 332 334 339 341 341 341 343 344 345 346 346 344 343 342 341 339 338 336 336 339 343 342 338 337 336 336 334 334 335 335
313 298 295 298 298 300 305 303 307 308 305 306 307 307 310 317 322 321 321 323 327 333 336 340 340 340 342 342 342 344 343 341 340 338 336 333 326 325 329 335 336 340 338 336 335 335 335 337 336
306 300 300 304 304 302 304 304 305 304 304 304 306 310 315 318 319 320 319 320 323 326 329 334 336 338 340 343 339 337 338 336 333 332 330 329 326 323 324 328 334 338 338 337 336 337 338 336 328
307 302 305 306 307 307 304 303 306 303 301 305 306 307 309 312 316 319 319 320 321 327 328 331 332 334 337 338 336 335 334 333 332 330 329 327 328 324 323 322 325 325 325 324 326 324 323 324 325
300 307 309 310 310 309 305 306 304 304 304 308 309 310 309 310 311 311 310 312 318 322 327 329 331 332 335 336 335 334 332 330 328 329 328 325 322 318 318 318 319 320 321 320 320 320 322 325 326
299 303 308 310 310 310 310 306 304 304 308 309 310 310 309 309 310 311 312 310 310 319 325 327 328 331 332 334 334 332 332 330 329 328 326 323 320 320 321 321 322 322 324 325 325 323 319 315 313
300 302 304 306 307 309 307 307 304 305 308 307 309 309 308 309 310 309 310 309 313 318 321 326 327 328 331 333 329 329 330 332 328 328 327 325 324 323 323 322 321 321 318 313 311 310 308 305 305
302 298 301 301 302 304 308 303 305 307 307 306 306 307 308 309 309 309 309 310 312 315 319 323 325 328 328 329 329 330 331 331 330 328 328 327 325 323 314 310 312 311 310 308 305 303 302 301 302
296 295 290 298 302 304 306 297 306 307 303 304 305 305 305 307 308 308 310 311 312 313 314 317 322 326 327 328 327 330 329 327 319 314 313 313 313 312 309 308 307 305 302 301 300 299 298 298 297
292 285 288 294 302 302 302 298 305 307 304 303 304 304 304 304 305 307 309 311 311 313 316 316 314 320 325 320 317 316 314 313 311 310 308 307 307 306 303 301 301 301 298 297 297 296 295 295 294
288 285 288 289 297 299 299 299 303 305 303 304 306 307 301 303 305 307 310 310 314 314 315 316 313 321 315 313 311 310 309 307 306 305 303 302 301 301 299 297 297 298 296 294 294 293 293 294 292
290 288 287 291 297 295 297 297 301 304 304 302 301 300 299 302 304 306 309 311 314 316 317 318 319 315 313 311 308 305 302 303 301 301 299 298 297 296 296 295 295 295 293 291 292 292 291 291 292
291 288 287 291 295 295 296 296 300 303 304 305 306 303 299 301 303 306 309 311 314 314 315 316 318 314 313 310 307 305 302 302 299 297 295 295 294 294 294 293 292 292 291 290 289 289 289 290 291
290 289 288 289 293 294 292 290 296 301 304 305 306 306 301 303 303 304 307 308 309 310 311 312 311 310 309 308 306 303 302 300 297 295 293 292 293 293 292 291 291 290 290 289 288 288 288 287 289
285 293 292 291 288 282 293 283 291 296 300 302 304 302 302 304 304 304 306 305 306 306 308 308 309 308 308 307 304 302 299 297 296 294 292 291 291 291 291 291 290 289 289 287 288 289 287 286 285
287 293 290 290 288 287 287 285 288 296 296 300 303 303 302 303 304 305 306 306 305 305 305 305 306 306 305 304 303 301 297 296 295 292 290 289 289 290 290 289 288 288 288 287 286 286 285 286 285
294 290 290 287 286 280 284 286 286 292 296 299 303 299 301 303 303 304 304 304 301 300 300 301 302 301 301 301 298 297 295 292 291 289 289 288 288 288 288 288 287 286 286 286 286 285 284 284 284
291 286 278 277 276 276 285 284 287 294 298 300 301 298 300 303 302 303 302 301 299 298 298 298 299 296 296 296 294 292 291 289 288 288 287 287 286 286 285 286 285 285 285 285 285 284 283 283 282
287 286 278 270 273 276 289 283 289 298 300 302 301 301 301 301 303 303 302 300 299 298 296 296 295 293 293 292 290 289 289 289 288 287 286 286 285 285 285 284 284 284 284 284 283 283 283 283 282
287 283 288 280 283 280 285 288 295 299 295 297 298 299 299 301 302 302 301 300 298 296 295 294 293 291 291 290 289 287 287 287 286 285 285 285 285 287 284 284 283 283 284 283 283 282 282 282 282
290 291 281 282 273 274 284 284 288 293 294 295 296 297 299 301 301 301 301 299 297 296 293 292 292 291 289 288 287 287 286 286 285 285 284 284 284 284 284 283 283 283 283 283 282 282 282 281 281
287 284 287 285 283 277 278 285 295 295 297 295 297 299 299 300 301 301 300 299 296 295 293 291 290 289 287 287 286 285 285 285 284 283 283 283 283 283 283 283 283 283 282 282 282 281 282 281 280
290 287 287 281 280 286 284 284 294 294 297 299 298 299 300 301 301 301 300 297 295 293 292 291 289 288 287 286 286 285 284 284 283 283 283 283 282 283 283 283 283 282 283 282 281 281 281 280 280

GFSSGP_sfc_thetae_027.txt.gz
Theta_e
340 335 314 307 297 295 291 295 296 299 301 302 304 303 304 304 303 300 321 333 339 342 350 351 356 356 352 350 346 343 340 338 337 336 340 340 337 337 336 336 334 333 331 330 332 334 336 336 335
333 326 310 301 292 286 290 296 298 300 303 305 304 303 303 307 315 317 324 336 343 347 350 349 356 354 352 350 346 343 340 338 336 335 337 338 338 337 336 335 333 331 330 330 330 330 331 333 333
325 317 303 296 290 288 289 296 298 303 304 305 304 308 307 310 318 319 322 339 345 345 348 349 356 355 353 350 346 344 341 338 336 335 335 336 337 337 336 336 332 332 331 330 329 329 328 328 329
315 309 302 294 291 295 293 296 301 301 304 307 305 305 311 315 317 322 334 340 341 341 344 350 355 354 354 351 347 344 342 340 337 336 337 337 336 339 338 337 335 334 332 331 330 329 330 330 331
309 303 295 291 293 295 297 301 300 299 301 303 304 304 308 317 321 326 335 339 338 338 341 348 355 354 353 349 346 344 342 341 337 336 337 337 339 342 340 339 336 335 333 332 330 329 330 330 332
306 301 291 290 293 296 298 301 299 298 300 303 303 306 309 317 320 323 333 333 337 338 340 347 351 352 353 350 347 345 343 341 340 336 337 338 337 339 343 340 337 336 334 333 333 333 333 333 334
303 296 292 291 292 295 299 303 300 300 298 302 306 304 308 312 321 323 326 333 335 338 340 344 346 349 349 348 348 347 345 343 342 338 339 340 339 337 342 340 338 337 336 336 336 335 335 334 334
306 301 293 293 294 295 302 304 302 299 299 306 307 304 304 312 320 322 323 333 335 339 341 342 342 346 343 344 346 346 345 343 343 340 339 338 336 336 338 343 341 339 337 337 337 336 334 334 335
309 297 294 296 296 298 302 301 306 307 302 304 305 307 309 315 322 320 322 327 329 336 337 340 340 341 342 342 342 344 343 341 340 338 336 333 327 325 328 335 338 341 339 338 336 335 336 338 337
305 299 298 302 301 300 303 303 303 303 303 302 304 309 315 319 320 319 319 323 325 329 332 337 338 338 339 343 339 338 339 336 333 332 329 328 324 323 323 327 334 336 337 338 336 337 338 335 327
304 301 304 305 306 306 303 303 305 302 300 304 304 306 311 314 316 319 319 319 324 327 328 334 335 336 337 339 336 334 333 332 331 329 327 326 327 323 322 320 321 324 325 322 324 322 321 321 322
297 304 307 308 310 308 305 305 303 303 303 307 307 308 307 309 313 316 318 319 318 321 327 330 332 332 334 336 336 335 333 330 329 329 328 325 323 319 318 318 318 319 320 319 319 322 323 317 313
297 301 305 307 309 308 309 307 304 305 308 309 308 308 308 308 308 309 311 311 312 318 324 327 330 330 333 332 332 331 331 330 328 328 328 325 321 317 318 319 321 321 324 321 313 312 310 307 305
299 300 301 303 304 306 305 305 305 304 306 306 306 307 308 308 307 307 308 309 309 309 319 326 329 330 332 334 331 331 330 330 328 329 326 324 324 323 320 314 311 310 311 309 308 307 303 300 300
300 295 298 300 301 301 304 300 302 308 309 306 305 305 307 308 308 307 309 309 309 312 316 323 327 328 330 333 331 329 330 330 328 327 328 327 324 311 308 308 308 306 306 304 300 298 298 296 296
294 292 288 295 300 302 302 293 302 307 307 304 303 303 304 306 307 307 308 308 309 312 315 320 328 327 328 329 327 329 329 323 316 315 314 313 312 310 308 307 302 300 298 298 296 295 294 293 292
292 284 286 292 300 300 300 295 301 306 305 303 303 303 304 304 305 306 307 308 310 311 313 316 322 326 325 320 317 317 314 312 310 309 309 308 306 305 303 300 298 296 295 294 294 293 293 291 291
285 285 284 287 294 296 295 295 300 303 303 301 301 302 304 303 304 305 307 307 310 312 313 312 317 320 315 312 310 308 307 306 306 304 303 302 299 298 297 296 295 294 293 292 291 291 290 291 290
289 286 285 290 295 292 291 293 297 300 301 303 301 302 304 301 303 305 306 307 311 312 314 312 316 312 313 310 307 305 304 301 300 300 299 298 296 295 294 293 293 292 290 289 290 289 289 289 289
289 287 287 290 293 291 290 290 294 296 297 302 302 304 305 300 302 304 306 309 313 313 314 315 312 311 311 309 304 302 300 298 298 297 296 294 293 293 293 291 291 290 289 288 288 287 287 288 288
287 286 287 287 291 292 289 287 290 294 298 302 304 305 305 303 301 302 305 309 310 311 312 313 311 309 307 305 303 300 300 298 296 294 291 291 291 291 291 290 290 289 288 287 286 286 286 285 286
284 290 290 289 287 281 288 278 286 290 293 298 301 304 304 300 302 304 306 307 309 310 310 309 308 306 305 305 303 302 299 295 295 291 289 289 290 290 290 289 288 288 287 286 286 287 285 285 284
287 292 290 289 285 283 284 280 283 290 291 295 298 302 302 301 303 303 307 309 308 307 306 306 305 305 303 302 302 300 297 295 292 289 287 287 288 288 288 288 287 286 286 285 284 284 283 284 283
293 290 290 288 285 277 282 281 281 285 289 295 298 300 301 302 303 304 305 305 302 302 303 304 304 302 301 300 299 298 295 292 290 288 287 287 287 287 287 287 285 285 285 284 284 283 283 282 282
291 286 278 276 277 274 282 281 284 288 292 296 298 299 300 300 302 303 303 302 300 301 300 301 302 298 298 297 295 294 292 291 289 287 287 286 285 285 284 284 284 284 284 284 284 283 282 282 281
286 286 279 272 272 273 284 279 284 292 295 296 298 299 298 300 302 304 304 302 300 299 299 299 298 295 294 293 290 289 289 289 287 287 286 285 284 284 284 283 283 283 283 283 282 282 282 282 281
287 283 288 281 280 278 281 284 290 292 295 296 296 297 297 299 302 303 301 299 298 297 296 296 294 292 291 289 289 287 287 287 286 285 284 284 284 285 283 283 283 283 283 283 282 281 281 281 280
289 290 281 282 272 270 275 279 285 288 291 294 293 296 297 300 302 301 300 298 296 294 293 292 293 291 289 287 287 286 285 285 284 284 283 283 283 283 283 283 282 282 282 282 281 281 281 280 280
286 284 285 284 279 271 273 277 287 292 295 294 294 296 298 300 300 299 298 297 294 293 292 290 289 288 287 287 285 285 284 284 283 283 283 283 282 282 282 282 282 282 282 281 281 280 281 280 280
290 286 286 279 276 279 279 280 292 292 293 295 296 298 300 301 299 299 296 294 293 291 290 288 287 287 286 285 285 284 283 283 282 282 282 282 282 282 282 282 282 281 282 281 280 280 280 280 279

GFSSGP_sfc_thetae_030.txt.gz
Theta_e
336 328 310 305 296 293 288 292 296 297 299 301 302 303 302 303 304 300 318 331 335 337 346 351 356 355 352 348 346 343 340 340 338 337 339 344 341 336 335 335 334 332 331 331 333 337 338 337 336
329 322 308 300 292 286 288 293 295 298 302 303 303 304 302 305 314 316 323 332 340 342 347 347 355 356 352 349 346 343 340 338 336 336 340 338 337 336 334 333 332 331 331 330 330 331 332 333 333
322 312 302 296 289 288 289 293 296 301 302 303 303 307 306 309 317 318 323 337 343 344 347 348 356 355 353 349 346 343 340 338 336 334 336 338 337 336 336 334 333 333 331 330 329 329 328 328 329
314 308 301 293 291 293 292 293 299 300 302 304 306 306 310 314 316 320 331 341 341 342 344 350 355 355 354 350 347 344 341 338 337 335 336 336 337 338 337 337 334 334 332 330 330 329 329 330 331
308 302 294 290 292 294 296 299 300 298 298 300 303 303 308 316 320 329 335 340 338 339 342 348 355 354 353 349 347 344 342 340 337 336 337 338 337 339 339 338 336 335 333 331 330 329 329 330 331
305 300 290 288 292 295 297 300 300 297 297 301 301 306 308 316 320 329 335 335 338 338 341 346 351 353 353 350 348 345 343 341 338 337 337 338 338 338 343 340 338 336 334 333 332 333 334 334 333
302 296 291 289 291 294 297 301 298 300 297 300 303 302 309 311 320 327 332 332 335 338 339 343 347 348 350 349 348 347 344 343 342 338 338 339 340 337 343 341 338 337 335 335 336 336 335 334 334
305 299 291 293 293 294 300 302 303 297 298 304 306 302 305 309 320 322 326 331 331 335 338 340 343 345 344 343 346 346 345 344 344 341 340 338 337 335 336 341 340 339 337 336 337 336 335 335 335
307 297 293 294 294 296 301 300 304 306 301 304 304 305 308 315 320 321 323 329 331 335 336 338 340 341 340 340 342 344 344 341 341 338 336 334 328 326 327 333 338 341 339 337 337 336 337 339 335
304 297 296 300 300 298 301 301 302 303 303 302 304 308 314 318 317 318 320 324 327 331 334 336 337 338 338 342 339 338 338 335 333 332 328 326 322 321 323 325 332 336 336 336 334 334 331 326 322
302 299 302 303 305 305 303 302 304 301 300 303 302 305 309 315 316 317 318 321 325 325 331 335 335 335 337 339 336 334 334 332 330 328 326 325 325 322 321 320 319 321 325 321 322 321 320 319 317
295 302 305 307 309 307 304 305 303 302 302 305 306 307 306 307 314 317 317 318 319 323 328 332 335 335 335 336 336 334 332 330 329 328 327 324 322 320 317 318 317 318 319 318 319 319 311 310 307
296 299 303 304 304 306 308 305 305 305 308 310 309 307 307 307 307 309 313 312 315 318 322 327 332 333 334 335 334 333 332 331 329 328 328 325 323 317 317 318 319 319 317 311 310 308 306 303 300
297 298 299 301 301 302 302 303 303 305 308 306 306 307 306 306 307 306 307 308 308 309 312 324 329 332 333 335 332 333 331 330 328 330 330 328 324 323 321 312 308 309 308 306 303 299 298 295 295
298 294 296 298 299 299 301 298 299 305 307 307 308 307 308 307 306 307 308 308 308 308 309 318 326 330 331 333 332 330 330 332 329 328 326 326 325 315 311 309 305 302 301 298 296 295 295 292 293
297 294 286 294 298 299 300 291 299 304 304 305 305 304 305 306 308 307 307 307 308 307 310 316 326 328 329 331 331 329 329 327 321 321 324 317 312 311 308 304 299 296 296 295 293 292 293 290 290
294 287 286 290 297 297 297 292 299 302 301 301 302 302 303 304 305 306 306 306 307 308 310 315 322 325 328 326 325 319 317 314 312 311 310 308 307 306 303 300 296 294 292 291 292 290 291 289 289
283 287 289 288 292 293 292 292 297 299 300 300 300 301 301 303 305 307 306 306 308 309 311 314 321 323 318 314 310 308 307 307 307 304 303 302 300 299 297 295 292 292 291 289 289 289 289 290 288
290 287 288 290 293 290 290 291 293 296 297 298 300 302 301 303 306 304 305 305 307 309 310 313 317 313 313 310 308 307 303 301 300 300 299 298 297 295 293 292 290 290 289 288 288 288 287 287 288
289 287 287 289 292 290 289 289 292 294 295 298 299 301 302 303 301 303 304 305 310 310 311 313 312 312 313 312 304 303 301 298 298 297 296 296 295 293 292 290 289 289 288 287 286 286 285 285 286
285 284 284 284 288 290 288 286 288 292 294 296 297 299 302 303 303 301 302 306 309 310 311 312 309 308 307 304 301 298 297 296 295 294 293 293 291 291 290 289 288 288 287 286 285 285 284 283 284
283 289 288 287 285 279 286 277 283 287 290 291 294 297 301 303 301 302 302 306 308 310 311 309 308 305 304 304 302 300 299 296 295 293 292 290 289 289 289 288 287 287 286 285 285 285 284 283 282
286 291 288 288 285 283 283 281 281 286 286 288 292 295 299 303 302 301 303 307 308 308 308 306 304 303 302 302 303 300 296 294 292 291 289 286 286 287 287 287 286 285 285 284 283 283 282 283 282
292 289 289 289 285 278 282 280 280 283 286 287 293 294 299 302 299 302 304 307 306 305 304 304 303 300 300 300 299 299 294 292 290 288 286 285 286 286 285 286 285 284 284 283 283 282 282 281 281
290 286 278 277 277 275 281 280 283 286 288 291 292 295 297 299 299 300 303 305 303 303 303 303 302 299 299 301 299 296 294 292 288 287 286 285 284 284 283 283 283 283 283 283 283 282 281 281 280
286 286 279 272 272 272 281 276 282 289 292 294 294 295 296 297 298 301 304 305 304 304 303 303 301 297 298 297 293 291 291 290 288 287 285 284 284 283 283 283 283 283 283 283 282 282 281 281 280
287 283 288 281 281 278 278 282 287 291 289 293 292 293 293 295 298 301 304 305 303 302 302 301 297 294 293 291 290 288 288 287 286 284 284 284 283 284 282 282 282 282 282 282 281 280 280 280 280
289 290 281 282 274 272 275 276 279 284 287 289 290 291 294 296 299 301 303 301 300 299 296 296 295 292 290 288 288 287 285 285 284 284 283 282 282 282 282 282 282 282 282 281 280 280 281 280 280
286 284 286 283 280 270 271 275 282 284 287 289 294 293 293 296 300 300 299 297 295 294 294 291 290 289 287 287 285 285 284 283 283 282 282 282 282 282 282 282 282 281 281 281 280 279 280 279 279
289 286 285 278 276 278 274 278 289 288 291 294 295 295 294 298 299 297 295 293 293 291 291 289 288 287 286 285 284 283 283 282 282 281 281 282 281 282 281 281 281 281 281 280 279 279 279 279 279

GFSSGP_sfc_thetae_033.txt.gz
Theta_e
335 328 315 313 304 300 295 297 302 302 304 308 308 308 308 310 310 308 329 336 337 343 352 353 357 356 351 348 346 343 342 341 338 338 340 345 341 337 337 336 334 333 331 333 336 340 340 338 337
330 323 314 307 299 294 295 299 300 304 307 307 307 310 309 311 320 322 330 335 340 347 352 350 356 355 352 348 346 343 341 340 337 337 339 343 337 336 335 334 332 332 332 331 331 333 334 334 333
323 314 310 302 296 294 296 299 303 305 306 305 308 312 312 315 322 324 331 337 342 347 350 349 356 356 353 349 346 343 340 337 336 336 340 339 337 336 335 333 333 334 331 330 330 329 329 329 330
318 314 306 299 295 298 298 300 303 304 307 307 309 310 316 321 323 327 335 343 344 347 351 352 355 355 353 351 346 344 341 338 336 335 336 338 336 337 337 336 334 334 332 330 330 329 330 330 331
313 308 299 296 296 299 301 303 304 304 304 304 307 308 313 321 326 331 339 343 343 346 350 351 356 354 354 350 347 345 342 339 337 336 337 336 338 338 338 338 336 335 332 331 330 330 331 331 332
308 305 296 294 296 299 302 304 305 303 304 305 307 310 314 322 327 335 341 342 345 345 349 351 352 353 353 350 348 345 343 341 338 338 338 338 338 339 340 341 338 336 333 333 333 334 335 334 334
306 301 296 295 295 298 301 306 304 304 304 304 309 308 314 318 327 337 339 341 343 345 347 349 351 350 350 349 348 347 344 344 341 339 339 340 339 336 343 343 339 337 335 334 336 336 336 334 335
307 304 296 297 296 297 304 305 308 304 304 308 312 308 310 317 326 334 336 336 338 342 345 347 350 350 350 348 346 346 345 344 343 341 339 338 337 335 338 341 340 338 337 336 337 336 336 336 337
310 301 297 297 296 300 305 304 308 309 306 309 310 310 313 320 324 329 332 334 335 338 341 346 347 349 348 347 344 345 344 342 342 339 336 335 337 334 331 334 339 340 338 337 337 337 337 333 330
307 300 299 303 302 302 304 305 306 307 306 307 309 312 316 321 322 324 326 329 332 335 338 342 345 346 346 344 345 345 343 342 339 338 336 335 333 330 328 328 330 334 333 332 331 331 329 329 329
306 300 304 305 307 308 306 306 308 305 304 308 308 310 312 319 321 321 323 326 330 334 337 340 343 344 345 344 343 343 342 340 338 336 334 333 332 331 330 329 328 330 328 330 329 329 323 316 315
300 304 306 307 309 308 307 309 308 306 308 309 310 312 311 312 314 321 322 323 327 330 335 339 341 342 344 344 342 342 340 339 336 335 333 332 332 330 328 328 328 329 329 328 325 315 311 308 307
300 301 304 305 303 304 307 305 307 308 312 313 314 313 313 312 312 313 319 322 324 324 330 336 340 341 341 342 342 341 340 338 337 335 334 332 331 328 326 328 327 324 317 314 311 310 307 304 303
300 300 300 302 302 303 302 303 305 306 311 311 311 312 312 311 313 312 312 313 314 317 320 329 335 339 340 340 340 340 339 338 337 335 333 330 328 324 323 313 312 309 309 307 307 305 302 300 300
301 296 298 299 300 300 302 298 298 306 308 308 310 311 312 313 315 312 314 313 315 315 316 318 328 336 338 339 339 339 338 337 335 333 332 330 326 320 313 309 306 305 306 303 302 302 300 299 298
297 296 290 296 299 300 300 291 300 305 304 305 307 309 310 312 314 315 314 313 315 314 313 315 322 331 335 337 337 337 337 337 332 330 329 326 318 314 310 305 302 302 302 301 299 299 299 297 296
293 286 288 291 298 298 298 294 301 303 302 302 304 306 308 309 312 313 313 312 313 313 313 315 323 329 332 335 336 335 334 331 322 320 316 313 311 309 306 302 300 299 298 298 298 297 298 295 296
285 286 288 289 294 294 293 292 297 300 300 301 301 303 305 306 308 312 313 312 312 312 314 316 322 329 331 332 324 319 318 316 313 310 307 306 304 303 299 299 298 297 297 295 296 295 295 294 294
289 288 287 292 295 292 291 291 294 297 298 297 299 300 302 304 309 311 311 311 311 312 315 317 323 327 324 320 317 314 311 310 305 303 301 300 299 297 296 297 296 295 294 293 294 294 293 293 293
290 288 287 290 293 291 290 289 293 295 296 297 298 299 301 304 306 308 309 309 310 313 315 318 323 321 321 321 316 313 310 305 303 300 298 297 296 295 295 295 294 294 293 293 292 293 292 292 292
287 286 286 285 289 290 288 286 289 293 295 296 298 300 301 302 304 307 307 308 311 313 314 317 318 317 316 309 306 303 302 301 299 296 295 294 294 294 294 294 293 293 294 292 292 292 291 290 291
283 289 288 287 285 280 288 278 286 290 291 293 295 296 298 300 302 306 307 307 310 314 316 316 314 312 310 309 307 306 307 303 300 294 293 292 293 292 293 293 293 292 292 291 291 290 290 291 288
286 291 288 288 285 284 284 281 285 288 287 290 293 294 296 300 302 304 307 308 311 314 315 314 312 310 308 309 309 309 307 300 294 292 290 290 290 292 292 292 291 291 291 290 290 289 289 289 288
292 289 289 288 286 279 284 282 283 286 288 289 293 295 296 300 302 305 307 308 310 313 313 310 309 306 306 307 306 304 301 293 291 290 289 290 290 290 290 290 290 290 290 289 289 289 288 288 287
290 287 278 277 278 276 283 282 284 289 292 292 292 294 296 298 301 303 304 307 309 310 309 308 307 303 304 304 303 300 297 294 291 290 289 288 289 289 289 289 289 289 289 289 289 288 288 287 287
287 286 279 273 274 276 281 278 284 290 294 294 295 295 297 298 301 302 304 307 309 310 308 308 305 302 303 302 299 297 294 293 291 290 289 290 289 288 288 288 288 288 288 288 288 288 288 287 287
286 283 288 281 282 279 281 283 287 290 290 292 293 295 295 297 298 302 304 307 308 309 308 306 303 301 301 298 295 293 292 291 290 290 290 289 288 287 287 288 288 288 287 287 287 287 287 286 286
289 290 281 282 274 273 278 278 280 284 288 290 290 295 296 297 297 301 304 306 308 308 305 304 302 299 297 294 293 291 290 290 289 289 288 288 287 287 287 287 287 287 287 286 286 286 286 286 286
286 284 286 285 282 276 274 278 285 286 288 289 294 296 297 298 297 301 304 304 303 301 301 298 296 294 292 291 289 289 288 288 288 287 287 287 287 287 287 287 286 286 286 285 285 285 285 284 285
289 287 286 280 278 280 278 279 289 288 291 293 292 297 298 299 299 301 299 297 298 297 296 295 294 292 290 289 289 287 287 287 286 286 286 286 286 286 286 286 285 285 285 285 284 284 284 284 284

GFSSGP_sfc_thetae_036.txt.gz
Theta_e
337 332 327 321 307 306 301 300 308 306 308 314 313 313 313 315 316 312 335 341 342 346 352 355 357 355 351 348 345 343 342 341 340 340 342 346 343 340 339 336 333 332 332 334 338 341 340 339 338
333 325 324 317 303 299 301 305 304 309 312 313 313 314 314 314 323 328 333 340 343 348 353 353 356 355 351 348 345 344 343 340 338 339 341 344 339 338 337 334 334 334 332 332 333 334 335 334 333
329 321 315 309 303 299 301 306 307 310 312 311 313 317 317 318 326 329 337 341 344 349 351 351 356 355 351 348 345 343 341 338 338 340 344 341 338 336 334 334 335 334 332 331 331 331 330 331 332
325 320 315 303 301 304 305 306 309 309 312 313 313 313 321 326 328 332 337 343 344 347 350 353 355 355 352 350 346 343 341 338 337 340 340 339 338 337 337 335 336 333 332 332 331 332 331 331 332
324 317 304 301 302 306 308 309 310 308 310 310 311 312 316 327 331 334 340 343 342 346 348 351 355 355 353 349 346 344 341 339 337 337 337 338 338 338 338 337 337 335 333 332 332 333 333 332 332
313 313 300 298 301 305 308 311 310 309 310 311 310 311 316 328 332 337 342 343 344 345 348 350 351 353 353 350 348 345 342 340 338 338 338 337 336 337 340 339 337 337 334 333 334 335 335 334 333
309 306 300 301 301 303 306 311 309 309 309 310 313 310 318 324 334 340 342 343 345 345 347 348 349 350 349 349 349 347 344 343 342 340 340 339 339 335 343 343 339 338 335 335 336 336 336 334 335
313 308 301 302 300 301 307 309 311 310 309 313 315 310 313 322 334 340 341 342 343 344 345 346 348 349 348 350 347 346 345 344 342 341 340 339 336 336 342 342 340 339 336 336 337 336 336 337 337
317 303 299 301 301 303 309 307 312 314 312 314 314 314 319 322 332 336 337 338 340 341 343 345 346 347 346 346 345 344 343 342 341 338 337 335 337 335 336 338 339 339 338 337 337 336 334 330 331
310 303 301 306 307 305 307 308 310 310 310 311 314 317 320 324 328 331 332 333 335 338 340 344 345 346 346 344 347 345 343 342 339 335 334 336 336 335 333 331 332 335 332 332 331 331 329 330 333
309 303 306 308 309 310 309 309 312 309 307 312 312 315 317 319 324 326 329 331 334 337 340 342 346 346 346 344 345 344 343 341 339 335 333 332 332 331 331 333 331 334 329 334 333 333 328 323 323
303 307 308 309 311 310 309 312 310 311 310 314 316 317 318 319 319 323 326 329 331 335 339 342 343 345 346 345 343 343 342 342 339 336 334 333 331 331 332 332 333 333 334 334 330 325 321 318 316
303 304 306 308 308 307 308 306 307 309 314 317 318 318 318 319 320 322 323 329 330 331 336 340 343 344 346 345 343 342 341 341 340 336 335 335 334 333 332 332 334 334 329 324 322 321 318 314 311
304 304 304 306 306 306 304 305 306 308 312 311 312 314 316 318 320 321 321 320 322 328 331 335 340 344 345 345 343 342 342 342 340 337 336 336 336 331 332 328 322 317 319 320 318 315 313 309 306
304 300 303 303 304 303 305 300 301 308 310 308 310 312 313 315 318 319 322 322 322 323 324 324 332 340 343 344 344 342 342 342 340 339 338 335 332 329 322 314 312 311 311 312 312 310 308 307 305
298 299 294 300 301 303 302 294 302 308 308 307 309 310 311 313 315 318 322 323 324 323 322 323 322 330 337 340 343 342 342 342 341 339 337 334 330 321 316 315 314 312 310 309 307 307 306 304 303
297 292 293 296 301 300 300 298 303 307 306 306 308 310 311 313 314 316 318 320 322 323 323 323 323 324 329 336 341 342 341 341 341 339 334 331 322 315 312 311 310 308 306 305 304 304 303 301 301
290 291 293 293 297 298 296 297 302 304 304 305 307 308 309 310 312 316 318 320 320 321 322 322 323 325 330 334 339 340 340 342 338 332 323 318 313 312 307 307 305 305 304 303 302 301 300 299 298
293 292 292 295 298 295 295 295 298 301 302 301 303 304 306 308 312 314 316 319 320 321 321 322 322 325 330 333 334 336 333 328 325 321 317 310 307 303 305 301 303 303 302 300 300 299 298 298 298
293 291 291 294 296 295 293 292 296 297 298 300 301 302 303 305 307 310 313 316 318 319 321 322 323 327 331 332 331 330 327 318 314 311 308 308 304 299 302 302 301 301 300 299 298 299 298 297 297
292 290 290 290 293 294 292 290 294 297 299 300 301 302 303 303 304 306 310 314 317 318 320 321 324 328 330 330 329 321 313 306 304 302 302 302 300 297 300 300 300 300 299 298 297 297 296 295 296
287 293 291 289 288 285 291 283 292 296 297 298 300 301 302 304 305 306 307 310 314 318 322 322 325 327 328 326 319 316 317 310 309 305 302 298 297 296 297 298 299 298 298 297 296 296 296 296 294
289 293 291 290 288 287 288 282 289 294 293 296 299 301 303 304 305 305 307 309 313 318 321 322 324 325 323 321 322 321 319 313 307 302 297 294 294 296 298 298 297 296 296 296 295 295 295 295 294
294 291 290 290 287 280 287 285 287 291 294 296 298 300 302 303 304 306 308 310 311 317 321 322 321 321 320 321 321 323 316 306 301 296 292 292 294 296 297 296 296 296 295 295 294 294 293 294 293
292 287 281 279 279 280 288 286 288 294 296 297 298 300 301 303 303 305 308 309 311 314 319 320 319 317 318 319 320 318 310 306 302 296 292 294 292 295 295 295 295 295 295 294 294 294 293 293 292
288 287 283 276 279 282 286 282 288 296 298 299 300 300 301 303 305 304 308 311 312 314 318 318 318 315 316 317 316 311 305 301 295 294 292 294 293 293 295 295 294 294 293 293 293 293 293 293 292
288 284 291 283 285 280 284 288 293 295 295 296 297 299 300 302 303 305 306 309 313 315 317 318 316 314 314 314 309 302 299 295 296 292 294 293 294 293 294 294 293 293 293 292 292 293 292 291 291
291 293 283 284 276 276 282 284 285 290 292 295 296 297 300 302 304 306 306 308 312 315 317 318 316 312 312 309 306 299 295 293 292 293 291 292 293 293 293 293 292 292 292 291 291 291 290 290 291
287 285 287 287 285 279 278 284 291 291 293 294 295 298 300 302 304 306 306 309 313 315 316 314 312 309 306 305 301 296 292 292 293 293 293 294 293 293 292 292 291 291 290 290 290 289 289 288 289
292 289 288 282 280 283 282 282 294 295 295 296 296 297 301 304 305 306 307 310 311 311 311 309 307 305 302 299 297 293 291 292 293 293 293 293 292 292 291 291 290 290 289 289 288 288 288 288 288

GFSSGP_sfc_thetae_039.txt.gz
Theta_e
339 332 329 322 308 307 302 304 308 308 308 314 316 314 315 317 316 313 337 341 342 347 350 354 357 354 351 349 346 343 342 342 342 343 348 345 344 341 339 336 334 333 334 338 341 342 341 340 338
333 327 324 316 303 300 302 308 304 309 312 315 316 316 315 315 324 330 334 340 343 347 351 352 356 354 351 347 344 344 342 340 339 339 344 343 340 340 336 336 336 334 333 333 335 336 335 334 333
331 325 315 309 304 300 302 308 308 311 314 314 314 319 319 319 326 331 339 341 344 347 351 354 355 354 351 347 345 344 342 339 338 340 343 340 338 335 336 337 336 333 332 332 332 332 332 333 333
325 320 315 304 302 306 307 309 310 310 313 315 316 314 321 329 329 334 340 341 344 347 350 353 355 354 352 348 345 343 339 338 339 343 343 340 338 337 336 337 335 333 333 332 333 333 332 332 332
324 316 305 302 302 306 310 311 311 309 311 312 314 313 318 328 333 338 340 340 343 345 350 353 355 354 352 348 345 343 340 338 338 341 341 338 338 338 338 337 337 334 333 333 334 335 334 334 333
313 312 301 299 302 307 310 312 311 311 312 312 312 314 318 332 333 337 340 340 342 344 347 350 352 352 352 349 346 344 341 339 338 339 338 338 339 339 339 339 338 336 335 334 334 335 335 334 334
310 307 301 302 302 304 308 313 309 310 311 311 315 311 319 325 336 339 340 341 342 344 345 349 350 350 349 349 348 347 343 343 341 341 340 340 339 335 339 341 339 338 336 335 336 336 336 335 336
314 309 302 303 300 302 309 310 312 310 310 316 316 309 313 327 337 339 339 340 341 342 343 345 347 350 348 348 347 346 345 343 343 342 341 340 336 338 345 343 341 339 337 336 337 336 338 337 335
318 305 300 302 302 304 310 307 312 314 312 313 315 316 321 324 335 336 336 337 339 340 342 343 344 346 347 347 345 344 344 342 341 338 338 336 336 335 338 338 341 340 338 337 336 334 332 331 332
310 302 301 306 307 306 309 309 310 309 310 310 314 318 321 324 329 331 331 332 335 337 339 342 343 343 343 344 345 344 341 340 337 333 333 335 335 334 334 336 338 338 335 334 332 331 331 332 331
309 303 306 307 310 311 309 308 312 309 308 311 310 315 318 321 324 328 330 331 334 337 339 341 343 344 343 342 345 343 341 340 338 335 331 332 333 333 330 332 332 334 330 333 331 332 329 326 325
304 308 308 309 311 311 309 311 309 310 310 315 316 319 318 319 320 323 326 329 331 334 338 341 343 344 344 343 341 342 341 340 338 335 332 330 329 328 329 330 332 332 332 331 332 327 324 321 319
304 305 307 309 309 309 310 307 308 310 314 316 317 317 318 318 320 322 323 328 329 331 335 339 342 344 345 343 341 341 340 339 339 336 333 332 330 330 331 331 331 332 332 328 326 324 320 317 315
306 306 306 307 307 308 305 305 306 308 311 311 313 314 316 317 319 321 323 323 328 329 332 336 340 342 344 343 343 341 340 340 338 336 335 334 334 333 332 332 330 325 326 324 322 318 315 312 308
306 301 304 305 306 304 306 301 302 308 310 309 310 311 312 314 316 318 321 323 324 326 329 331 336 340 342 343 343 341 341 340 339 337 336 335 336 334 332 328 323 318 318 317 316 313 309 308 307
300 301 296 303 304 304 303 296 304 309 308 307 309 310 311 312 314 316 319 322 325 325 324 326 326 333 338 340 342 341 341 340 339 337 337 336 335 333 324 322 320 317 317 314 310 308 307 306 305
299 294 296 299 304 302 301 298 305 309 308 307 308 310 311 312 314 315 318 320 324 325 325 325 325 325 330 336 339 341 340 340 338 338 338 336 334 326 321 322 319 316 313 310 306 306 304 303 303
294 294 296 295 300 300 298 298 302 305 306 306 307 309 310 310 313 316 317 318 320 323 324 325 325 324 325 330 335 339 339 339 338 338 337 336 327 321 320 315 313 312 309 306 305 303 302 301 300
296 294 293 297 300 298 297 297 299 303 303 303 304 306 307 309 313 315 317 318 319 320 322 323 323 325 326 329 331 335 337 337 336 336 335 328 322 315 312 310 309 309 307 305 303 302 301 299 299
295 293 293 296 298 296 295 294 298 300 300 302 302 303 304 306 308 311 314 315 317 318 321 322 323 324 326 330 334 336 331 326 326 327 325 320 316 311 306 306 306 305 303 302 301 302 300 299 299
293 291 292 292 295 296 294 292 296 300 302 302 303 303 304 304 305 307 309 312 317 317 320 322 323 325 328 331 334 334 320 313 309 311 312 312 309 306 304 304 303 303 304 302 301 300 300 298 298
289 295 293 291 290 286 293 285 293 297 299 301 301 303 303 304 305 306 307 309 312 316 322 323 324 326 330 333 331 329 319 312 309 307 308 306 305 303 302 302 301 302 301 300 299 298 298 298 296
291 294 292 292 289 288 289 285 291 296 295 297 300 302 304 306 306 306 308 310 311 315 320 324 324 326 330 331 330 325 318 318 309 303 302 300 300 300 300 299 301 300 300 298 297 297 296 296 294
295 292 290 290 287 281 287 288 288 292 295 297 301 302 302 304 305 306 308 309 311 314 320 324 324 326 329 330 325 322 323 312 303 300 298 298 300 300 298 300 300 299 298 297 297 296 296 294 293
293 288 283 281 279 280 290 287 289 295 297 298 299 301 303 303 304 304 305 307 309 312 315 322 322 323 326 324 324 323 322 311 305 300 298 297 296 297 298 298 298 297 298 297 296 296 295 294 293
289 288 283 278 280 284 290 283 289 298 299 299 300 301 302 302 303 305 306 308 311 312 314 319 321 322 322 322 323 325 316 311 307 302 301 297 297 295 297 298 297 296 295 295 295 295 294 293 293
289 284 291 284 285 281 284 289 295 297 297 298 299 300 300 301 303 304 306 308 308 312 314 319 320 321 320 321 323 318 312 309 305 302 298 296 297 295 296 296 295 295 294 294 294 293 292 292 292
292 294 283 284 276 277 284 286 288 293 295 297 297 298 300 302 303 305 307 309 309 313 316 319 320 318 319 320 317 313 306 300 296 296 294 294 293 294 294 295 294 294 293 293 292 292 291 290 291
289 286 288 288 285 280 280 285 293 291 294 295 296 298 300 301 303 305 307 310 310 313 317 318 319 316 317 314 307 303 299 296 294 293 293 292 294 293 294 294 293 292 292 292 291 290 290 289 290
293 289 288 281 282 284 283 284 295 295 296 296 296 299 300 301 303 306 307 310 310 314 317 317 316 314 313 308 302 297 295 294 294 293 293 295 292 294 293 293 292 291 291 290 289 289 289 289 289

GFSSGP_sfc_thetae_042.txt.gz
Theta_e
339 333 326 319 304 303 298 302 302 304 304 307 310 309 307 310 313 310 333 336 346 346 351 354 356 355 351 349 347 345 345 345 346 348 347 345 344 342 338 335 335 337 339 342 343 343 342 340 338
334 329 321 313 300 295 298 305 302 303 308 311 311 309 308 310 326 326 330 337 346 346 349 351 355 354 351 347 344 343 342 341 341 343 348 345 343 339 337 338 336 335 335 337 338 337 337 335 335
331 327 311 306 300 295 297 304 304 307 309 308 308 311 311 315 324 328 334 337 344 345 348 351 354 354 350 346 345 344 341 339 340 342 343 342 340 337 339 337 334 333 333 333 334 334 334 334 334
323 317 311 300 298 302 302 305 307 307 307 309 310 307 316 324 323 332 335 338 340 345 350 352 353 353 350 349 345 344 340 339 341 344 343 339 337 338 339 337 334 334 333 334 333 334 334 334 334
320 314 301 297 298 303 306 307 307 305 306 307 309 307 314 324 331 334 333 338 339 347 349 351 353 353 351 347 345 342 340 340 344 344 341 340 339 339 339 338 335 334 335 335 336 336 335 334 334
310 309 297 296 299 303 305 307 306 305 307 308 305 307 315 326 329 332 334 334 340 347 349 349 351 351 351 348 346 343 341 340 343 343 341 339 340 340 340 339 336 335 335 335 336 336 335 334 335
307 303 297 298 299 301 304 308 305 305 305 306 308 303 315 323 331 334 333 334 338 345 347 347 348 348 348 348 347 345 344 342 343 343 343 343 342 340 341 341 339 337 336 336 337 336 336 336 336
309 306 300 299 298 299 306 307 309 306 305 310 310 303 307 324 331 334 333 333 335 339 345 345 345 346 345 344 346 345 344 342 342 342 342 339 336 336 344 343 341 338 337 338 337 337 338 337 335
314 301 297 299 300 301 306 304 308 310 307 308 308 308 317 325 331 330 329 332 332 336 337 343 345 346 344 343 343 344 343 341 340 339 337 335 332 332 337 338 340 340 339 338 337 336 335 335 334
307 301 301 305 305 303 306 305 306 305 305 305 308 314 319 320 326 327 327 328 330 331 334 336 341 344 344 345 341 339 339 336 334 331 332 332 331 331 337 336 338 340 339 338 335 334 335 333 327
305 300 304 305 306 309 307 306 307 304 303 306 305 309 314 318 319 324 326 327 329 332 333 335 336 341 341 343 341 340 338 336 334 329 329 329 328 327 330 330 332 330 330 329 331 330 326 318 317
301 305 306 307 309 309 306 309 306 306 306 311 310 312 314 313 315 319 322 325 328 330 333 335 336 336 336 343 341 340 338 337 336 331 327 326 326 325 323 327 327 328 326 328 327 321 317 315 312
302 304 306 307 307 306 309 306 305 306 309 312 312 312 311 312 314 315 319 322 322 327 332 334 336 337 337 336 340 338 337 337 336 330 326 325 322 321 323 324 325 325 326 321 320 316 313 309 307
304 304 304 305 305 305 303 303 304 304 307 308 309 309 310 312 314 315 315 317 318 323 330 334 335 338 338 337 335 336 338 335 333 331 327 327 325 324 325 324 320 318 320 318 314 310 307 303 301
305 299 302 303 303 302 304 299 300 306 307 306 306 307 308 310 311 312 315 315 317 319 326 330 334 336 338 338 337 335 335 337 333 332 329 328 329 326 326 322 318 313 313 311 309 305 302 301 301
299 299 293 301 303 303 302 292 301 305 304 304 305 306 306 308 310 311 313 315 317 318 319 326 334 335 336 339 338 337 335 337 336 334 330 329 330 328 319 317 314 311 311 308 304 302 300 298 297
297 289 292 296 302 300 298 293 302 305 302 302 303 304 306 307 308 309 311 313 315 317 318 318 324 330 335 336 339 337 335 336 336 336 333 332 330 323 318 318 314 312 307 303 302 298 297 295 295
290 291 293 293 297 298 295 295 299 302 302 301 302 303 303 305 307 309 310 311 313 315 319 318 319 318 320 329 333 336 333 335 336 335 333 332 326 319 317 312 310 307 303 300 299 296 295 294 293
296 292 290 294 298 295 293 294 297 300 299 299 301 301 303 305 308 309 310 311 311 311 313 319 317 318 319 317 324 330 331 333 334 334 333 330 320 317 310 307 306 304 301 299 297 296 295 293 293
293 290 290 294 297 294 292 291 295 297 298 299 299 300 301 303 305 307 308 309 311 311 312 313 316 317 319 320 321 325 326 325 328 330 328 322 316 311 307 304 303 300 298 296 295 296 294 293 293
291 289 289 289 293 293 291 288 291 296 298 298 300 301 301 301 302 304 305 306 308 311 312 313 315 316 318 320 325 319 315 312 310 313 313 312 309 308 303 303 301 300 298 297 295 295 295 292 291
287 294 292 291 287 281 290 279 288 292 293 296 295 297 298 299 301 302 303 302 304 308 312 313 314 316 318 322 324 321 321 316 308 309 309 308 307 306 302 302 303 299 299 297 294 295 293 292 290
289 294 291 291 286 284 285 280 284 290 290 293 295 296 298 299 300 300 301 303 304 304 306 312 314 315 318 323 326 321 315 308 307 303 302 303 304 303 301 300 297 297 297 295 293 292 291 290 289
295 291 290 288 285 277 283 283 282 286 289 291 294 295 299 298 297 298 299 301 302 304 305 310 314 315 321 324 324 318 313 305 302 301 299 299 300 301 300 299 298 296 294 294 293 291 290 289 288
292 287 275 276 277 274 286 283 285 291 293 294 293 293 295 297 296 297 298 299 301 302 305 307 314 314 321 322 320 316 314 305 301 299 298 298 297 298 298 298 296 294 294 294 292 291 290 289 288
289 287 276 273 274 277 286 280 284 293 296 295 295 295 296 296 296 296 298 300 302 304 305 306 314 315 320 321 317 316 307 303 301 300 298 298 297 297 298 298 295 293 292 292 291 290 289 288 288
287 282 288 282 281 273 279 283 289 294 293 294 293 295 294 295 296 296 299 301 303 303 306 306 313 315 318 317 317 311 307 303 300 298 299 298 297 297 296 295 292 291 291 291 290 289 288 287 287
291 292 282 280 267 271 279 281 283 287 290 293 292 292 294 296 297 298 301 303 305 307 306 307 313 314 315 317 314 309 305 301 300 298 296 296 295 295 294 292 292 291 290 289 289 288 287 286 286
287 285 287 285 283 273 274 279 288 290 291 293 295 295 295 295 296 298 302 303 305 307 306 309 313 315 314 313 309 298 295 295 296 295 295 294 294 294 293 292 291 290 289 289 288 287 287 286 285
291 287 286 279 277 280 278 281 294 292 292 293 293 295 296 295 296 298 302 302 304 304 308 310 314 314 306 303 297 295 293 292 293 293 293 293 293 294 292 290 291 290 288 287 286 286 286 285 285

GFSSGP_sfc_thetae_045.txt.gz
Theta_e
337 331 323 312 299 297 292 298 300 301 300 303 306 306 304 307 310 307 328 341 345 348 351 352 356 355 353 351 350 350 349 350 350 349 347 345 343 340 337 335 339 342 344 345 345 344 343 341 339
331 329 314 306 295 290 292 300 300 301 305 306 308 306 305 313 322 326 329 344 346 349 351 351 355 354 351 348 346 345 345 345 348 348 347 346 342 339 339 336 336 338 340 341 340 339 338 337 336
331 327 306 301 294 291 293 299 300 304 306 305 305 306 306 314 323 327 331 345 347 348 350 351 354 353 350 347 345 344 343 342 343 349 346 344 340 340 336 335 334 335 335 337 337 337 336 335 335
319 311 305 295 293 297 299 301 303 303 305 308 306 304 315 322 325 330 336 344 344 345 348 351 353 352 349 349 346 343 341 341 343 346 344 341 339 340 336 335 334 334 334 334 334 334 334 334 335
313 307 296 292 294 298 300 303 303 302 303 305 306 303 313 324 330 331 334 344 342 345 348 350 353 351 350 348 346 343 341 342 344 343 341 339 340 341 338 335 335 336 336 336 336 336 335 335 335
305 303 292 293 294 299 301 303 303 302 302 303 303 302 313 325 327 329 333 342 347 346 347 349 349 350 349 348 346 344 343 346 348 346 343 340 341 341 340 337 336 336 336 337 337 337 336 336 336
301 297 292 292 294 297 301 304 301 303 301 302 304 300 314 321 327 330 330 346 347 347 346 347 347 347 347 346 346 344 343 346 345 345 343 342 343 343 341 339 337 337 337 338 337 337 337 337 337
304 300 295 294 295 295 302 303 305 303 302 306 307 300 312 323 330 331 328 343 345 345 345 345 345 345 343 342 344 343 342 343 344 343 342 339 338 340 343 341 340 338 337 339 338 338 338 338 336
307 296 293 296 297 299 305 301 306 308 304 305 306 308 317 328 329 327 326 330 339 343 343 344 343 343 342 340 341 342 341 340 340 339 337 334 329 331 337 338 340 340 339 338 338 338 337 337 335
301 296 297 302 302 300 304 304 304 303 302 301 304 314 318 327 326 326 325 326 330 336 340 342 343 342 341 343 340 337 337 335 333 333 332 330 329 332 337 335 338 341 340 339 337 336 335 332 326
301 297 303 306 305 306 305 304 307 302 300 302 303 306 313 318 323 325 325 327 327 330 336 342 342 343 341 341 339 338 336 332 331 329 329 329 328 331 332 332 333 332 332 330 332 330 327 322 319
297 302 304 306 307 306 304 307 305 303 302 307 307 308 310 313 316 321 323 325 327 329 331 335 342 342 341 341 338 337 335 333 331 328 328 324 323 327 327 328 328 327 325 324 324 323 315 312 308
298 301 304 305 304 304 305 303 303 303 307 308 308 308 308 310 311 313 318 321 325 329 331 333 338 338 339 339 338 337 335 334 333 329 327 323 325 323 323 323 324 325 323 322 318 313 309 305 302
301 301 302 303 303 303 302 301 301 302 305 305 305 305 305 308 311 311 312 314 317 326 331 333 334 336 340 339 338 337 335 334 333 330 326 323 324 321 321 321 321 321 319 317 312 308 304 300 299
303 297 299 300 301 300 303 297 298 303 304 304 304 303 305 306 308 310 313 312 314 315 330 333 334 336 335 336 337 337 335 336 331 329 325 324 323 320 322 319 316 313 312 308 304 301 300 299 298
297 296 290 299 301 302 300 291 299 303 301 302 304 305 303 306 306 308 309 310 312 314 322 332 336 336 336 336 335 335 335 336 332 329 327 326 325 324 321 317 313 310 308 305 302 300 298 296 295
293 286 289 294 300 300 298 292 300 302 301 299 301 303 304 306 306 305 308 310 312 312 314 326 333 334 337 337 338 334 332 334 333 329 328 326 326 320 318 314 310 309 304 301 300 296 296 293 293
288 288 288 290 296 297 294 293 297 300 299 298 297 299 300 302 305 308 308 307 309 312 313 314 325 332 336 337 338 336 331 334 334 332 329 328 325 318 317 313 310 306 301 299 297 294 293 292 292
293 291 287 291 296 292 292 292 294 297 297 298 299 297 300 303 306 306 306 306 305 306 308 313 314 327 333 331 333 334 331 332 333 333 331 329 322 318 314 310 305 302 300 298 296 294 292 291 291
293 288 287 291 294 291 290 290 293 295 296 297 298 297 299 302 300 303 304 304 306 308 308 307 313 318 325 328 331 331 328 325 329 332 331 326 318 315 310 306 303 300 298 296 295 294 292 291 290
288 285 286 287 290 289 288 286 289 293 295 297 299 299 299 299 300 301 301 302 302 304 306 309 310 314 315 316 320 316 317 316 317 321 320 315 312 310 309 303 301 297 297 295 294 294 294 291 290
285 291 291 289 285 279 287 277 284 290 291 293 293 294 297 298 298 298 299 299 300 301 305 308 310 312 314 317 320 321 321 322 315 313 308 308 308 307 307 303 302 298 297 295 294 294 293 293 290
289 293 290 289 284 281 281 278 282 287 288 291 291 292 294 297 298 299 299 301 301 300 301 305 308 310 313 317 321 322 321 311 309 308 305 306 306 306 305 304 304 299 298 294 293 292 291 292 291
294 290 288 286 282 275 281 280 279 285 288 289 290 293 295 296 296 297 298 299 299 300 300 303 307 308 310 316 321 322 312 307 305 303 302 302 303 302 302 302 301 301 299 296 295 290 290 289 289
292 284 272 278 277 273 283 281 282 289 292 292 292 293 294 295 294 295 295 298 298 298 300 302 304 308 311 316 321 317 312 310 307 303 302 299 299 299 299 299 298 298 296 296 294 290 289 288 288
287 285 274 272 273 275 283 278 283 291 294 293 293 293 294 294 293 296 295 297 299 301 301 301 302 307 313 318 317 313 308 307 305 304 302 301 300 299 300 298 297 296 296 296 292 290 289 288 287
286 282 287 281 276 269 277 280 286 290 291 291 291 292 292 293 293 293 298 300 301 302 303 303 302 310 316 317 313 306 305 304 302 301 300 301 299 298 297 296 295 295 295 294 291 290 287 287 287
287 289 278 275 265 269 275 277 281 285 288 291 291 292 293 295 294 297 300 301 302 302 303 304 303 311 315 314 307 304 303 301 299 299 297 295 296 297 295 295 294 295 293 291 290 287 286 287 286
286 286 286 283 279 271 273 277 286 287 288 289 290 293 295 296 295 295 299 301 301 302 303 303 304 311 312 309 304 302 300 298 298 297 296 296 295 294 294 293 292 291 290 289 288 287 287 286 285
289 285 284 273 274 277 274 279 292 291 290 294 295 297 296 294 295 298 300 300 301 301 303 305 308 308 305 300 298 297 296 295 294 295 295 294 293 293 293 292 291 290 289 288 288 286 285 285 285

GFSSGP_sfc_thetae_048.txt.gz
Theta_e
334 329 321 310 298 295 291 296 298 301 300 303 305 306 304 307 308 303 327 339 346 348 351 351 355 355 356 354 353 353 352 352 350 348 346 344 341 338 337 341 343 346 346 345 345 345 344 343 340
330 326 312 303 294 288 291 296 299 301 303 305 305 304 304 311 321 328 332 343 347 348 349 349 354 355 353 352 351 351 351 351 350 347 345 344 341 338 336 339 342 342 343 344 343 341 339 338 336
328 324 305 299 293 290 291 297 299 302 304 304 302 305 309 313 322 329 337 344 347 347 349 350 354 353 351 349 348 347 347 349 349 348 346 343 341 339 337 336 339 340 340 340 339 338 337 336 336
316 310 304 295 293 296 296 298 300 302 305 305 304 303 315 320 325 330 343 345 345 346 347 351 353 352 350 348 347 344 344 344 348 348 346 342 341 337 335 335 335 335 336 336 336 335 335 335 335
312 304 295 292 294 296 298 301 302 301 302 303 304 302 313 324 327 341 343 345 343 345 347 349 353 351 349 347 345 344 343 342 348 346 344 340 340 336 335 334 334 334 334 334 334 335 335 335 335
304 302 291 290 293 297 299 301 300 300 302 302 302 307 313 323 328 339 343 342 345 345 347 348 349 349 349 348 346 344 345 347 347 345 341 341 341 339 336 336 336 337 337 337 337 336 336 336 336
300 295 292 292 293 296 300 302 299 301 301 302 304 302 312 319 326 330 339 342 345 346 345 346 345 345 347 347 345 344 345 346 347 345 343 342 343 341 338 336 336 337 337 338 337 337 336 337 337
302 299 292 292 293 294 300 301 302 300 302 305 305 309 311 321 327 332 342 343 343 344 344 344 343 343 342 341 343 343 345 345 345 344 342 340 340 341 341 340 339 337 338 338 337 337 337 337 336
305 294 291 294 294 296 302 300 304 306 301 303 304 312 320 327 327 327 338 340 341 342 342 343 342 341 340 338 339 341 341 342 341 340 338 336 333 335 338 337 338 339 339 339 338 338 338 337 335
299 293 295 301 301 299 302 302 304 302 301 300 307 314 324 326 324 325 332 335 337 338 341 342 341 340 339 341 337 334 335 334 334 334 332 330 327 328 335 334 337 340 339 340 338 337 337 332 324
299 295 301 303 305 304 304 303 306 301 299 300 301 310 314 321 323 324 328 333 336 338 340 341 341 341 339 339 337 335 332 330 330 330 330 328 328 330 334 332 333 332 333 331 333 330 325 323 321
296 301 303 305 306 304 302 305 302 303 302 306 306 306 308 313 316 322 325 327 327 336 338 340 341 340 339 339 337 335 333 331 329 329 329 326 323 328 328 331 329 327 328 324 324 322 315 309 306
296 299 302 304 304 302 303 302 302 303 307 307 305 307 306 307 311 315 321 325 327 329 335 339 341 340 340 338 337 336 334 332 330 328 327 326 323 328 329 327 326 325 323 322 322 317 308 303 299
300 301 301 302 302 302 301 300 300 301 305 304 305 304 304 306 307 308 311 313 318 327 330 337 340 341 340 339 336 336 334 333 331 329 326 325 325 327 325 323 323 322 322 320 316 308 303 299 298
301 297 298 299 300 299 301 298 297 303 303 302 303 303 304 304 306 306 309 311 312 316 330 330 339 341 339 338 337 336 335 334 332 330 326 324 325 324 322 321 319 319 317 313 305 300 299 298 297
297 295 290 297 299 300 300 292 298 302 299 300 301 302 303 305 305 306 307 308 310 311 316 330 335 337 337 338 338 337 335 334 332 330 328 323 323 323 319 318 315 312 307 304 301 299 297 295 294
292 286 289 293 299 299 296 291 299 303 300 298 299 299 301 303 304 304 306 307 308 308 311 325 331 333 336 338 338 336 334 334 332 329 326 324 322 321 320 317 311 308 305 302 300 297 296 293 292
287 287 287 289 294 295 293 293 297 298 298 298 297 298 299 301 303 306 306 306 309 308 307 318 329 331 334 335 334 333 331 333 331 328 326 324 324 320 318 313 309 305 301 298 297 295 293 292 291
293 290 287 290 295 290 290 289 292 296 295 296 298 298 298 300 304 303 304 304 304 304 304 308 319 329 332 333 332 330 329 329 330 329 327 325 322 319 317 313 307 302 301 298 295 293 292 290 290
292 290 287 290 293 290 289 289 292 294 295 296 297 299 299 299 300 301 303 304 304 305 304 304 309 321 330 334 334 333 331 327 330 329 328 327 322 319 317 312 306 301 298 296 294 294 292 290 289
288 285 285 287 289 288 287 286 288 291 293 295 297 299 299 299 300 301 299 301 301 302 304 306 307 312 326 332 327 319 320 319 320 322 324 326 321 319 315 309 305 301 300 296 294 293 293 290 289
284 290 290 288 285 279 286 277 283 288 290 291 291 292 295 296 297 299 299 299 300 301 302 304 306 308 313 316 322 327 325 323 321 327 319 314 313 317 312 306 303 303 300 295 294 294 293 291 289
288 292 289 287 282 280 281 278 281 286 287 289 291 292 292 294 295 296 297 299 300 299 299 300 304 306 309 313 320 323 325 325 315 312 310 310 311 312 309 307 305 301 299 298 299 298 295 292 291
293 288 286 284 280 271 279 279 279 283 286 287 289 291 294 295 293 295 296 297 297 297 298 297 300 303 306 310 315 321 319 311 311 308 307 306 306 307 307 305 302 301 300 300 299 295 295 293 291
289 281 270 271 269 272 281 279 281 287 291 290 291 291 291 292 293 294 294 296 297 297 300 300 300 302 304 306 313 316 317 313 312 309 308 303 303 302 304 305 302 300 301 299 295 293 293 292 290
285 282 272 270 273 274 281 277 282 288 290 290 291 290 293 293 292 292 294 296 299 301 301 301 302 302 302 305 313 317 316 314 312 310 306 306 304 301 302 300 300 298 296 295 294 293 292 291 289
284 277 285 276 275 269 276 279 284 288 289 291 291 292 293 294 295 293 297 298 299 300 301 301 303 303 303 308 313 308 310 309 307 303 303 302 302 301 299 299 298 297 296 295 294 292 291 289 289
287 288 276 272 264 269 274 276 279 284 287 288 290 291 293 295 297 296 297 299 300 300 301 302 303 302 303 311 306 305 305 305 303 303 303 301 302 299 298 296 295 294 294 293 292 290 289 288 288
285 283 282 280 277 270 272 277 284 285 287 288 290 292 298 298 298 297 294 298 300 300 301 302 303 302 308 305 302 301 300 301 302 301 300 300 299 296 296 295 294 293 291 291 290 289 288 287 287
288 285 283 273 273 275 273 277 289 287 288 291 294 297 298 299 297 297 297 300 300 299 301 305 304 307 305 303 300 299 298 299 299 298 298 296 294 296 295 293 291 291 290 289 288 288 287 287 286

GFSSGP_sfc_thetae_051.txt.gz
Theta_e
332 327 318 309 297 294 290 294 298 298 299 301 303 304 304 305 306 302 326 339 345 347 350 352 356 357 356 356 355 355 354 353 351 347 345 343 341 340 340 343 343 346 343 342 345 346 346 343 341
329 323 310 302 293 287 289 295 296 299 302 303 302 302 307 310 320 327 331 341 347 348 349 349 355 356 356 354 353 352 351 350 349 347 345 342 339 337 339 342 344 347 345 344 344 342 340 338 336
324 319 305 298 292 288 289 295 297 301 302 301 301 304 308 311 321 329 333 345 347 346 347 348 354 355 354 353 352 352 351 350 349 347 345 342 340 337 336 340 341 342 342 342 340 339 337 336 335
315 310 303 295 292 295 295 297 299 301 304 303 303 306 314 320 325 329 342 345 344 345 346 350 353 354 353 352 350 350 350 350 348 347 345 342 341 337 335 337 339 339 339 339 338 337 336 335 335
310 303 295 291 293 297 296 300 300 300 300 301 304 304 312 322 329 339 342 344 343 344 346 349 353 352 350 348 347 347 346 347 348 348 345 342 338 335 335 335 335 335 336 336 335 335 334 335 335
303 301 290 290 293 296 297 299 298 298 299 301 300 309 312 321 335 338 343 342 345 344 346 348 349 349 348 347 346 345 346 347 350 347 344 341 338 336 335 334 334 334 334 335 335 335 335 335 335
301 296 292 291 293 294 298 301 298 300 299 300 302 308 312 317 332 340 340 340 343 345 345 345 344 345 346 346 345 345 345 346 347 346 344 343 341 337 336 336 336 337 337 337 336 336 336 336 336
301 298 292 292 292 294 299 301 301 299 301 303 310 306 309 319 329 337 338 340 341 342 344 342 340 342 341 341 344 343 344 346 345 343 342 341 340 340 338 338 338 337 338 337 336 337 337 336 336
303 293 290 293 294 296 300 299 304 304 300 302 303 312 316 324 335 336 337 339 341 342 341 342 339 339 338 337 338 341 343 343 343 341 338 336 334 336 336 335 337 339 338 338 337 337 337 337 333
298 292 294 300 299 297 301 301 302 302 300 299 306 316 323 324 333 334 334 335 336 338 341 342 339 338 337 339 335 333 336 336 335 334 332 331 330 332 336 333 336 339 339 340 338 338 337 330 322
298 293 299 302 304 304 301 301 304 300 299 299 300 306 312 320 321 332 334 335 337 338 340 340 340 339 338 337 334 332 330 330 331 330 329 328 327 325 330 331 332 331 332 331 333 330 325 322 320
296 300 302 303 305 303 300 303 301 302 303 305 305 306 307 311 318 321 330 334 337 337 338 340 340 339 337 337 335 333 330 329 328 329 329 326 324 325 327 330 329 327 328 325 324 322 316 311 305
296 298 302 303 303 301 302 300 301 302 306 306 306 305 305 305 306 315 322 327 332 336 337 339 340 339 338 336 336 333 332 330 329 328 328 327 323 324 327 327 327 326 325 322 321 318 309 302 298
299 300 301 301 301 300 299 299 299 299 304 304 303 304 303 304 305 305 311 320 324 331 336 339 339 339 338 337 336 334 333 331 329 328 328 327 325 325 327 325 324 323 322 321 320 313 303 298 297
300 295 297 299 299 299 300 296 295 301 303 301 303 301 303 303 305 304 306 309 314 321 328 337 339 339 338 337 337 335 334 333 330 329 326 326 325 324 326 325 321 321 321 319 312 302 298 297 296
296 294 289 296 299 300 299 291 297 301 299 299 300 301 301 302 304 305 306 306 308 310 316 328 340 339 338 338 337 335 335 334 331 330 327 324 324 324 322 322 319 319 316 310 303 299 296 295 294
291 285 288 293 299 297 296 290 297 301 298 297 298 299 299 300 302 303 306 305 306 308 310 317 329 337 338 338 338 336 334 334 332 331 329 324 323 322 322 320 317 313 307 303 301 297 296 293 292
287 286 286 288 293 294 292 291 297 299 297 296 297 298 298 299 302 303 304 304 306 305 306 309 323 331 336 337 337 336 334 333 331 331 329 325 322 320 320 317 311 308 303 300 298 295 292 292 292
291 289 287 290 293 290 289 288 292 294 293 293 295 298 299 300 303 301 303 303 303 303 302 305 314 326 331 333 332 331 331 330 329 330 329 325 323 320 320 315 308 306 304 301 297 293 292 291 290
294 290 289 290 292 289 288 287 292 294 294 295 296 297 298 299 298 299 301 302 302 304 303 302 306 319 330 332 333 331 331 331 331 329 327 325 323 320 319 315 310 306 301 296 295 294 291 290 290
290 286 285 286 289 287 286 285 287 290 292 293 295 296 297 298 299 300 298 300 300 301 303 305 304 307 322 332 331 321 322 320 321 321 323 323 323 321 320 316 312 305 304 300 297 295 294 290 288
284 290 289 287 284 279 285 277 283 287 288 290 291 290 292 294 296 297 298 298 298 300 301 303 304 305 309 321 325 328 326 323 325 327 328 321 320 320 319 316 310 308 305 303 303 301 298 293 289
288 291 288 286 282 279 280 278 282 284 286 288 289 290 291 292 293 295 296 297 299 299 298 299 300 302 305 310 324 327 326 323 322 324 324 311 313 318 314 311 309 307 306 305 302 301 300 296 292
292 287 285 283 280 272 278 278 279 282 284 286 288 289 291 292 293 294 294 295 296 296 296 297 298 299 302 306 312 321 325 315 314 313 317 311 310 312 311 310 309 308 304 301 302 302 300 296 295
288 281 271 271 270 273 280 278 281 287 289 290 288 290 291 292 294 296 293 293 296 297 297 298 298 299 300 302 306 313 317 316 316 316 316 312 308 306 306 306 304 304 304 303 300 298 295 294 293
283 282 273 270 272 274 280 277 282 286 288 289 291 291 293 295 294 295 295 296 297 298 300 300 300 301 302 301 302 308 313 317 318 315 314 313 312 312 307 304 303 303 302 299 296 294 293 292 291
284 277 284 275 274 271 276 279 283 287 287 288 290 292 292 294 296 296 295 298 299 299 299 299 300 301 302 302 303 308 311 312 313 311 308 307 304 304 303 302 301 298 296 295 293 292 291 291 291
286 288 277 272 265 269 273 275 277 282 284 288 289 290 292 296 297 297 296 295 297 299 299 299 301 301 302 302 305 307 307 308 306 303 301 301 301 302 302 300 299 296 294 293 292 290 290 289 289
285 281 281 279 276 269 271 276 283 283 285 287 289 291 294 298 298 297 298 297 297 299 299 299 302 303 303 305 303 301 299 299 300 300 300 301 299 300 300 298 296 294 292 292 290 290 289 288 287
287 284 282 274 272 273 272 276 286 285 287 289 292 293 300 298 297 297 297 295 296 298 299 302 303 303 303 300 298 297 297 298 297 297 298 300 298 298 296 295 293 292 291 290 289 288 288 287 287

GFSSGP_sfc_thetae_054.txt.gz
Theta_e
331 324 315 307 296 294 289 292 295 296 297 298 301 301 302 304 306 302 325 338 342 345 350 353 357 358 358 358 356 356 353 351 348 347 345 343 343 341 342 343 343 344 342 344 347 347 345 343 339
327 321 309 301 292 286 288 293 295 298 300 302 302 304 307 309 320 324 331 339 345 348 349 350 356 357 357 356 355 353 352 350 349 347 345 342 340 340 342 345 347 345 343 346 345 343 341 338 334
322 315 304 298 290 287 288 293 296 299 301 299 300 303 305 310 320 328 329 343 346 346 347 349 356 357 357 356 354 352 351 349 349 347 345 341 339 338 341 343 345 345 344 342 341 340 338 337 335
315 310 302 294 291 293 293 294 297 299 302 301 301 304 314 320 323 330 340 345 343 342 343 349 354 356 356 355 354 352 351 350 348 346 344 342 340 337 339 341 342 342 341 340 339 338 337 336 335
308 303 294 290 293 295 295 298 298 298 298 299 300 301 310 321 329 338 341 344 342 341 343 347 353 355 353 352 352 352 351 351 348 347 344 343 338 336 336 339 339 339 339 338 337 336 335 335 337
302 299 290 290 293 295 296 299 297 296 297 299 298 304 311 321 330 337 341 340 343 344 345 346 349 351 351 350 349 349 349 350 349 348 344 342 337 335 335 335 336 336 336 335 335 335 334 335 336
300 296 291 290 294 293 296 299 297 297 296 298 302 305 310 315 331 338 338 340 343 344 343 343 344 346 347 347 347 347 347 347 349 348 345 343 339 336 335 335 335 335 335 336 336 336 335 336 337
301 298 292 292 292 293 297 299 300 298 300 301 305 303 307 316 335 336 338 340 341 342 343 340 339 340 340 340 344 344 344 345 347 345 342 340 338 338 338 338 339 337 337 337 336 336 337 337 336
302 293 289 293 294 296 300 297 302 303 299 300 301 308 314 326 335 335 337 338 339 341 342 338 337 337 337 337 338 341 342 343 342 340 338 336 333 333 333 334 337 339 338 337 337 337 337 336 333
297 292 293 298 298 297 300 300 301 301 301 298 304 312 321 331 333 332 333 332 334 336 340 342 336 336 336 339 334 333 336 337 336 335 333 331 331 332 334 331 335 339 339 339 338 338 337 327 318
298 292 298 301 302 304 300 300 303 299 298 299 299 303 310 320 328 332 333 334 335 337 338 340 340 336 336 336 332 330 331 332 332 332 330 329 329 328 331 329 330 329 331 330 332 329 324 320 314
295 299 300 302 304 302 299 301 299 301 302 305 305 306 305 306 317 326 332 333 335 337 339 339 340 339 336 335 332 329 329 329 329 329 328 326 324 323 325 328 328 327 327 325 324 322 317 314 304
296 298 301 303 303 301 301 298 299 300 304 305 306 305 304 303 304 307 321 331 336 336 337 339 340 338 337 333 333 330 328 328 329 328 327 326 323 322 325 328 327 326 325 323 321 319 308 302 298
300 300 300 301 300 300 298 298 298 299 301 302 303 304 303 303 304 304 306 318 330 337 337 339 339 339 338 335 333 332 331 329 327 328 328 326 325 323 325 325 326 324 324 322 320 315 303 297 296
299 295 296 298 299 298 299 295 295 300 302 301 300 301 303 303 304 304 305 307 319 330 337 338 339 339 337 336 335 333 332 331 328 328 327 327 325 323 325 325 323 323 322 321 317 306 298 296 295
295 293 289 296 298 299 298 289 296 300 299 299 299 298 299 302 303 304 305 305 306 311 324 336 339 339 338 338 337 336 334 332 330 328 327 326 326 324 323 324 323 321 320 317 311 301 297 295 294
290 284 287 292 298 297 295 289 296 298 296 296 297 297 297 298 300 302 304 304 304 305 308 319 333 337 337 336 337 336 335 332 332 330 328 324 325 324 324 323 322 319 316 310 305 297 296 294 292
287 286 285 288 292 293 291 290 294 297 297 296 296 297 297 298 300 302 302 303 305 304 305 307 319 333 337 337 338 337 335 333 333 330 330 325 324 323 323 321 318 317 310 305 299 296 293 293 292
291 288 286 289 292 289 288 287 291 295 292 292 293 294 296 299 302 301 301 302 302 302 302 303 306 322 333 335 334 334 332 333 333 330 331 327 324 321 321 320 316 313 310 306 300 294 293 291 291
292 288 286 290 291 288 287 286 291 294 293 294 295 296 296 296 298 299 299 299 300 302 301 301 303 310 324 333 334 333 334 333 333 330 330 329 323 321 320 319 315 311 307 301 298 295 292 290 291
292 289 286 286 288 286 285 285 286 290 291 292 293 293 293 293 295 297 296 297 298 299 301 302 302 304 318 329 331 321 322 322 328 324 326 326 323 321 321 318 315 310 307 303 301 298 297 292 291
287 292 289 287 284 280 285 278 283 286 287 289 288 288 289 290 291 293 294 295 296 297 298 300 302 303 306 321 327 327 327 325 326 328 327 325 323 321 321 318 314 310 307 304 302 303 304 302 295
288 291 288 286 282 278 280 278 282 283 285 285 288 289 291 292 292 294 293 294 296 296 296 298 300 302 304 307 322 326 325 326 320 322 323 323 320 322 321 317 313 309 307 306 304 302 300 301 297
291 287 284 282 280 272 278 278 279 282 283 285 288 290 291 293 295 297 297 296 295 296 296 295 296 298 300 302 309 322 325 321 316 316 319 313 315 317 318 316 312 309 307 305 304 302 302 299 297
289 284 273 270 270 272 279 278 281 285 287 287 287 290 292 294 295 296 296 296 297 298 298 300 299 298 298 298 301 309 318 318 318 319 321 318 314 316 314 314 312 308 306 305 304 302 302 299 295
283 282 273 270 272 273 280 276 281 286 287 289 289 290 292 294 296 296 296 295 296 297 298 298 298 299 299 299 299 301 306 313 317 316 318 317 315 315 314 313 310 306 305 303 303 302 297 294 292
283 276 282 274 271 270 276 279 282 287 286 288 289 290 291 293 296 296 296 296 295 296 297 297 298 299 300 300 300 300 303 307 312 312 312 313 309 308 308 306 306 306 304 302 300 295 292 292 291
286 287 277 271 265 269 273 275 276 281 284 287 288 289 290 293 296 297 297 297 296 296 297 299 299 300 302 302 301 302 303 306 308 305 304 302 301 303 303 303 303 302 300 297 295 292 291 290 290
284 280 280 279 276 270 271 275 282 282 286 286 288 291 292 296 297 296 296 297 297 297 298 298 300 300 302 303 301 300 299 299 300 299 298 299 299 300 300 300 300 298 297 295 292 291 290 289 289
286 283 281 273 272 273 273 275 286 286 286 287 289 292 295 297 297 297 299 297 298 297 297 297 294 295 296 298 297 296 300 300 298 298 297 299 300 300 300 298 296 294 293 292 290 289 289 288 287

GFSSGP_sfc_thetae_057.txt.gz
Theta_e
332 323 319 314 303 300 295 297 301 301 303 306 307 307 308 310 313 310 336 343 343 346 352 352 358 358 359 359 358 356 355 351 349 348 347 347 344 342 344 345 344 344 344 346 347 346 345 341 336
328 321 315 308 298 293 294 299 299 303 306 306 305 311 311 313 325 330 336 343 345 350 351 352 357 359 359 358 356 355 353 351 350 348 345 343 341 341 344 346 346 344 347 348 347 344 341 337 335
323 316 311 304 296 293 294 298 301 304 305 305 306 310 310 315 326 333 338 345 348 350 351 354 357 358 358 357 356 355 353 351 350 348 345 341 340 341 345 348 347 347 346 344 342 341 339 336 337
318 314 307 299 295 297 298 300 302 303 306 306 306 306 318 325 327 335 342 347 348 349 351 354 356 357 357 356 355 354 352 350 349 347 343 341 339 340 343 344 346 346 342 341 340 339 338 336 338
312 308 299 296 297 299 301 302 303 303 304 305 305 305 313 326 336 341 345 347 346 347 349 350 355 356 356 356 355 354 353 351 348 347 344 342 339 338 341 341 342 342 341 340 338 338 337 337 338
306 305 295 294 296 299 302 304 303 303 303 305 304 307 316 331 336 339 343 344 347 346 347 349 350 353 354 354 354 353 353 353 349 347 345 342 338 337 338 340 340 340 339 337 336 336 336 337 337
304 300 296 295 297 297 300 304 302 303 303 304 307 308 316 325 337 339 341 346 345 347 347 347 348 349 349 350 350 350 350 351 350 349 346 343 339 337 336 336 336 336 336 336 336 336 336 337 337
306 302 295 296 295 296 301 302 305 303 303 308 310 307 309 324 337 339 342 342 341 345 346 346 347 347 347 346 345 345 346 346 347 347 343 339 337 338 337 338 338 337 337 337 337 337 338 338 336
305 298 293 295 295 298 303 300 306 307 305 305 307 312 319 329 337 335 336 337 338 341 345 345 344 345 344 344 342 343 343 343 345 342 338 336 336 335 335 335 338 340 338 337 337 338 339 335 332
302 296 296 300 301 299 303 304 305 305 304 305 311 311 328 332 333 332 331 333 334 336 341 343 344 343 342 341 342 341 341 341 345 341 340 339 337 336 335 333 336 339 339 339 338 339 335 329 325
300 296 300 302 302 305 303 304 306 304 302 305 305 308 322 329 331 331 332 333 334 337 340 342 343 342 341 340 340 339 340 342 342 340 339 339 337 337 337 336 335 337 334 337 338 337 333 328 323
297 300 301 303 306 304 303 305 303 305 305 308 309 309 309 326 326 330 331 332 335 336 338 340 340 342 341 341 339 338 337 339 340 340 337 337 336 336 337 337 336 336 336 336 336 334 330 328 318
298 300 302 305 304 304 304 302 303 303 307 308 308 308 309 309 310 321 332 335 336 335 338 340 341 340 340 340 339 337 335 337 339 339 338 336 335 334 335 337 337 336 335 334 333 330 324 318 311
301 301 301 303 302 303 301 300 301 303 305 305 305 307 307 308 310 310 312 326 336 337 338 340 340 341 340 337 339 337 336 335 337 338 337 335 335 334 333 333 334 336 335 333 331 328 319 312 307
301 297 299 300 301 300 301 297 297 304 304 304 305 305 306 307 308 309 311 311 323 336 340 340 340 341 339 338 338 338 337 335 333 336 337 335 334 333 332 332 332 334 335 332 329 322 311 307 304
297 297 291 298 299 300 300 291 299 302 301 302 302 302 303 305 307 308 309 310 311 316 331 340 341 340 340 338 337 338 338 337 335 333 334 335 334 333 332 331 332 334 333 331 326 318 309 306 305
293 287 290 293 299 298 298 292 299 301 300 300 301 301 301 302 304 306 307 308 310 310 312 326 339 340 339 339 338 337 337 336 337 334 332 332 333 332 331 331 331 332 331 329 324 314 310 305 303
288 288 290 290 294 296 294 293 297 298 297 298 299 300 301 301 304 307 307 308 309 309 310 311 323 338 341 339 337 338 336 335 336 336 334 332 331 331 331 330 330 330 329 326 319 314 305 306 304
292 290 289 292 294 292 291 291 293 296 296 296 297 299 300 300 303 305 306 307 307 308 307 308 310 320 337 336 335 333 333 334 333 334 335 333 330 329 329 329 328 327 326 324 319 311 305 301 300
292 289 289 292 292 291 289 288 293 295 295 296 297 297 297 297 297 298 301 303 304 305 306 307 307 310 321 335 336 336 335 336 335 334 333 335 331 329 328 328 326 325 324 321 314 308 302 301 300
292 289 288 289 290 289 287 287 289 292 292 292 291 293 294 295 295 297 296 299 301 301 304 305 307 308 312 327 335 332 333 331 333 332 331 331 331 329 328 327 326 323 323 318 313 308 306 301 298
290 293 290 288 287 283 287 282 287 288 289 290 292 293 295 296 298 299 298 299 299 300 302 303 305 307 308 317 329 330 329 328 330 332 333 331 331 328 326 326 325 322 321 318 312 308 309 306 300
290 292 289 287 284 283 283 282 285 287 286 288 291 293 295 297 298 299 300 299 300 302 302 301 301 303 306 309 323 329 329 330 332 331 331 331 328 328 326 326 324 321 318 318 313 309 308 308 305
292 287 286 283 282 278 280 281 282 285 287 289 291 293 295 297 299 300 301 301 302 303 304 305 303 302 302 305 309 323 328 329 327 326 327 328 326 326 326 325 324 322 318 314 312 311 309 307 307
290 287 277 275 275 276 281 280 283 287 289 290 292 293 294 296 299 300 300 300 301 302 302 303 303 303 304 304 303 307 315 324 325 326 326 326 321 320 322 323 321 319 317 315 313 310 308 307 304
285 287 277 273 274 276 281 278 284 289 290 292 293 293 293 296 299 300 300 300 301 301 302 302 302 303 304 305 305 305 306 311 319 323 325 325 324 323 323 321 321 318 315 311 309 308 307 306 302
285 281 284 275 275 274 278 281 285 289 288 291 291 294 294 295 298 300 300 300 301 301 301 301 302 304 306 306 307 307 306 307 310 315 320 323 322 319 319 318 315 313 311 310 308 307 304 303 297
287 287 279 276 270 272 275 276 279 285 288 290 291 292 294 297 300 300 300 301 302 302 302 302 303 303 303 305 306 306 307 308 309 311 313 315 313 313 312 311 308 308 307 306 305 301 298 293 292
285 282 281 280 277 274 273 277 284 285 288 289 291 292 294 299 299 299 300 301 300 300 299 299 298 298 299 301 302 302 303 304 305 307 307 308 307 307 307 306 304 302 300 298 296 294 293 292 290
287 284 282 277 275 275 275 278 288 287 289 290 291 293 298 299 297 295 296 297 294 294 295 295 296 297 298 299 300 301 302 303 304 303 302 303 304 304 303 302 300 297 295 294 292 291 291 290 288

GFSSGP_sfc_thetae_060.txt.gz
Theta_e
337 330 330 323 307 306 300 301 306 306 307 311 312 311 311 315 315 313 340 345 345 349 352 355 358 359 360 360 359 357 355 353 351 350 349 348 346 345 345 343 345 344 344 347 347 346 343 339 338
334 324 324 317 303 298 299 305 303 307 310 312 312 312 315 315 328 334 339 345 347 351 352 351 358 359 360 359 358 356 353 352 350 348 346 344 342 343 343 345 344 344 346 348 346 343 339 337 338
328 324 315 309 303 298 299 305 306 308 311 311 311 315 315 318 330 336 343 346 349 350 351 353 358 359 359 358 356 355 354 351 349 346 344 342 341 345 348 346 347 348 346 345 343 340 337 338 339
321 319 316 304 301 304 304 306 307 308 310 312 311 311 321 331 331 339 346 346 348 349 351 354 357 359 358 357 356 354 352 350 350 348 343 340 341 345 347 347 346 344 343 342 341 339 337 338 339
321 316 306 302 302 306 308 308 309 307 308 309 310 310 315 332 340 344 347 347 347 348 351 353 357 358 357 357 356 354 353 351 350 347 343 341 339 341 343 344 344 343 342 340 339 338 337 337 339
312 313 302 299 302 306 309 310 309 308 309 309 309 311 317 336 340 344 348 347 349 348 349 350 352 355 356 356 355 354 354 352 350 348 345 342 338 339 342 341 342 341 339 338 338 337 337 338 338
309 307 302 302 302 304 307 311 308 308 308 308 312 309 320 331 342 342 346 348 349 349 347 348 349 350 351 352 353 353 353 351 350 348 347 343 341 339 339 340 340 339 338 336 335 335 337 337 338
312 309 302 303 301 302 309 308 310 308 307 313 313 310 314 328 341 342 344 347 348 348 345 346 348 349 348 350 348 348 349 349 349 347 344 339 337 338 338 339 338 336 336 336 336 336 337 338 336
313 302 299 301 301 303 308 306 309 311 309 310 312 315 324 330 339 339 338 339 342 344 345 346 345 346 347 347 346 344 344 344 345 343 338 335 335 335 334 335 338 340 338 338 337 338 338 335 333
305 300 299 304 305 304 306 306 309 308 308 309 312 318 332 334 335 334 333 334 336 339 343 345 345 344 344 342 342 341 340 340 338 345 340 341 336 334 333 333 337 339 339 339 338 339 335 331 331
304 299 303 304 305 306 306 307 311 308 306 309 309 315 328 331 333 333 334 335 336 339 342 343 345 345 343 340 339 340 340 338 339 344 342 342 338 336 334 333 335 336 335 335 337 338 334 332 329
301 303 304 306 308 307 306 309 307 309 308 312 315 314 318 330 330 332 334 335 337 338 339 341 343 345 344 342 340 340 338 338 337 340 340 340 338 336 336 336 335 334 334 334 335 335 334 332 327
302 303 305 307 307 307 308 306 306 308 312 313 314 313 314 315 328 335 336 337 337 337 339 341 343 342 344 344 342 341 340 338 338 338 339 339 338 336 335 337 337 336 334 334 334 334 332 331 325
305 304 304 306 306 305 304 305 306 307 311 311 311 312 313 314 316 318 327 335 339 340 340 341 341 342 342 341 344 343 342 340 338 338 339 339 338 337 335 336 338 336 337 334 333 332 330 328 324
304 300 302 303 304 303 305 300 301 308 310 308 309 310 312 313 315 315 318 319 323 332 339 343 343 342 343 342 342 343 344 341 339 339 340 340 339 338 336 334 336 337 337 336 333 331 329 324 319
300 300 294 300 303 304 303 294 302 306 307 306 307 308 310 311 312 314 316 317 318 319 324 333 341 344 344 342 342 341 342 343 341 339 339 339 339 339 337 334 334 336 337 336 333 330 325 322 317
298 291 293 296 303 301 301 295 302 305 305 305 306 307 308 309 311 313 315 316 316 318 318 320 330 338 342 343 341 342 340 342 343 341 339 339 338 338 336 334 334 335 336 334 333 330 326 321 317
291 291 294 293 298 300 298 297 301 305 304 304 306 306 307 307 309 313 314 315 316 317 317 318 319 326 336 342 340 340 339 339 341 342 341 340 338 337 336 335 334 334 334 333 332 329 324 323 319
296 294 291 295 297 297 297 298 300 303 303 303 305 306 306 307 309 309 309 311 312 314 316 317 317 319 325 334 336 336 335 336 336 337 341 341 339 337 336 335 334 333 332 332 332 330 322 317 318
295 292 292 294 296 297 295 295 299 301 302 302 302 303 304 303 303 304 305 306 308 309 312 314 315 317 318 324 335 337 338 337 338 337 338 338 339 338 337 335 334 333 331 330 331 329 320 319 314
295 292 292 292 294 294 293 293 294 295 296 297 298 301 302 303 303 305 306 306 307 307 308 310 312 314 316 318 325 333 336 338 337 338 338 337 336 338 338 336 336 334 333 330 331 328 320 315 311
291 296 295 293 292 289 292 288 291 293 294 297 300 302 304 305 306 306 307 308 308 310 310 308 309 310 312 315 317 324 328 328 332 333 336 337 336 334 334 334 336 335 333 330 329 326 323 321 311
293 297 294 292 291 289 288 288 289 293 292 294 298 301 303 306 306 307 307 308 309 310 311 312 310 308 310 312 315 320 325 327 330 332 333 334 336 334 331 332 332 331 332 330 327 323 321 322 318
294 292 291 291 289 285 287 286 286 289 292 294 297 300 302 305 307 309 309 309 310 312 312 312 311 310 310 309 312 315 320 325 327 329 331 333 334 331 330 330 330 331 329 327 327 324 321 320 321
292 291 284 283 283 283 285 284 289 292 293 296 297 300 302 305 307 308 307 308 309 310 311 310 310 310 311 312 310 310 312 318 325 327 328 329 330 329 327 328 327 327 327 326 325 323 320 319 316
290 292 287 278 280 282 284 283 288 294 295 298 297 299 302 304 307 307 307 308 309 310 310 310 310 310 312 312 313 313 312 312 314 317 322 325 326 329 330 326 326 325 324 323 321 320 318 318 316
289 288 289 283 282 283 285 287 290 292 292 296 297 299 301 304 306 306 307 307 308 308 308 309 308 310 310 311 312 313 314 314 314 315 316 320 323 326 328 326 323 323 320 318 315 314 313 312 311
292 292 285 286 279 278 281 282 286 289 292 295 296 298 301 304 304 304 304 305 305 305 305 307 307 306 307 309 310 311 312 312 313 315 316 317 319 320 320 320 319 316 314 312 310 310 309 307 301
288 288 286 286 284 281 280 283 293 293 295 294 296 298 302 302 302 302 303 303 302 303 303 303 304 304 305 307 308 309 309 309 309 309 310 311 312 313 313 314 311 310 308 308 304 301 299 296 294
291 289 288 285 280 282 282 284 293 296 296 295 297 298 302 300 299 301 300 299 300 300 301 301 301 301 302 305 307 307 308 309 309 308 308 308 308 308 309 308 306 304 302 299 296 294 292 291 290

GFSSGP_sfc_thetae_063.txt.gz
Theta_e
335 335 329 322 308 306 302 304 308 307 307 313 314 312 311 315 314 314 341 344 346 349 353 354 359 360 361 360 359 357 356 354 353 352 350 348 347 345 344 344 342 344 347 347 346 344 341 339 338
334 329 324 317 303 299 301 308 305 308 312 314 314 314 312 313 328 336 339 345 347 349 352 352 358 360 361 360 357 356 354 353 351 350 347 344 342 342 344 343 344 345 347 347 345 341 338 338 338
333 328 316 309 304 299 301 307 308 310 312 313 313 318 317 320 331 337 345 345 348 349 351 353 358 360 360 358 357 355 353 351 349 347 344 342 342 347 347 345 348 348 347 345 341 338 338 339 339
326 320 317 306 302 306 306 307 309 309 312 314 313 313 321 332 333 341 346 346 348 348 349 353 358 359 358 357 356 354 352 351 348 345 342 341 343 348 348 348 346 345 344 342 340 338 338 339 340
323 317 306 303 304 307 310 310 310 309 310 311 312 312 319 335 341 345 344 345 346 347 352 352 358 359 357 356 355 354 353 350 348 345 343 340 342 346 346 345 344 343 342 341 340 338 337 339 339
312 315 303 300 303 308 310 312 310 310 311 311 311 312 322 339 341 345 345 346 347 346 351 351 354 355 356 355 355 354 353 352 349 347 344 341 339 344 343 344 343 342 340 339 339 338 337 339 338
310 308 303 304 303 306 309 313 309 309 310 310 313 310 323 336 343 345 346 347 347 347 346 348 349 352 352 353 353 353 353 351 348 348 346 343 340 340 342 341 341 340 338 337 336 336 337 337 338
312 309 303 304 302 303 311 311 312 310 309 315 314 310 315 332 343 344 346 346 346 346 344 346 347 348 349 350 350 350 351 349 348 346 343 339 337 339 340 340 340 338 336 336 335 336 337 337 336
314 304 300 302 303 305 311 309 312 313 311 311 313 316 326 337 342 341 341 343 344 344 343 344 345 347 347 348 346 346 346 347 346 343 337 334 333 333 334 335 337 339 337 337 337 337 338 336 334
306 302 302 307 308 306 309 309 310 308 308 309 311 319 330 335 337 335 334 335 339 341 342 343 343 343 344 342 347 346 345 344 344 343 340 338 335 332 330 333 338 340 340 339 338 339 338 334 331
305 299 304 305 307 307 307 307 310 308 305 309 309 314 327 331 334 335 336 337 337 341 343 343 343 343 341 340 339 338 338 337 336 337 341 340 337 333 332 334 335 336 335 334 337 337 334 331 329
301 304 304 307 307 306 305 309 308 309 309 314 316 317 322 328 330 333 335 337 339 340 341 343 344 344 343 340 337 337 338 337 335 340 342 339 337 334 331 331 331 333 333 333 333 334 333 332 329
302 304 305 307 308 307 307 306 307 308 313 315 315 315 316 318 328 334 336 338 339 339 342 341 343 344 344 342 341 340 340 338 337 337 339 338 337 335 333 334 334 333 332 333 332 333 332 331 328
305 305 305 306 307 307 305 305 308 309 313 312 312 312 314 316 318 324 334 335 336 339 341 342 341 343 344 344 343 343 342 341 339 338 337 337 337 336 335 334 336 335 334 332 332 332 331 330 328
305 301 303 304 305 304 306 301 303 310 311 310 310 311 312 313 316 318 322 326 333 338 340 341 343 343 342 342 343 344 344 343 340 339 338 338 337 337 336 334 335 337 336 335 332 331 330 328 326
300 301 294 301 303 304 303 295 304 309 308 307 308 309 310 311 312 315 319 321 323 323 325 335 341 343 344 343 343 342 344 344 342 341 340 339 338 338 337 335 334 335 337 334 334 331 329 327 323
298 291 293 296 303 302 301 296 303 307 306 306 307 308 309 310 311 313 315 318 319 321 322 322 327 336 342 344 343 341 342 342 344 343 341 340 339 338 338 336 335 334 334 335 332 332 329 325 323
291 291 294 293 299 300 298 298 302 305 305 305 306 307 308 308 309 312 314 316 317 318 319 320 321 322 329 338 342 343 341 340 342 344 343 341 340 340 339 338 335 334 334 334 332 332 330 326 323
296 294 293 296 300 298 297 298 300 303 304 304 305 305 306 307 310 312 312 313 314 315 316 317 318 319 320 326 331 339 337 337 337 341 343 343 341 339 339 338 336 335 333 333 333 330 329 325 324
296 294 292 296 298 297 296 296 301 302 303 304 304 305 306 307 307 308 307 308 309 311 313 315 317 318 319 321 325 338 337 336 337 339 339 341 342 341 339 338 337 336 334 333 332 329 327 325 323
295 293 293 292 296 297 296 294 296 300 299 300 300 303 304 304 305 306 307 308 309 310 311 311 313 316 318 321 321 325 336 338 338 339 337 338 337 340 341 339 337 337 335 332 332 331 327 323 320
291 297 295 294 291 287 296 286 294 296 296 298 301 303 304 305 306 307 308 309 309 311 314 311 311 312 314 317 317 318 322 327 332 333 336 337 339 337 335 338 337 336 335 333 332 331 329 325 318
294 299 297 295 293 291 291 289 292 295 293 296 300 303 305 307 308 308 309 310 312 313 314 314 313 311 312 313 314 315 317 323 329 330 330 332 335 338 335 332 333 332 333 332 333 330 330 325 321
299 296 295 294 292 286 291 289 288 291 294 296 299 302 304 306 308 310 310 311 312 314 314 314 312 312 313 312 312 313 316 319 323 326 327 330 332 335 336 331 331 331 331 330 329 330 327 325 323
295 293 285 283 283 284 289 287 291 294 297 298 299 301 304 306 308 309 309 310 311 312 313 313 313 312 313 314 314 312 312 315 318 322 326 327 328 330 332 330 329 328 328 328 327 326 325 323 321
293 293 288 281 282 285 287 284 290 295 298 300 300 302 304 306 308 308 309 310 311 311 312 312 311 311 312 312 313 314 315 313 313 314 317 320 323 325 328 331 327 327 327 326 325 324 323 320 320
289 287 292 286 286 285 286 289 292 294 295 297 298 301 302 305 306 307 307 308 309 308 308 309 309 309 310 311 312 313 314 314 315 316 316 316 317 320 323 326 326 323 324 324 322 320 318 317 317
294 295 287 288 280 279 284 286 288 289 292 295 297 300 302 305 306 305 306 306 305 305 306 307 307 307 308 309 310 311 312 312 312 313 314 315 316 317 318 320 319 320 320 318 316 314 313 311 307
290 289 289 288 286 283 281 284 294 292 294 296 298 300 303 304 303 304 304 304 304 305 305 305 305 305 306 308 309 310 310 311 311 311 311 311 311 313 313 313 313 314 313 311 309 306 306 299 296
294 292 291 285 284 285 285 284 296 297 297 297 298 300 303 303 301 302 302 301 302 302 302 302 302 302 302 305 306 306 306 306 305 304 304 305 306 307 307 308 308 307 304 303 299 298 295 293 294

GFSSGP_sfc_thetae_066.txt.gz
Theta_e
333 329 329 320 304 302 298 301 303 304 303 307 310 306 305 308 318 313 335 339 346 345 353 354 359 360 360 360 359 358 357 356 355 353 351 350 347 346 344 344 344 346 348 347 346 343 342 340 339
329 329 323 313 299 294 296 303 303 304 308 309 309 308 306 316 331 331 334 341 347 349 350 351 359 360 360 359 358 357 356 354 353 351 347 344 343 344 345 345 345 348 348 347 343 341 340 339 340
332 330 313 305 301 295 297 303 304 307 308 308 307 310 308 319 330 333 340 341 347 347 348 353 359 360 360 358 357 356 355 352 350 347 345 342 346 346 346 348 348 349 347 343 340 340 340 340 340
322 321 314 302 298 303 302 303 305 307 308 309 308 307 321 331 331 338 340 342 345 345 349 355 358 360 358 357 356 356 353 350 348 345 343 342 348 349 349 348 347 347 346 341 340 340 340 340 340
320 315 303 299 301 305 306 307 305 304 306 308 306 307 321 331 338 339 339 343 343 346 349 354 358 359 357 356 356 354 353 350 346 344 342 342 348 349 347 346 345 344 343 341 340 339 340 340 340
311 311 299 296 301 305 307 307 306 304 306 306 304 309 322 334 337 337 340 340 343 346 348 351 354 355 356 356 355 354 352 351 348 345 343 341 346 346 345 344 343 343 342 341 339 338 339 339 339
308 305 300 301 301 304 306 308 305 304 303 305 306 304 326 333 338 339 339 340 341 347 346 348 351 352 352 353 353 353 352 349 348 347 346 343 343 345 344 343 342 341 339 339 338 338 338 339 338
310 307 301 302 301 302 309 309 309 305 305 310 308 307 318 332 338 341 339 339 339 340 344 344 346 348 349 349 350 350 350 348 346 346 343 339 338 340 343 342 342 340 338 337 337 337 337 338 337
312 301 297 301 302 304 309 307 309 310 306 306 307 319 328 336 338 337 336 337 338 339 339 341 341 345 347 347 346 347 348 345 344 341 336 334 330 332 334 335 338 339 339 337 337 337 339 338 335
303 298 300 307 307 304 308 308 307 305 304 303 306 322 330 335 334 332 333 332 334 335 336 340 342 343 343 346 343 342 344 343 340 338 331 332 328 326 329 332 336 339 339 339 339 339 339 334 327
303 297 304 306 306 306 306 305 307 304 301 304 304 313 324 329 331 331 331 330 332 335 335 337 337 340 338 341 342 340 341 339 339 338 335 334 331 326 330 330 331 332 333 332 335 336 331 327 325
299 303 304 306 307 305 303 306 305 304 304 310 311 315 324 324 328 330 331 333 334 335 336 337 337 336 335 334 331 331 331 332 329 331 337 334 331 326 324 329 327 328 330 327 329 331 329 327 324
302 302 304 306 306 305 306 303 302 303 309 312 312 312 310 315 325 328 331 333 335 334 336 337 338 339 337 334 331 330 331 331 330 331 337 336 331 327 325 325 326 327 328 327 328 328 329 325 323
304 304 304 305 306 305 302 302 303 305 307 308 309 307 308 310 312 323 329 330 331 332 337 338 339 338 339 336 335 334 334 333 332 330 332 333 331 330 327 327 327 326 326 325 326 325 325 324 322
305 299 302 302 304 303 305 299 300 305 306 305 306 306 307 308 310 310 316 328 330 332 336 338 338 340 339 337 338 339 337 337 333 332 332 332 331 330 329 327 328 329 329 329 324 324 324 322 322
300 299 293 300 303 304 302 293 302 306 304 303 304 302 304 306 308 309 312 314 316 316 319 336 341 340 338 339 339 338 339 338 336 334 333 332 332 332 330 328 327 330 330 329 328 324 322 320 318
297 289 292 296 302 301 299 294 302 305 304 302 302 303 303 303 304 305 307 308 313 315 315 316 320 334 339 339 339 340 340 338 338 339 335 334 333 333 331 330 328 328 328 329 328 327 322 319 315
290 289 291 292 298 299 297 296 299 302 300 300 301 301 301 302 304 305 306 308 309 310 312 314 316 317 318 337 339 338 337 338 340 338 338 335 334 334 332 330 329 327 326 326 327 326 324 319 317
295 292 290 294 299 297 296 297 298 300 301 299 300 300 300 302 305 305 306 306 306 307 308 310 311 313 314 315 321 335 334 334 335 338 338 339 333 334 332 332 330 328 326 327 328 326 324 321 317
295 292 290 294 299 296 295 294 298 299 300 301 300 299 300 301 301 303 303 301 303 304 305 307 309 311 312 313 314 326 335 334 334 334 337 337 336 335 332 331 331 328 326 325 326 326 323 324 320
293 290 290 290 294 295 292 290 294 298 299 298 297 298 299 300 300 302 303 304 305 306 307 306 306 307 309 312 313 314 330 331 329 330 332 335 336 334 332 333 331 329 329 328 323 326 323 321 319
290 295 295 293 289 284 292 280 291 295 293 295 295 296 298 299 301 303 304 304 305 307 309 309 307 306 308 308 309 308 309 316 326 330 334 334 334 333 333 330 333 332 332 329 328 328 325 321 319
292 297 294 293 289 287 288 283 287 292 290 292 295 298 300 301 302 303 304 307 308 309 309 309 309 308 307 306 307 307 307 310 313 321 324 325 326 332 331 329 327 326 329 331 330 328 327 326 323
300 295 293 291 289 280 288 285 284 287 291 294 297 299 301 302 304 305 306 307 308 309 309 309 308 308 309 308 306 305 306 307 308 314 318 320 323 326 328 329 329 329 329 329 327 329 326 325 325
297 289 281 279 280 278 287 285 286 292 295 295 295 297 300 302 303 304 304 305 307 307 307 308 307 307 308 308 308 308 306 305 305 307 312 316 320 322 325 325 324 326 327 328 327 327 326 324 322
290 289 280 275 277 278 285 280 285 293 297 297 298 299 301 302 303 303 303 304 304 305 304 305 305 305 306 306 307 307 308 309 308 309 308 309 310 313 317 322 323 324 325 325 326 325 324 323 322
289 286 289 282 281 278 281 284 288 291 293 294 296 298 299 301 302 301 301 303 302 301 302 302 303 303 304 305 305 306 306 307 307 308 309 310 311 313 313 314 315 320 322 322 322 322 321 319 319
293 294 284 282 273 275 278 281 282 286 290 293 294 296 300 302 301 301 301 300 300 300 301 301 302 302 303 304 305 306 306 306 306 306 306 306 307 309 309 309 310 311 312 316 317 316 314 313 306
288 287 289 285 282 275 275 277 288 289 291 292 295 298 300 301 299 299 299 299 300 300 299 299 299 299 299 301 302 301 301 302 301 299 300 300 302 303 304 307 309 308 307 308 308 306 306 301 297
291 290 289 280 280 279 277 278 292 291 292 295 295 299 301 300 299 299 298 298 297 297 297 296 296 296 297 298 298 297 297 296 295 295 294 294 293 294 294 295 296 297 297 298 298 297 296 296 294

GFSSGP_sfc_thetae_069.txt.gz
Theta_e
329 327 321 316 299 297 293 297 298 300 300 302 305 305 303 309 317 310 331 343 347 350 355 358 360 361 361 360 359 358 357 356 355 353 352 350 347 345 344 344 347 349 348 345 344 343 341 340 338
331 329 318 307 295 289 292 297 299 301 304 305 307 305 308 318 327 329 333 344 347 350 351 354 359 360 360 359 358 357 357 356 354 350 347 345 345 345 345 345 347 349 347 343 342 340 340 339 337
330 327 310 301 295 291 293 299 300 303 306 305 303 306 312 318 329 330 338 344 349 348 350 356 359 360 359 358 357 357 356 354 351 348 345 344 346 347 347 347 349 348 345 342 341 340 340 339 336
320 317 309 298 295 300 299 301 302 303 305 307 305 312 322 330 331 336 341 347 346 345 350 356 358 359 358 357 356 356 354 352 348 346 344 348 350 349 349 349 348 347 345 341 341 340 340 340 338
319 313 299 295 297 301 301 304 302 302 304 304 304 309 320 330 336 336 339 345 344 347 352 356 358 358 357 357 356 354 353 349 346 344 344 350 350 348 348 347 346 345 342 341 341 340 340 340 339
310 311 298 294 297 302 302 304 303 301 303 303 307 316 321 330 332 335 340 345 347 347 351 354 354 356 356 356 355 353 351 349 346 344 343 348 348 346 346 345 344 343 342 341 339 340 340 339 338
308 303 298 298 298 301 304 305 300 302 300 301 305 315 321 330 335 335 339 345 346 348 349 351 352 352 351 352 352 352 351 349 348 347 344 347 347 346 345 344 343 342 341 340 339 339 339 339 338
311 307 299 301 300 301 308 306 305 304 301 306 308 314 319 329 337 338 339 343 344 345 347 347 348 349 348 348 349 349 348 347 346 345 342 339 341 343 344 343 343 341 339 339 339 338 339 339 337
313 300 296 299 301 304 310 306 305 307 304 306 314 321 331 336 337 335 332 335 340 342 343 345 344 344 345 346 346 346 346 344 343 341 337 334 331 335 337 336 339 340 339 337 338 338 339 339 336
303 299 297 302 305 305 306 307 309 303 302 303 317 331 334 335 332 331 330 329 331 334 339 341 343 343 344 346 343 342 343 340 338 335 332 328 327 328 333 332 336 340 339 339 338 339 340 335 326
302 297 303 305 307 308 306 307 309 301 299 302 311 324 329 330 329 328 330 330 328 332 336 338 341 341 341 341 340 338 339 339 337 334 330 329 328 325 327 328 331 331 332 331 335 335 332 327 324
298 303 303 306 307 307 305 305 303 301 303 308 307 322 326 327 328 328 329 330 329 332 334 338 340 338 336 340 339 338 338 337 337 337 333 331 325 324 326 327 328 328 329 327 328 329 328 326 324
300 302 304 305 305 304 305 301 301 300 306 309 310 312 321 325 326 330 331 332 332 332 334 335 336 334 333 336 334 330 334 334 332 332 336 333 328 323 326 326 326 327 327 326 326 327 327 325 323
303 304 304 304 304 303 301 302 302 302 306 306 308 306 306 312 323 325 328 329 331 332 334 336 336 336 337 332 328 327 328 331 328 330 335 334 330 326 324 324 324 325 326 326 326 326 326 324 322
304 299 301 300 302 301 303 298 299 303 303 302 301 303 305 305 308 321 327 328 329 332 335 336 336 337 336 336 335 335 333 332 329 329 332 333 330 327 326 324 324 324 325 325 322 325 323 322 321
300 297 291 298 301 302 300 293 300 303 301 302 300 299 301 304 306 307 312 317 323 328 333 336 339 337 336 335 335 336 337 336 333 330 330 329 330 329 327 325 324 327 327 326 325 322 320 319 318
295 289 290 294 301 301 298 293 300 303 301 301 300 299 300 301 301 303 305 304 308 312 314 327 336 335 336 335 336 336 337 336 336 337 331 330 330 330 328 327 326 326 327 326 325 325 320 318 316
289 287 289 290 296 298 296 295 299 300 300 301 300 299 299 300 302 304 304 304 306 306 307 310 316 332 336 336 335 334 332 334 335 336 336 336 331 330 329 329 328 326 325 326 325 323 322 318 316
293 291 289 293 298 296 295 296 298 300 298 297 299 299 299 300 302 302 301 301 302 303 303 304 307 308 311 316 330 330 332 329 330 334 335 335 335 332 329 330 328 326 325 324 326 325 322 320 316
293 289 288 291 296 296 295 294 298 299 298 299 300 299 298 298 299 300 301 301 303 304 304 304 304 305 307 309 311 330 332 332 334 334 333 333 332 333 332 328 329 327 324 322 324 323 320 321 317
293 288 288 288 292 293 291 290 294 297 297 298 298 298 298 299 299 300 302 304 305 305 306 306 304 304 305 306 309 309 326 328 328 328 328 331 332 332 331 330 327 326 325 322 321 325 323 321 316
288 294 293 291 288 283 291 280 289 294 293 294 294 294 296 299 300 302 303 304 305 306 307 307 307 305 306 305 305 305 306 309 320 327 329 330 331 331 330 329 329 327 326 326 327 327 326 323 319
291 298 294 290 287 285 285 282 286 293 289 291 292 293 297 298 300 302 303 306 308 308 307 306 307 306 306 304 304 304 304 305 307 310 316 325 329 330 330 329 327 324 324 323 323 322 323 325 324
299 295 293 290 287 278 285 283 283 287 292 290 292 296 299 301 301 303 304 306 307 307 307 306 307 306 307 306 306 304 302 302 303 305 308 313 318 321 325 327 326 325 327 326 324 326 325 324 324
295 290 281 279 276 275 285 283 286 291 292 293 295 296 298 300 301 302 303 304 304 304 304 306 305 305 305 305 305 306 306 305 304 304 305 306 309 312 313 320 322 322 323 326 326 325 324 324 323
288 288 278 273 274 277 283 280 285 289 295 297 297 297 299 300 301 302 302 302 301 301 301 302 302 302 304 304 304 305 305 305 306 306 306 307 307 308 310 312 315 318 323 324 324 322 323 323 321
290 286 290 281 280 275 279 282 288 291 293 295 296 298 298 300 301 300 300 299 299 299 300 300 301 301 302 303 303 304 304 304 304 304 304 305 305 309 307 308 308 310 311 313 317 318 319 319 319
293 295 284 281 274 275 276 278 280 286 290 293 295 295 298 300 299 298 298 298 298 299 298 298 299 298 299 300 301 300 299 299 298 298 296 298 299 300 302 304 305 305 305 305 307 307 309 312 305
289 288 287 286 281 274 273 277 286 289 291 292 294 296 298 298 297 297 296 297 298 297 296 295 296 296 296 297 296 295 295 295 294 293 293 292 293 293 294 296 297 296 297 298 300 301 300 300 298
293 290 289 279 279 278 275 278 289 289 291 293 294 298 299 298 297 297 296 296 295 295 295 294 294 294 295 295 294 293 293 292 291 291 292 291 290 291 291 291 291 291 292 291 293 294 296 295 294

GFSSGP_sfc_thetae_072.txt.gz
Theta_e
328 326 321 313 299 296 291 296 297 298 298 301 303 310 312 311 315 305 330 343 351 352 356 357 360 361 360 360 359 358 357 356 355 351 351 349 347 344 345 348 349 348 345 344 343 341 340 338 337
329 327 315 305 295 289 291 296 297 299 304 304 304 304 315 317 325 331 334 347 351 353 355 356 360 361 360 359 358 358 357 356 355 351 348 346 344 345 344 347 349 347 344 343 341 339 338 336 336
328 326 309 300 294 290 292 297 298 302 303 303 303 309 315 319 328 330 339 347 349 349 353 356 359 360 359 358 357 357 356 354 349 348 345 346 346 346 346 348 349 345 343 341 340 339 338 336 337
320 316 307 297 294 298 297 299 303 302 303 305 309 314 322 328 330 335 344 347 345 345 350 356 358 358 358 357 356 356 354 350 347 345 346 348 347 347 348 350 347 346 344 341 340 339 338 337 338
318 311 300 294 297 300 301 304 304 301 301 302 305 313 319 330 334 341 344 345 343 346 352 355 358 358 357 356 356 354 352 348 346 344 348 350 349 350 350 348 347 343 342 341 341 339 339 338 338
309 309 296 293 297 301 302 305 300 301 300 303 317 317 318 330 332 342 344 343 346 347 353 354 354 355 355 355 354 352 351 348 345 345 350 349 346 348 347 346 344 343 342 341 341 340 339 339 337
306 301 295 297 298 300 303 306 300 300 300 300 317 314 320 326 335 338 342 344 346 349 351 352 352 352 351 352 352 351 350 348 346 346 348 348 347 346 346 345 344 343 342 340 340 340 339 339 337
311 305 298 299 299 300 307 307 306 302 300 304 318 317 318 329 336 338 343 343 344 346 349 350 349 351 349 348 348 348 347 346 346 344 344 343 342 343 345 343 343 342 341 339 339 339 339 339 338
315 301 296 299 301 303 309 305 308 308 305 312 318 322 329 335 335 337 338 340 340 344 345 346 345 346 347 345 345 346 345 344 343 340 337 337 335 338 338 337 340 341 340 338 339 338 339 340 337
305 299 299 304 306 304 307 308 306 304 305 313 323 330 333 333 330 329 333 333 335 336 341 344 343 342 343 346 343 341 342 339 337 334 331 329 330 332 336 333 337 340 339 339 338 338 340 336 327
303 297 302 305 306 308 307 307 310 304 299 310 320 324 328 329 327 328 328 331 332 337 339 341 342 342 342 342 339 338 338 336 335 332 330 326 326 326 328 327 330 330 332 331 334 334 332 326 323
299 302 305 306 309 307 305 308 305 301 304 308 322 327 326 326 326 328 328 330 330 331 336 338 340 339 339 339 339 337 338 335 334 333 330 327 324 322 323 325 327 327 328 326 327 328 328 326 324
300 302 304 305 307 307 309 306 305 301 307 310 322 324 325 325 325 328 329 330 331 331 332 334 335 335 337 337 337 335 336 336 336 335 333 330 326 322 324 324 325 326 326 325 324 325 327 324 323
304 304 303 303 303 304 305 304 306 304 306 306 308 314 320 324 326 325 328 329 329 332 333 334 334 333 332 335 334 333 333 335 331 333 335 333 329 324 325 324 325 325 326 326 324 325 326 325 323
303 299 301 302 302 301 302 299 299 303 303 302 302 304 305 313 324 326 328 328 331 330 334 334 335 336 334 332 328 326 327 331 327 329 334 334 331 324 324 324 324 325 325 325 324 323 323 323 322
298 297 292 299 301 302 300 292 300 303 301 300 300 301 301 302 308 319 325 327 327 330 332 334 338 335 335 335 334 335 335 333 328 327 331 333 332 328 324 322 323 324 323 324 322 322 321 320 320
294 288 290 294 301 300 297 292 299 302 300 300 299 299 299 300 300 302 306 306 311 322 327 333 335 335 335 334 334 334 335 335 335 333 328 328 330 329 327 326 324 324 324 324 323 321 319 317 317
287 287 288 289 297 299 295 294 299 300 298 299 299 300 300 299 301 300 303 303 304 304 305 309 326 333 334 334 333 333 331 332 334 334 335 333 329 328 327 327 326 325 324 324 322 322 321 318 317
292 290 289 293 297 296 295 295 298 301 297 297 298 298 299 300 298 300 299 299 300 303 303 303 305 306 320 329 329 328 329 329 328 330 334 335 335 332 328 326 325 324 324 325 325 323 321 320 316
293 289 288 291 295 294 294 294 297 299 298 297 298 299 299 297 298 298 299 301 303 303 303 303 303 303 305 308 311 329 329 329 331 330 330 330 331 331 331 328 327 325 323 322 321 322 318 320 317
291 287 287 288 291 292 291 289 292 297 296 297 298 298 298 298 297 299 301 303 303 303 304 305 305 302 304 305 306 308 324 326 326 326 327 330 331 331 330 330 328 325 323 323 321 322 320 321 315
289 293 293 289 287 282 289 280 286 293 296 296 296 294 295 296 298 300 301 303 304 304 305 305 305 303 303 303 303 304 305 309 318 320 324 327 328 329 328 328 327 327 324 324 323 321 322 320 320
291 297 292 289 286 284 284 281 284 288 289 294 292 293 294 296 299 300 303 306 307 306 305 304 305 306 305 305 302 302 302 304 305 306 309 314 320 326 328 327 325 324 323 322 321 321 320 320 321
297 291 290 289 287 278 283 282 281 285 289 292 291 292 295 296 299 301 304 306 305 305 304 304 305 304 304 305 305 304 301 300 302 302 303 305 311 314 314 320 323 323 321 321 322 324 321 319 321
293 286 280 280 280 277 283 282 287 289 292 293 292 293 297 298 299 301 302 303 303 302 302 304 303 303 304 304 304 304 304 304 304 304 305 305 306 307 309 313 316 318 319 321 322 324 323 321 321
288 288 278 275 275 276 282 280 286 289 291 294 297 298 298 298 300 301 301 301 300 300 300 300 301 302 302 302 303 303 304 304 304 303 304 303 304 306 307 308 310 311 312 314 315 317 316 318 315
289 286 289 278 276 273 278 281 287 289 289 294 296 297 298 299 300 299 299 298 298 298 298 299 299 300 301 302 301 300 300 300 298 297 299 300 299 304 303 305 305 306 306 307 308 309 308 309 312
292 294 283 277 271 272 276 276 281 284 288 294 295 296 299 299 298 298 297 297 297 297 296 296 297 297 298 297 297 296 295 294 293 293 292 292 293 294 296 297 297 297 298 300 301 301 304 306 302
289 287 287 284 279 273 273 277 283 287 291 293 295 298 299 298 297 297 296 297 297 295 294 294 294 295 295 295 294 292 292 292 292 291 290 290 291 291 291 292 292 292 292 293 295 296 296 298 297
293 290 287 279 279 276 274 277 286 287 291 294 294 297 299 298 297 296 296 296 294 294 293 293 293 294 294 293 292 291 291 291 290 290 290 290 289 290 290 290 290 290 290 290 291 291 292 294 293

GFSSGP_sfc_thetae_075.txt.gz
Theta_e
330 325 319 311 299 296 291 295 296 297 297 300 302 306 307 314 310 304 329 341 349 352 356 357 359 360 360 359 357 357 357 355 353 350 350 348 345 346 347 349 347 344 344 343 342 341 339 337 340
328 324 314 303 294 289 291 295 297 298 301 302 309 308 316 315 325 329 333 347 351 352 354 355 359 360 359 358 357 356 355 353 352 350 348 345 343 344 347 349 347 345 343 341 339 338 337 336 337
329 324 309 299 293 290 291 296 298 301 302 300 302 314 316 318 328 332 337 349 351 351 353 355 359 359 359 358 357 356 355 353 349 348 345 345 344 344 347 350 346 344 342 340 338 337 336 337 339
318 315 307 298 293 297 296 297 302 303 303 304 311 314 322 328 329 334 346 349 348 348 351 356 358 358 358 357 357 356 352 348 347 346 346 347 346 346 348 350 346 344 342 340 338 337 337 338 339
314 309 298 295 296 300 300 303 303 301 300 301 309 314 317 327 336 342 344 346 345 346 352 354 357 358 357 356 356 354 352 348 346 345 348 347 348 347 350 347 344 343 342 340 338 338 337 338 338
304 305 293 292 296 301 301 303 302 299 300 311 316 316 315 327 337 341 344 343 347 347 351 353 353 355 355 355 355 353 351 348 346 346 350 349 349 349 348 345 343 343 342 341 339 338 338 338 337
302 298 294 295 297 299 301 307 299 299 299 302 319 314 317 323 333 341 341 342 345 349 350 351 351 351 351 352 351 350 349 347 346 349 350 347 347 348 345 344 343 342 341 340 339 338 338 337 336
306 300 295 296 297 299 306 307 307 301 299 308 320 315 316 327 334 339 341 342 343 346 348 348 348 348 347 347 347 347 346 345 345 346 345 342 342 343 345 344 344 342 340 339 338 338 338 337 336
315 299 295 297 300 302 306 304 309 311 303 314 321 321 327 333 339 338 340 341 342 345 345 346 346 346 344 344 344 344 344 343 342 340 339 338 337 338 338 337 340 342 341 339 338 338 338 340 337
306 299 298 303 305 303 307 306 307 306 304 311 319 329 331 334 335 335 336 336 336 338 341 343 343 342 343 345 341 340 340 339 337 333 332 333 332 333 336 333 337 340 340 339 339 339 339 336 326
301 298 303 305 306 307 306 306 309 303 299 304 317 324 327 327 331 333 334 334 334 338 340 342 341 340 341 342 339 337 337 335 334 331 329 327 329 328 330 328 330 330 331 329 333 331 330 326 323
297 303 305 307 309 307 305 307 304 305 302 309 309 325 326 327 327 328 329 331 331 333 337 340 340 339 338 338 338 336 336 333 332 331 329 324 322 323 324 324 326 326 326 325 326 326 327 326 324
296 301 305 308 307 305 306 303 302 303 308 309 316 324 323 324 325 326 329 330 331 331 333 335 337 336 337 335 336 335 335 335 334 332 330 327 323 320 322 322 324 324 325 324 323 324 325 324 323
302 302 304 305 306 306 303 303 305 305 308 305 320 320 321 323 324 325 328 328 328 331 331 333 336 335 335 336 334 335 334 335 333 332 332 329 327 323 322 322 323 323 324 324 323 322 323 323 322
302 299 300 302 302 302 306 301 300 306 307 303 306 317 319 321 324 325 328 328 329 330 332 332 334 335 333 335 334 333 333 333 331 333 333 332 330 324 323 323 322 324 324 324 323 322 322 322 322
296 296 291 299 301 302 303 293 303 307 306 301 302 302 302 307 321 323 327 328 329 330 331 333 337 334 333 333 332 329 329 329 329 328 330 332 331 326 322 322 323 324 322 323 321 321 320 319 319
292 285 290 294 301 300 298 293 303 307 306 301 301 301 302 299 299 305 318 323 325 328 330 331 333 334 334 333 332 331 332 332 329 327 326 329 331 329 326 323 323 322 321 321 322 320 319 317 318
285 283 289 291 297 299 295 294 299 301 298 298 298 299 300 301 301 300 302 302 304 308 310 321 331 333 332 333 332 331 331 332 333 333 330 327 327 328 327 325 323 322 321 320 320 320 319 319 319
291 287 288 292 297 296 295 294 298 301 299 297 296 297 299 300 299 299 299 299 301 301 302 303 308 308 324 329 328 327 328 328 330 331 334 334 332 327 325 325 324 323 322 323 322 321 320 319 316
291 288 286 291 295 295 294 294 297 299 298 298 297 296 298 297 297 297 300 301 302 302 301 301 302 303 305 311 320 329 328 328 329 328 329 330 330 330 329 326 325 324 323 322 321 320 318 318 316
288 285 286 288 291 292 291 290 293 298 296 297 298 297 297 297 297 298 300 301 302 302 303 303 303 302 302 303 305 308 322 325 327 326 326 328 330 330 330 329 328 326 323 322 320 319 318 320 314
286 292 291 289 287 282 290 281 287 293 295 295 297 296 296 296 296 299 301 302 302 303 304 304 303 303 303 302 302 302 305 317 317 315 317 315 323 326 327 327 326 326 323 322 322 320 319 317 318
289 295 291 290 286 284 284 281 285 286 288 293 297 296 294 295 297 299 301 304 305 305 304 303 304 305 304 304 301 301 301 303 304 304 305 308 313 316 319 323 324 323 322 321 321 319 317 319 320
297 291 290 289 285 276 283 283 282 285 287 289 293 293 295 295 297 299 303 305 303 303 303 303 303 303 304 305 305 302 301 301 303 304 303 304 308 309 310 315 319 320 320 320 320 319 318 317 319
292 287 282 279 279 276 282 282 287 288 290 291 291 290 292 295 297 299 302 302 301 301 301 302 302 301 302 303 303 303 303 303 302 303 303 304 305 305 306 308 311 313 316 318 319 318 318 317 319
287 285 278 274 275 276 282 279 284 290 292 292 293 292 294 295 297 299 301 300 299 299 299 299 300 300 301 302 302 302 302 302 301 300 301 300 301 303 303 305 306 307 308 311 312 312 312 310 313
287 286 286 277 275 272 278 281 286 288 289 290 292 294 295 296 298 299 299 298 298 297 297 298 298 299 300 299 297 295 295 295 294 294 294 294 294 299 299 300 299 300 301 303 305 305 306 308 307
291 292 283 278 273 271 275 277 281 284 287 290 292 294 297 299 298 298 297 297 296 296 295 295 296 296 295 295 295 293 293 292 292 291 290 291 291 292 293 294 293 293 294 297 298 298 303 303 301
289 288 288 286 278 274 273 277 283 284 287 290 293 296 298 299 298 296 296 296 296 295 294 293 294 294 294 293 292 291 291 291 290 290 289 289 290 290 291 291 291 291 291 292 293 293 297 298 296
292 289 289 277 277 274 273 277 285 285 286 292 293 298 299 298 297 296 295 295 294 293 292 292 293 293 292 292 291 291 291 290 289 289 289 289 289 290 289 290 290 289 290 289 290 290 292 293 293

GFSSGP_sfc_thetae_078.txt.gz
Theta_e
333 325 318 310 297 295 289 293 295 297 295 299 301 303 303 312 310 303 327 338 348 350 355 356 359 359 360 359 357 356 356 354 351 349 347 347 348 347 349 346 345 343 343 343 342 340 339 342 342
327 324 311 303 293 287 289 295 296 297 299 304 308 311 313 312 324 329 334 345 350 352 354 354 359 360 359 358 356 355 353 352 351 349 348 345 345 347 349 347 345 343 341 341 340 338 338 340 338
328 322 305 298 291 288 290 296 298 302 303 300 304 316 315 316 326 331 333 349 350 351 353 354 359 359 359 358 357 355 353 353 350 348 345 344 343 346 350 348 345 343 341 339 337 337 338 339 340
318 312 306 296 291 296 296 297 301 302 303 300 308 312 320 326 330 333 345 350 349 350 350 355 358 359 358 357 357 355 353 349 347 346 346 345 345 346 350 347 344 342 341 338 337 337 339 340 340
316 305 297 293 295 299 300 302 302 301 300 299 309 311 314 327 334 343 346 349 346 348 350 354 357 358 357 357 356 353 351 348 346 346 348 346 346 348 350 346 343 342 341 339 337 337 339 339 339
307 303 292 291 294 300 301 303 301 299 299 302 315 311 313 326 338 341 345 344 347 348 351 353 353 355 356 356 354 353 351 348 346 347 349 349 347 349 348 344 343 342 341 339 338 338 338 338 338
301 297 292 293 295 299 302 306 301 300 298 298 317 308 314 324 338 341 340 344 346 349 349 350 349 350 351 352 351 351 350 348 347 350 351 348 349 347 346 343 342 342 341 340 338 337 337 337 337
304 298 292 293 296 298 306 306 306 305 300 308 317 311 314 325 338 338 340 341 345 346 348 349 346 347 346 346 347 346 345 345 346 348 345 341 343 344 345 344 344 342 340 339 339 337 337 338 337
311 297 291 294 298 301 307 304 307 310 303 304 322 318 326 332 337 337 339 340 343 345 344 345 345 343 343 342 342 343 343 342 342 342 339 337 336 337 337 337 340 342 340 338 337 337 337 339 335
303 296 294 300 303 303 306 306 305 305 303 305 311 322 330 335 335 334 334 335 336 338 340 342 345 342 341 344 339 337 338 336 334 334 334 333 333 333 335 333 337 340 340 339 337 338 339 335 325
300 297 302 304 306 308 306 306 307 303 299 301 303 308 322 332 333 333 334 334 335 338 339 341 342 339 340 340 338 336 335 334 333 329 330 330 331 329 330 328 330 329 331 328 330 329 328 325 323
296 302 304 307 308 307 305 306 302 303 304 307 308 309 319 327 330 332 332 333 334 336 338 340 340 338 338 338 337 335 334 332 331 330 328 325 324 325 325 325 325 325 325 324 323 324 324 324 323
299 303 306 307 306 305 306 304 301 302 306 308 308 317 322 323 327 331 333 331 331 332 334 336 337 337 337 336 335 334 334 333 332 330 329 326 322 321 322 322 322 323 324 323 321 322 323 323 322
301 303 305 305 305 305 302 303 305 306 307 307 308 307 320 322 324 324 327 328 329 330 332 334 336 336 336 334 334 334 333 334 332 331 330 327 325 322 321 321 321 322 323 323 322 321 321 321 321
304 299 299 301 303 302 305 299 301 306 306 305 306 304 315 321 325 325 327 327 329 330 332 332 335 335 334 334 333 333 333 334 332 332 331 330 328 325 323 321 321 322 322 323 322 320 320 320 321
298 298 292 298 302 303 302 293 303 307 306 305 305 304 303 315 322 325 328 328 329 330 330 332 336 335 333 334 333 332 331 331 332 331 330 332 331 328 323 322 322 322 322 321 320 320 318 318 318
294 289 289 292 302 302 300 294 303 307 305 304 305 304 302 301 304 318 323 326 327 328 330 330 332 333 332 332 332 330 330 329 329 328 327 329 332 330 326 323 322 322 321 320 320 319 318 317 317
288 288 290 288 296 299 297 294 302 305 305 304 305 300 301 301 301 301 304 308 308 315 324 328 331 331 331 331 330 329 329 330 331 329 326 326 328 329 327 324 322 321 320 319 318 319 317 318 318
290 287 287 290 296 295 295 295 299 302 303 302 304 303 299 300 300 299 299 298 302 301 303 308 324 325 329 328 327 326 326 327 329 330 332 331 327 326 325 325 323 321 320 321 319 318 317 317 316
291 287 284 289 295 294 294 294 297 299 299 301 301 301 296 298 295 296 298 297 301 301 301 301 303 304 308 319 325 327 327 327 328 328 328 329 331 330 327 324 323 322 321 320 319 319 316 317 315
287 285 284 286 290 292 292 290 293 298 299 299 300 299 297 297 297 296 298 299 301 302 302 303 302 301 302 303 305 307 319 323 324 326 325 326 327 328 329 329 327 325 322 322 320 318 318 318 314
285 291 290 289 287 283 289 282 287 295 296 297 299 299 297 296 295 296 298 300 301 302 303 303 303 303 303 302 302 302 305 313 315 312 311 311 316 320 324 326 326 326 323 322 321 319 318 317 319
288 293 290 288 284 283 283 281 285 287 288 295 299 297 297 296 295 297 299 301 302 302 302 303 304 305 305 304 301 301 300 301 302 303 303 305 311 312 313 316 321 322 322 321 321 319 317 317 319
296 290 289 286 283 280 282 282 283 286 288 290 293 297 299 295 295 298 300 303 301 301 302 302 303 303 305 305 305 302 300 301 303 304 304 305 306 307 307 310 312 320 322 320 319 318 317 317 319
292 288 277 275 279 277 281 280 286 289 290 291 292 293 294 295 295 298 301 301 300 300 300 301 301 301 302 303 303 303 302 302 302 302 302 302 303 303 303 305 306 310 314 317 320 320 319 318 319
287 286 277 273 274 275 280 278 284 290 292 293 293 293 292 292 294 298 300 299 299 298 298 299 300 299 301 301 300 300 300 300 299 298 298 297 298 299 300 301 302 302 304 309 313 313 312 310 313
287 283 285 280 274 271 278 280 285 287 288 289 290 291 291 293 296 298 299 298 297 297 297 298 298 298 298 297 295 294 293 293 292 292 292 292 292 297 295 295 296 296 298 301 303 306 308 307 306
291 290 282 281 273 272 275 275 280 284 286 288 290 291 292 295 297 297 296 296 296 296 295 295 297 296 294 294 293 292 291 291 291 291 290 290 291 291 292 292 292 293 294 296 297 298 304 303 301
289 287 286 283 279 272 272 277 283 284 286 286 289 292 294 296 297 296 295 295 295 293 293 293 294 293 292 292 291 290 290 290 290 289 289 289 290 290 290 290 290 291 291 291 292 295 299 298 297
292 289 289 282 277 275 272 279 285 285 286 286 290 295 296 297 296 295 294 294 293 292 292 292 292 292 291 291 290 290 290 289 289 288 289 289 289 289 289 289 289 289 289 288 289 290 294 294 293

GFSSGP_sfc_thetae_081.txt.gz
Theta_e
334 328 323 315 303 300 294 297 302 301 301 305 307 308 311 317 315 310 335 344 348 351 355 357 360 360 360 359 356 356 355 354 352 349 349 349 348 349 347 345 344 344 344 343 342 342 344 343 341
331 326 316 308 298 292 294 300 299 302 305 306 313 317 319 318 329 331 337 346 350 352 355 356 359 360 359 358 356 355 353 351 350 349 347 347 348 350 348 346 344 342 342 341 340 341 342 340 339
329 322 309 302 296 292 294 299 303 306 307 306 310 322 322 322 330 334 341 349 351 352 355 356 358 360 359 358 357 355 354 352 350 347 344 344 347 350 349 346 344 341 339 338 338 339 340 342 342
320 316 310 298 295 298 299 301 305 306 307 305 315 319 327 331 334 338 347 349 350 352 354 356 358 359 358 357 357 355 354 350 348 346 346 344 346 351 348 345 343 341 339 337 338 340 341 341 341
318 309 300 296 297 301 303 305 305 304 304 305 314 316 323 332 337 345 347 347 346 350 353 355 358 358 357 357 356 355 352 349 347 347 346 346 347 350 348 345 343 342 339 338 338 340 340 340 340
309 308 297 294 296 302 304 307 305 304 304 304 318 321 323 335 339 343 347 347 347 348 354 354 354 355 356 356 354 352 351 350 348 350 348 348 347 351 347 344 343 343 341 338 338 339 339 339 339
307 302 297 297 297 300 304 309 305 305 303 305 320 318 324 331 339 344 345 344 345 348 352 353 354 353 352 352 352 351 350 349 348 350 350 350 349 349 346 344 343 343 341 340 338 338 338 338 337
308 303 298 297 297 299 307 308 309 308 305 310 322 316 320 330 339 342 344 343 344 347 350 351 352 352 352 351 348 347 346 346 349 348 345 343 342 344 345 343 344 342 340 340 339 338 338 339 337
311 299 296 297 298 301 308 306 309 311 308 310 319 320 328 336 339 340 341 340 341 345 346 350 349 350 350 349 345 343 342 343 344 342 338 339 346 345 343 339 341 342 340 338 337 337 337 338 335
306 298 297 302 304 305 307 307 307 307 304 305 309 312 315 336 336 335 335 335 337 340 341 344 347 348 348 346 345 343 341 340 343 344 343 342 343 342 341 337 338 341 340 339 337 337 338 336 336
305 299 303 305 307 309 307 306 308 306 302 305 306 308 313 326 331 332 333 335 335 339 340 342 345 347 347 345 344 342 341 340 338 340 342 341 341 341 341 340 339 340 334 337 336 337 338 335 334
301 304 306 307 308 307 305 307 304 306 307 309 309 310 315 317 329 331 334 335 336 337 339 341 343 344 346 345 343 342 340 340 339 336 337 337 337 337 338 338 337 337 337 335 334 334 334 334 333
300 304 307 307 305 304 306 304 304 305 308 310 310 311 311 322 326 331 335 337 337 336 338 339 342 343 345 344 343 342 340 340 339 338 335 334 333 333 333 334 334 334 335 334 333 332 331 331 331
303 305 305 305 304 305 303 304 306 306 308 309 309 309 310 317 327 328 332 332 333 337 337 340 339 344 344 343 343 342 342 341 339 339 338 335 333 332 330 329 329 330 331 333 332 330 329 329 330
304 299 301 303 303 303 304 300 301 307 308 307 308 309 309 308 325 327 331 332 335 336 339 339 342 343 343 342 342 342 342 341 340 339 339 337 335 333 332 330 329 330 330 330 331 330 329 328 328
300 299 293 299 302 303 302 295 302 307 306 306 307 308 309 307 312 327 330 332 333 335 336 338 340 341 342 342 342 341 340 341 340 340 340 338 337 336 334 332 331 332 330 330 329 329 328 327 327
295 289 291 295 302 301 300 295 302 307 305 305 307 308 308 308 307 309 327 331 333 334 335 335 337 339 340 341 341 340 339 339 339 339 338 338 338 337 336 334 333 332 331 329 328 328 327 327 327
288 290 291 291 298 300 297 297 302 304 305 305 306 307 307 307 307 307 309 320 327 330 333 334 335 337 338 338 337 337 337 337 337 337 336 336 336 337 336 334 333 331 329 328 327 327 327 327 326
292 292 290 293 298 298 297 297 299 303 303 303 305 306 306 307 306 304 304 306 308 310 320 330 333 335 336 335 334 333 334 335 336 337 337 335 333 331 333 333 332 330 329 329 328 327 325 325 326
292 289 289 293 296 297 295 295 298 302 302 304 304 305 306 304 303 303 302 303 306 306 309 312 325 324 331 333 333 334 334 335 335 336 336 337 337 336 332 331 330 330 329 328 327 325 325 325 325
290 288 288 289 293 295 294 292 294 299 302 304 305 306 307 304 302 302 301 303 305 305 306 306 307 308 309 314 316 317 326 330 332 332 333 332 332 333 335 335 332 330 329 328 328 327 325 325 324
287 292 291 290 289 286 292 284 290 296 297 299 302 304 305 302 301 301 301 303 304 306 307 306 306 306 306 306 308 309 314 319 322 319 315 316 319 321 324 328 331 332 331 330 331 328 327 324 322
289 294 291 289 287 287 286 285 287 292 294 297 299 302 304 303 302 301 301 304 305 306 306 307 308 308 308 306 306 306 306 307 307 308 308 310 314 314 314 318 321 326 327 328 329 328 325 324 324
295 291 290 287 285 280 284 285 285 288 291 293 299 303 304 304 302 301 302 304 305 305 306 306 307 307 309 309 308 306 306 306 307 308 309 310 311 311 310 312 315 319 322 324 324 326 326 324 323
294 287 280 277 279 278 283 282 287 292 293 293 295 296 299 302 300 299 302 303 303 303 304 305 306 305 306 307 307 307 307 307 307 307 306 307 308 306 306 308 309 311 313 316 321 323 323 322 322
289 288 280 274 275 277 282 280 286 292 293 295 295 295 296 296 297 299 303 304 303 302 303 304 304 304 305 305 304 304 304 304 302 302 302 300 301 302 302 303 303 304 307 310 314 315 314 315 314
288 286 287 281 277 276 280 283 288 289 291 292 292 293 294 295 296 300 302 302 302 301 302 303 303 303 302 301 299 298 298 298 297 296 297 297 296 298 298 298 299 300 302 304 308 311 309 310 309
291 290 283 283 274 274 278 278 283 287 288 290 291 292 295 295 297 300 300 300 300 300 300 301 302 301 299 298 297 296 295 295 295 295 294 294 294 295 295 296 296 297 298 300 303 305 306 305 305
289 287 287 285 281 276 274 279 285 287 289 288 289 290 294 296 298 299 299 299 298 298 298 298 298 297 297 296 295 295 294 293 293 293 293 293 293 293 294 294 294 295 295 296 300 302 301 300 299
293 289 289 283 279 277 276 281 288 287 288 288 289 293 296 297 299 299 298 297 296 296 296 297 297 296 295 295 294 294 293 293 293 292 292 292 292 292 292 293 292 292 293 293 296 296 297 296 295

GFSSGP_sfc_thetae_084.txt.gz
Theta_e
339 333 332 322 305 305 300 301 308 306 305 310 313 311 316 323 319 315 342 347 348 350 354 356 358 359 358 358 356 356 355 353 352 350 349 349 349 347 345 345 345 345 344 344 346 345 343 342 341
338 328 324 316 302 297 299 305 303 308 311 313 318 319 317 318 331 335 340 348 349 351 354 355 358 359 358 357 355 354 352 351 351 348 348 349 351 348 346 344 343 344 343 341 344 343 341 340 339
334 326 314 307 302 298 299 305 308 310 312 315 315 325 324 325 334 338 344 349 349 351 353 355 358 358 358 357 356 354 352 351 349 347 346 348 351 349 346 344 341 340 340 340 341 341 342 342 342
326 321 315 302 299 303 303 307 309 310 311 312 316 320 331 337 336 341 348 349 348 351 354 355 358 358 357 356 356 355 353 350 347 345 345 347 350 349 346 343 341 339 339 339 341 342 342 342 343
324 318 304 301 301 304 307 309 310 309 310 311 318 320 326 337 341 346 347 347 347 349 352 354 358 358 357 357 356 355 352 349 347 346 345 346 350 349 346 344 342 339 338 339 341 341 341 341 343
314 314 301 298 300 305 309 311 310 310 310 313 318 322 328 339 341 344 346 347 348 348 350 354 354 356 356 356 356 353 352 349 348 349 348 347 350 349 346 344 343 341 339 339 340 341 340 340 341
312 307 301 302 301 303 307 312 310 308 308 312 323 319 330 334 341 346 346 348 348 349 349 352 354 353 352 353 352 352 351 350 350 351 350 350 350 348 346 344 344 343 340 339 339 339 339 338 337
315 310 302 303 301 301 309 311 313 311 310 319 329 320 325 333 342 345 344 344 345 347 349 350 352 352 351 351 348 348 347 347 348 348 346 344 344 345 345 344 344 342 341 340 338 339 339 338 336
314 303 301 302 303 305 311 309 313 314 314 316 317 319 321 335 341 341 341 341 342 345 349 349 350 350 349 349 346 344 343 345 344 342 339 340 346 345 343 340 342 342 340 339 338 338 339 338 335
308 302 303 308 309 307 310 310 312 310 312 311 314 319 320 337 338 337 338 336 338 341 344 347 349 349 349 347 347 345 342 344 345 345 344 342 343 343 342 339 339 340 339 338 337 337 338 335 336
309 301 306 308 310 311 310 310 312 309 308 311 310 314 320 325 334 337 338 338 338 341 343 345 348 349 348 347 346 345 343 341 341 343 343 342 341 342 340 340 339 340 335 337 335 336 334 332 333
304 308 308 310 312 311 309 312 309 310 311 314 314 316 322 318 330 332 336 338 338 340 342 344 346 349 348 347 346 345 343 342 341 339 339 339 339 339 338 337 337 337 336 335 335 333 332 332 331
304 307 309 309 310 310 311 309 309 309 313 314 315 316 316 319 326 332 338 340 341 338 339 342 344 346 348 348 346 345 344 343 343 341 340 341 340 339 339 338 335 334 336 335 334 333 329 329 329
306 308 308 309 307 308 307 308 309 311 313 313 313 314 316 315 321 331 336 338 338 339 339 341 342 344 348 346 346 346 346 345 344 343 342 341 341 340 339 338 335 334 335 336 336 334 333 330 330
307 303 306 306 308 306 308 304 305 312 313 312 313 314 315 316 316 327 334 336 339 338 341 342 341 342 346 346 347 346 347 345 344 344 344 343 342 341 339 338 337 336 337 335 335 335 335 333 332
301 302 297 304 306 306 306 299 307 311 311 310 312 313 314 315 315 315 331 336 339 341 343 345 344 345 345 346 347 347 346 345 345 345 344 343 343 342 341 339 338 338 338 337 336 335 334 333 333
299 293 295 298 306 305 304 300 306 309 309 309 311 312 313 314 315 316 316 335 339 340 342 342 342 343 345 347 347 347 346 345 345 345 345 344 343 343 342 341 340 340 338 337 336 335 334 333 334
291 293 295 295 301 303 301 300 305 307 307 308 310 312 313 314 314 316 314 323 337 340 342 341 340 342 343 345 346 346 345 344 345 345 344 344 343 342 342 341 341 340 338 336 335 334 335 334 334
297 295 294 297 302 300 299 300 303 306 307 307 308 311 312 313 316 315 312 313 324 331 336 337 339 341 342 341 341 341 340 342 343 344 345 344 343 341 340 340 339 339 336 335 336 335 334 333 333
296 294 293 296 300 300 299 299 303 305 305 307 307 309 312 313 314 313 310 310 315 324 326 332 336 339 339 340 341 342 341 342 342 343 343 343 343 342 340 340 339 337 336 335 335 334 332 332 333
295 293 293 293 297 301 297 296 299 303 306 307 308 310 313 313 313 313 311 309 311 314 317 321 327 335 336 337 336 335 338 339 339 339 339 340 339 340 340 339 338 338 337 336 336 334 332 329 333
291 297 296 294 294 289 297 288 296 300 301 304 306 308 309 312 313 312 309 307 308 311 313 313 314 316 318 319 327 331 334 334 336 335 331 328 325 327 328 329 332 333 334 333 334 335 333 332 329
293 297 296 295 294 292 292 288 294 298 297 301 304 307 307 310 312 308 308 309 310 312 313 313 312 312 312 312 314 315 315 316 316 316 315 317 320 319 319 321 324 327 329 330 331 331 331 330 327
298 295 295 294 292 285 290 290 290 294 296 299 304 307 306 307 311 310 312 311 310 312 311 312 312 313 314 313 312 312 312 311 312 313 313 315 316 316 315 317 320 323 323 325 327 328 329 328 327
297 293 284 283 283 282 289 288 291 297 300 300 301 303 307 308 309 310 308 308 310 310 310 311 311 311 313 314 313 314 314 314 313 313 313 313 314 313 313 313 315 317 318 319 323 326 325 325 323
293 292 285 277 279 283 287 285 291 298 300 302 303 303 301 303 305 307 308 309 309 310 310 310 311 310 311 312 311 312 312 312 312 311 311 309 310 310 308 309 310 310 312 315 318 320 319 320 319
292 288 292 286 284 283 287 290 295 298 298 299 299 300 301 303 302 301 304 307 309 309 309 310 310 310 310 309 308 307 307 307 306 305 306 305 304 303 304 305 305 306 307 310 313 318 315 313 312
294 296 286 288 279 278 284 285 288 292 295 297 298 298 299 301 302 302 304 306 308 308 309 310 310 309 308 307 306 305 304 303 303 304 303 302 302 301 302 302 303 303 304 306 309 312 310 310 307
290 289 290 290 287 282 280 285 294 293 295 295 298 297 299 300 301 302 305 305 305 306 307 308 308 306 305 305 304 303 302 301 301 301 301 300 300 300 300 300 300 301 301 303 307 307 306 305 305
295 291 292 285 283 286 284 285 294 294 295 296 298 299 301 302 302 304 304 304 304 304 304 305 306 305 305 304 303 302 301 300 300 299 299 299 299 298 298 298 298 299 299 301 303 302 302 301 301

GFSSGP_sfc_thetae_087.txt.gz
Theta_e
338 336 330 323 305 305 300 304 309 307 308 314 314 314 317 325 320 318 341 343 349 350 351 355 359 359 357 357 354 354 353 352 352 349 350 349 346 345 346 346 345 345 346 348 345 343 342 341 341
336 330 325 315 302 297 300 307 304 309 312 314 316 316 316 323 334 335 339 345 349 349 351 351 357 358 358 356 354 353 351 350 350 350 350 350 348 346 344 344 345 344 344 345 343 341 340 340 339
337 328 314 307 302 298 299 306 307 311 314 313 314 322 322 327 335 337 344 346 348 350 350 352 357 358 358 356 354 352 351 349 348 348 348 351 349 346 344 341 341 341 342 342 342 343 343 343 342
328 321 316 303 300 304 305 308 311 310 312 315 316 315 331 338 337 342 346 346 347 348 351 354 357 358 357 356 355 353 350 349 346 345 347 350 349 346 343 340 340 340 342 342 343 342 343 344 343
327 316 304 302 302 306 308 311 311 309 311 313 317 320 327 338 342 345 345 345 346 347 354 355 357 357 356 356 355 355 351 348 346 345 345 350 350 346 344 341 339 339 341 342 342 342 342 344 343
315 314 300 299 302 307 309 312 311 310 312 315 317 321 329 341 341 344 346 344 347 348 350 354 354 355 356 355 355 353 351 348 348 348 347 349 349 346 345 343 340 339 340 341 341 341 341 342 342
313 307 303 303 302 304 308 313 310 309 311 315 324 318 331 335 343 345 345 347 346 349 347 351 353 353 352 353 352 352 350 350 350 350 350 350 349 347 345 344 343 340 339 340 340 340 339 339 339
315 310 303 304 301 303 310 311 314 312 310 324 329 320 325 334 344 346 345 345 345 348 347 349 351 351 350 351 348 348 348 348 350 349 347 345 344 345 345 345 344 342 340 339 339 339 339 337 336
317 306 301 303 303 305 311 309 314 316 315 317 320 321 325 335 342 341 341 341 343 343 345 347 349 347 346 348 345 344 344 345 345 343 341 341 346 345 341 340 342 342 340 339 338 338 339 337 336
309 304 304 308 309 307 311 310 311 312 312 313 315 323 332 337 338 337 337 337 339 341 344 347 346 345 346 346 345 344 342 343 345 343 344 344 342 342 341 339 340 341 339 338 338 338 338 336 334
309 303 308 308 310 312 311 311 313 310 309 313 312 318 328 335 336 337 337 338 338 342 344 346 344 345 345 345 343 343 342 342 342 342 341 340 339 340 338 340 338 338 335 336 335 336 334 333 331
304 308 308 309 311 311 310 313 310 311 313 316 316 320 327 328 333 333 337 338 338 339 343 344 347 346 345 344 344 342 341 340 339 340 340 338 336 337 336 335 335 335 335 333 333 331 330 330 330
305 305 309 311 312 311 312 310 310 311 315 316 317 318 321 327 330 333 336 339 339 339 341 343 347 346 347 344 344 343 341 341 341 339 337 338 338 337 337 336 334 332 333 334 333 332 328 328 328
307 308 308 310 309 311 309 309 311 312 316 314 314 315 318 319 327 330 332 337 339 339 339 341 343 345 346 344 343 342 342 343 343 342 341 340 339 339 338 337 335 334 335 336 336 334 332 330 329
306 302 305 306 308 307 310 305 306 312 315 313 314 315 316 318 320 330 335 335 338 340 340 340 341 343 343 344 343 342 343 342 342 342 342 341 340 340 338 338 337 337 336 335 335 335 335 334 333
301 302 297 304 307 308 307 298 307 312 312 311 313 314 315 317 318 319 327 335 338 341 341 343 342 341 343 344 343 343 342 343 342 342 342 341 341 342 340 338 338 338 338 338 336 335 334 334 334
299 293 295 299 307 305 305 300 306 312 311 310 312 313 314 316 318 319 319 328 336 339 341 342 343 343 343 344 346 345 342 341 342 343 342 342 342 342 341 340 340 340 339 337 336 336 335 334 334
292 293 295 296 302 304 302 301 306 309 309 309 310 312 313 314 317 318 316 317 335 339 341 342 343 342 342 345 345 346 345 343 342 341 342 343 343 342 341 341 340 341 339 338 337 336 336 335 335
296 295 294 297 302 301 300 301 303 307 308 308 309 310 312 313 318 317 315 313 325 337 339 341 341 342 342 342 340 341 340 343 343 343 344 344 343 343 342 341 340 341 339 338 337 337 335 335 336
297 294 294 297 301 300 299 298 302 305 306 308 308 309 311 313 316 316 314 312 313 327 334 339 340 341 341 342 342 343 344 344 345 345 345 345 344 344 342 340 340 340 339 337 337 336 334 334 335
295 294 294 294 298 300 298 296 299 304 306 307 309 310 311 312 314 316 314 313 313 318 326 331 336 339 341 342 341 338 338 340 340 340 341 341 341 342 341 339 338 338 337 335 336 335 332 329 333
291 298 296 295 294 289 298 287 295 300 302 304 307 308 309 312 315 316 315 314 311 315 322 321 328 334 336 331 334 333 333 334 337 337 338 335 330 331 331 331 332 333 334 333 333 334 332 330 327
293 299 296 296 293 293 293 289 294 299 298 302 305 307 309 311 315 316 315 314 313 316 317 317 317 320 320 322 326 329 330 329 325 321 322 322 322 322 321 322 325 327 329 330 330 331 331 332 329
300 296 296 295 293 285 291 290 291 295 298 301 304 307 308 310 312 316 315 314 312 315 315 316 314 314 314 314 315 317 317 315 314 315 314 315 317 318 317 317 319 322 323 324 325 327 328 329 328
297 292 285 282 282 282 291 289 292 298 300 301 302 304 308 310 311 312 312 312 313 313 313 313 313 312 314 315 314 314 315 315 315 315 314 314 314 315 314 314 315 317 319 320 322 323 323 326 326
293 292 286 278 281 284 290 285 290 299 302 303 304 305 304 306 310 311 313 314 312 312 312 311 312 312 313 314 314 315 315 315 314 313 312 311 311 311 310 310 311 311 312 314 318 321 321 320 320
292 290 295 287 288 284 287 291 295 298 299 301 301 303 304 305 305 307 309 308 311 311 311 311 312 312 312 312 312 311 311 311 309 309 308 308 307 305 305 307 307 308 308 310 312 317 316 314 313
295 297 287 288 279 278 284 286 288 293 296 298 299 300 302 302 304 306 305 306 310 311 312 312 312 311 311 310 310 308 307 307 306 306 305 304 304 303 304 304 304 305 305 306 309 312 312 311 310
291 290 291 290 287 281 281 285 295 295 297 297 299 301 302 303 303 305 305 307 309 310 310 310 310 310 309 308 307 306 305 304 304 303 302 302 302 302 302 302 302 302 302 304 306 308 308 308 307
295 291 291 285 283 287 285 286 296 297 297 298 300 302 304 304 304 305 306 307 307 307 308 309 309 307 307 307 306 305 304 303 303 302 301 301 300 300 300 300 300 300 300 301 303 304 303 303 303

GFSSGP_sfc_thetae_090.txt.gz
Theta_e
337 335 333 322 305 301 296 299 306 307 307 308 311 311 318 325 320 314 336 343 346 346 352 355 358 358 357 356 355 354 354 353 352 352 348 346 346 347 346 346 346 349 347 345 344 343 343 342 341
334 331 323 314 299 292 295 303 302 305 309 312 315 315 317 322 331 329 332 346 346 348 349 352 358 357 357 356 353 354 353 352 352 352 349 347 345 344 345 344 345 346 344 343 342 341 341 341 342
334 333 312 306 298 294 295 303 304 308 311 309 311 319 321 325 333 332 340 345 346 346 348 352 357 358 357 356 354 353 352 349 350 351 352 348 346 342 342 343 343 344 342 343 343 343 344 343 343
326 320 314 299 297 300 302 303 306 308 308 310 312 320 330 336 333 337 342 345 345 344 348 353 357 358 356 355 354 353 350 348 347 349 352 350 346 342 340 341 341 343 344 343 343 344 345 342 343
324 315 302 298 298 302 305 309 308 306 307 309 311 320 326 335 340 340 340 343 342 344 349 353 356 357 356 355 354 352 349 346 346 348 350 349 346 344 340 340 341 342 342 342 343 343 344 343 344
313 313 297 296 299 304 307 309 307 307 308 311 312 324 327 339 338 338 339 341 346 348 349 352 353 354 355 355 354 352 350 349 348 349 351 349 347 345 342 340 340 341 342 342 342 342 343 343 342
310 306 299 299 299 302 305 309 305 306 306 313 322 320 329 334 341 342 339 340 348 348 348 350 351 352 352 353 352 351 350 349 349 350 351 349 347 346 345 342 340 340 341 342 341 340 339 340 340
314 308 301 301 299 301 307 309 311 309 308 321 323 319 323 334 343 343 342 342 344 344 347 348 349 349 347 347 348 348 348 348 349 348 347 344 343 344 346 344 343 340 340 340 340 340 339 337 336
317 302 298 301 302 303 309 308 312 314 313 315 317 320 328 340 343 339 337 339 341 343 345 347 347 345 345 344 344 344 344 344 344 344 341 339 341 341 339 339 341 342 341 339 339 339 339 338 335
307 300 302 307 307 305 308 308 309 310 311 311 317 329 334 337 338 335 334 334 336 338 342 347 346 343 344 344 340 337 339 339 340 341 340 341 339 337 340 337 339 341 340 339 339 339 339 336 329
307 300 307 308 311 311 309 308 310 308 308 311 310 324 331 335 335 335 336 336 334 340 342 344 343 343 344 343 339 339 337 338 339 338 338 338 337 335 337 334 335 333 333 332 335 334 332 327 325
301 307 307 310 311 310 309 311 307 308 309 314 316 326 330 333 334 335 336 336 336 337 341 343 344 343 343 343 338 339 335 334 336 336 336 331 330 330 329 335 332 332 329 329 328 329 327 324 324
301 302 308 310 311 310 312 309 308 308 312 314 316 323 326 329 333 333 336 338 337 335 339 342 343 343 342 341 338 339 334 333 333 333 333 331 330 329 329 329 327 326 326 325 325 324 322 321 321
303 302 305 309 310 309 307 309 309 309 312 311 314 315 320 326 330 331 332 335 335 337 338 340 341 342 343 341 340 339 336 335 335 334 333 332 333 332 330 329 327 326 328 328 328 326 324 323 321
304 298 304 306 307 307 309 303 305 309 311 310 310 311 315 317 325 328 331 333 337 336 338 337 340 341 340 341 340 339 336 338 338 336 335 334 334 332 332 330 329 328 328 328 328 328 328 327 327
300 301 293 301 305 307 306 295 306 310 308 307 308 309 311 315 317 319 331 334 338 336 337 337 341 340 341 340 342 339 339 339 339 336 336 336 335 335 332 332 331 332 331 330 329 328 327 327 327
296 290 292 296 305 304 303 296 303 310 307 306 306 306 309 312 314 315 319 329 335 339 338 339 339 339 339 339 341 339 339 339 338 338 337 335 336 337 335 334 333 333 331 330 330 329 328 326 327
289 290 293 293 300 302 300 298 302 306 307 305 304 306 306 309 312 314 314 316 330 332 339 338 339 339 339 340 340 339 340 338 338 337 338 337 337 336 336 335 334 335 334 331 330 329 329 328 327
295 292 291 296 302 300 298 299 300 303 305 303 303 304 305 307 312 313 311 311 321 332 334 335 335 337 336 336 334 334 333 335 337 339 339 338 339 339 337 336 336 334 333 333 332 332 330 328 329
293 290 290 296 300 299 297 296 300 301 302 304 304 303 305 306 309 310 308 308 318 328 331 335 335 336 336 337 337 335 336 334 335 337 338 338 338 339 337 335 334 336 335 332 331 330 328 328 328
294 291 291 292 296 296 293 291 295 299 301 303 305 305 305 305 305 309 306 306 308 318 326 330 333 334 335 337 334 331 333 335 335 334 335 336 337 338 336 335 335 334 334 333 332 332 330 327 328
290 297 296 294 291 284 294 281 290 296 298 300 301 302 303 304 307 309 308 306 306 309 322 325 329 333 334 333 330 329 329 328 329 332 334 328 327 326 327 329 330 331 331 331 331 331 330 328 325
293 297 295 295 290 288 290 284 288 293 294 297 300 301 303 304 306 308 309 307 308 312 313 314 318 325 326 324 328 329 327 325 322 322 322 321 319 318 318 318 319 321 325 327 328 328 328 329 327
300 295 294 292 289 280 287 286 285 289 292 295 299 302 303 304 306 309 310 308 307 310 311 312 313 315 313 317 317 320 322 312 311 312 312 312 315 314 313 314 315 317 318 318 319 319 322 324 324
295 290 281 279 280 276 288 286 287 293 295 295 297 296 299 303 305 307 307 306 306 308 309 309 309 309 310 309 308 310 310 308 309 309 309 309 310 311 309 310 310 311 312 314 316 316 318 320 321
290 289 282 276 276 278 287 281 285 294 296 297 299 298 299 299 301 306 307 306 306 308 309 308 308 309 310 309 309 310 311 310 310 309 308 307 307 306 306 306 307 307 308 308 310 315 317 315 316
289 284 292 285 284 277 283 286 291 294 294 295 295 297 297 297 298 304 305 306 307 308 309 308 309 309 309 309 309 308 307 307 305 304 305 304 302 302 302 303 303 304 304 305 306 308 314 313 311
293 294 284 282 272 274 278 280 283 288 291 295 293 294 296 297 296 299 301 303 305 307 310 309 308 309 308 308 306 306 305 304 303 303 301 300 300 300 300 300 300 300 301 302 303 305 311 310 308
290 289 290 288 283 274 275 280 288 290 292 293 294 297 297 298 297 298 299 302 304 306 308 308 309 307 306 306 304 302 302 302 301 299 299 299 299 299 298 298 298 298 298 299 300 303 303 304 306
294 291 290 284 281 282 278 281 291 292 293 294 297 299 299 299 299 299 300 302 303 303 305 307 307 306 305 304 304 302 301 301 299 298 298 298 297 297 296 296 296 297 297 297 298 299 299 299 299

GFSSGP_sfc_thetae_093.txt.gz
Theta_e
336 334 330 318 301 297 291 296 303 304 305 306 312 319 322 323 319 309 338 346 349 350 353 354 357 357 357 356 353 352 352 352 351 349 347 348 348 348 348 350 349 346 345 344 343 343 341 340 339
332 331 319 311 298 287 290 299 300 305 306 311 315 323 322 320 327 331 336 347 349 350 352 354 357 357 357 355 354 353 353 352 352 350 345 345 346 344 345 346 345 345 343 342 341 342 343 343 342
334 332 308 302 295 290 291 300 301 305 308 309 312 321 323 323 331 330 342 346 348 348 352 353 356 357 356 355 354 353 353 351 353 351 348 343 343 344 345 346 343 343 343 342 343 344 343 345 345
324 319 311 294 294 297 299 301 305 305 307 310 321 322 329 335 332 340 344 346 345 346 350 354 356 356 355 354 353 351 350 350 352 351 348 343 340 342 343 343 343 344 344 343 345 344 343 345 345
321 312 299 294 294 299 302 307 304 303 306 308 319 322 324 336 341 342 343 344 342 345 350 354 356 356 355 354 353 351 349 349 351 351 348 345 341 341 342 342 342 342 343 343 344 344 344 344 343
310 310 294 292 295 301 304 306 304 303 305 310 321 324 325 336 337 338 343 341 345 346 350 352 352 354 354 354 352 350 349 349 351 352 348 346 343 340 340 342 342 342 343 342 343 344 343 342 340
306 302 295 293 295 300 303 306 303 305 308 315 320 320 327 333 338 341 344 345 347 349 349 350 350 350 351 351 350 349 349 348 350 352 350 347 346 343 340 341 342 342 342 342 341 341 342 341 339
310 305 297 296 295 300 304 308 309 309 309 318 321 320 319 331 340 342 346 345 346 347 347 347 347 349 347 347 347 347 347 347 348 348 345 343 342 343 344 341 342 341 341 341 341 340 339 337 336
315 299 296 298 299 301 306 306 310 314 312 317 316 321 333 340 340 339 338 340 342 345 345 346 345 345 343 343 342 343 345 344 343 343 339 338 339 340 339 338 340 341 341 340 340 340 338 337 335
307 299 299 305 306 302 306 306 308 309 309 316 325 330 336 337 336 334 334 334 337 340 343 345 344 342 342 342 338 337 340 339 339 340 338 338 337 336 339 335 338 341 340 340 339 339 339 335 327
307 300 305 307 310 311 307 305 309 308 306 310 321 327 332 333 334 331 334 334 337 340 343 343 342 342 340 338 336 333 334 336 337 338 338 337 336 334 334 333 334 332 332 332 335 334 331 326 324
302 306 307 309 311 310 308 311 304 307 308 314 326 330 333 333 333 332 332 334 336 337 341 341 342 341 341 338 337 334 334 335 334 336 337 333 331 333 331 331 330 329 329 327 328 326 327 326 324
301 302 307 309 311 310 312 309 308 306 310 315 327 329 331 333 334 335 334 334 336 336 338 340 341 342 342 340 336 335 333 335 335 335 333 330 329 327 327 330 329 328 327 325 326 324 322 321 320
303 303 302 306 308 309 307 309 309 307 309 310 322 324 326 331 332 333 333 333 333 335 337 340 340 342 341 340 335 337 334 331 331 331 329 329 329 327 327 326 324 323 324 325 324 323 322 319 318
304 298 301 302 306 306 309 304 304 307 308 308 310 316 324 326 331 332 334 335 336 335 337 338 339 341 338 338 339 338 337 335 332 331 331 331 332 330 329 328 326 325 325 326 326 326 324 324 325
300 299 292 301 305 306 306 297 307 310 305 305 306 308 312 316 327 328 332 333 335 338 337 339 342 338 340 338 340 338 339 337 337 336 333 333 333 332 330 329 329 328 327 326 326 325 325 324 324
296 290 291 295 303 303 302 297 304 309 306 304 304 305 309 311 314 317 329 331 336 336 337 337 339 338 340 338 340 340 339 337 336 337 336 333 334 334 332 331 331 330 329 328 328 327 326 324 324
288 290 292 291 298 301 300 298 302 303 304 303 303 302 304 309 311 313 319 326 335 336 336 337 338 338 339 340 338 337 339 338 337 336 336 336 334 334 334 333 333 334 331 328 328 327 327 326 326
293 292 291 295 301 298 297 299 301 302 301 301 301 303 304 305 311 312 313 315 325 330 335 336 336 336 336 335 335 333 336 337 337 337 337 336 336 336 335 333 333 333 332 332 332 330 330 329 329
292 289 290 295 301 299 297 296 301 302 301 302 302 302 303 303 306 308 308 309 317 328 333 335 336 337 337 337 336 334 335 332 332 334 336 337 336 336 337 336 334 335 334 333 332 330 329 329 329
290 289 290 291 297 298 295 290 294 300 299 302 304 304 304 304 303 305 304 305 313 326 328 331 333 335 335 336 333 330 330 331 331 333 333 333 335 333 333 333 334 333 333 332 332 331 330 327 328
288 296 295 293 291 284 292 279 287 295 294 298 299 301 303 303 304 307 303 302 304 322 325 329 331 334 333 333 331 328 327 327 329 331 332 330 330 327 326 326 328 330 330 330 330 331 329 328 325
292 297 294 294 289 286 287 282 286 289 290 295 296 297 300 303 304 307 306 305 304 307 317 321 324 328 328 330 332 329 326 327 324 326 325 321 320 320 319 319 319 320 321 323 324 325 326 327 326
297 294 292 291 288 277 284 284 283 286 290 293 296 299 300 302 303 304 308 306 304 309 310 311 315 318 320 321 324 327 325 319 318 317 316 315 314 314 314 315 314 315 316 316 316 317 316 317 320
293 289 280 275 274 275 285 283 286 291 293 294 295 296 298 300 302 303 303 303 305 306 307 308 310 310 311 315 316 316 318 313 313 312 311 310 311 310 309 310 309 310 310 312 313 313 314 315 314
289 288 279 274 274 276 285 279 284 292 294 294 297 297 297 297 298 303 305 304 305 305 306 306 306 306 307 307 307 312 311 310 310 311 309 308 307 306 306 306 307 307 307 307 308 310 313 314 313
288 283 289 282 281 274 280 284 289 292 293 293 295 296 296 296 298 301 303 302 304 305 306 305 306 306 307 307 308 307 307 307 307 304 303 303 301 302 303 303 303 302 303 304 304 305 309 310 310
292 293 283 283 277 274 276 279 282 285 290 293 291 292 294 295 297 299 301 302 303 305 305 306 306 306 307 306 306 305 303 303 302 301 300 300 299 300 301 300 300 300 300 301 301 302 307 307 307
289 287 288 286 282 274 274 278 286 287 290 292 293 295 295 296 296 296 298 301 303 304 304 304 306 308 306 305 303 302 302 301 300 299 299 299 299 299 298 298 298 297 297 298 298 300 302 303 304
293 290 289 278 279 279 277 280 290 290 292 294 295 297 297 298 298 297 297 300 301 302 303 303 305 307 306 304 303 301 301 299 299 298 298 298 297 297 296 296 296 296 296 295 295 296 298 298 298

GFSSGP_sfc_thetae_096.txt.gz
Theta_e
337 334 328 317 301 295 292 296 302 306 304 304 313 318 321 321 317 307 338 344 348 349 352 353 356 356 356 354 352 351 350 349 351 351 351 351 351 353 352 348 347 345 344 342 341 341 341 341 342
331 330 320 308 294 287 291 298 300 309 307 316 322 320 320 318 328 336 340 346 349 349 350 351 355 356 355 353 353 352 351 349 349 350 348 348 348 349 347 346 345 344 343 343 343 342 342 343 343
332 329 309 301 293 289 289 298 300 309 311 307 314 324 323 323 335 334 344 348 349 348 351 352 355 356 355 354 353 353 352 349 347 346 346 347 345 346 345 344 343 342 342 343 344 344 345 345 346
323 317 311 296 292 295 295 301 304 306 313 314 324 321 330 335 332 340 346 347 346 348 349 353 355 356 354 353 353 352 352 349 346 343 342 344 344 346 342 343 342 342 345 344 344 345 345 346 344
321 310 299 294 293 298 301 306 303 304 307 314 319 320 324 336 341 344 344 345 345 347 349 352 355 355 353 352 352 352 352 350 347 344 341 342 343 343 343 343 342 342 343 344 344 344 345 344 341
310 308 294 291 293 299 302 306 304 303 310 316 322 322 324 336 339 342 343 342 347 347 350 351 351 352 352 351 350 350 352 352 350 346 342 340 342 342 343 342 342 343 343 344 343 344 343 341 339
307 302 293 293 293 297 303 306 302 305 311 314 322 317 326 332 338 340 342 344 345 348 348 348 349 349 349 349 348 348 350 351 350 349 346 343 342 342 342 342 342 343 343 342 343 342 341 339 338
311 304 296 293 294 298 303 308 308 309 307 317 324 319 321 332 338 340 342 344 345 347 347 345 347 348 346 345 346 346 347 347 349 347 344 341 340 340 342 342 343 342 342 341 341 340 339 338 335
315 301 294 296 298 299 305 306 310 314 314 319 319 325 331 338 341 340 339 342 343 344 345 345 344 344 343 342 342 343 344 344 344 342 339 338 337 337 336 336 340 342 342 341 340 339 338 337 335
306 298 298 304 306 301 305 306 309 309 313 319 323 333 337 336 337 334 337 336 338 339 343 343 343 341 340 341 337 338 341 340 340 339 337 336 335 335 337 334 337 340 340 340 340 340 339 334 325
306 299 305 307 310 311 304 305 309 308 306 317 320 325 331 330 333 334 335 336 337 340 342 342 341 341 338 337 333 333 336 335 337 337 336 335 335 333 333 331 332 331 332 331 334 332 330 326 324
301 306 307 308 311 310 308 308 304 306 307 321 326 329 330 329 329 333 333 336 337 339 341 341 341 340 336 335 332 331 333 333 334 337 337 334 332 331 330 329 329 327 328 325 326 325 325 324 324
301 304 306 308 309 309 311 307 305 305 312 325 329 330 330 328 327 330 335 337 338 338 340 340 340 339 337 335 334 332 330 334 334 334 336 334 331 331 330 328 328 327 326 325 324 324 324 324 323
303 303 303 306 308 310 308 307 307 306 310 322 325 326 329 329 329 328 331 333 336 338 339 340 340 340 338 336 335 333 332 334 334 333 333 332 332 330 329 328 327 326 326 325 323 324 321 318 317
303 298 300 303 306 306 309 304 302 307 307 314 320 322 325 329 332 330 330 332 335 336 338 338 339 341 338 337 336 335 334 334 333 332 331 328 328 326 326 325 324 324 323 323 323 323 322 321 322
298 297 291 300 304 306 306 298 305 309 304 304 309 314 321 325 329 331 333 333 333 335 336 339 341 340 338 337 336 336 334 332 332 332 330 330 331 329 327 327 325 325 324 324 324 324 323 323 323
295 288 291 295 303 303 302 297 304 309 306 303 303 307 312 316 322 328 330 333 334 335 336 337 338 337 338 337 337 336 336 334 335 334 332 332 331 331 329 328 329 328 326 325 326 325 324 323 323
287 288 290 291 298 301 300 299 304 306 305 303 302 303 305 309 314 321 326 329 334 334 336 337 337 336 337 339 338 336 337 337 336 335 334 335 333 332 331 330 329 329 327 326 326 326 326 325 325
292 292 291 294 299 298 296 297 301 304 304 301 301 301 302 306 311 312 316 327 329 331 331 334 334 335 337 337 336 334 332 336 335 336 336 335 335 334 332 332 331 333 332 331 330 330 328 328 328
291 289 288 294 299 296 296 294 300 303 302 301 300 301 302 302 304 309 310 314 325 331 333 333 334 333 334 334 334 335 333 334 336 336 337 337 336 336 335 333 333 334 333 332 330 330 329 328 329
288 287 289 292 297 298 294 292 296 300 303 301 302 302 303 303 302 306 307 307 312 325 331 333 334 334 335 335 332 330 330 331 331 330 331 333 334 335 334 334 333 333 332 332 331 330 329 327 328
286 294 294 294 292 286 294 281 286 292 296 299 299 300 301 302 302 305 307 304 305 319 327 333 334 335 335 334 331 331 331 329 330 329 330 330 332 331 332 332 331 331 330 329 329 331 329 328 325
289 295 294 293 288 286 287 284 285 289 290 295 295 297 301 302 302 304 306 307 305 308 318 322 327 328 329 330 333 329 325 326 325 326 327 323 321 323 323 323 324 324 324 324 324 322 322 323 324
296 293 292 292 287 281 284 286 284 286 289 292 295 297 300 303 302 304 306 305 302 303 313 317 321 323 325 326 325 326 325 323 321 319 320 317 315 315 316 316 316 317 318 318 317 316 316 316 316
294 290 281 279 280 279 284 284 286 290 292 292 293 295 297 299 301 300 304 303 302 305 309 310 315 317 318 320 320 322 322 319 319 319 319 315 313 312 311 312 312 311 312 313 314 314 315 314 313
289 288 280 274 275 277 285 280 285 292 295 294 295 294 296 297 298 299 302 303 303 305 307 308 309 310 309 311 312 312 315 314 315 315 315 314 313 309 309 307 306 307 307 307 308 309 312 312 312
287 284 290 281 279 274 280 283 289 291 290 290 292 294 292 293 298 298 302 301 302 304 305 306 306 305 305 305 306 308 309 310 310 309 312 311 309 306 304 304 303 303 302 303 303 305 305 310 309
290 292 284 283 276 274 276 278 282 284 288 290 290 291 291 292 295 299 300 300 301 302 303 304 305 305 305 305 304 304 303 304 303 304 301 299 299 301 301 300 300 300 300 300 301 301 303 306 305
289 286 287 286 283 275 274 277 284 286 289 290 291 293 294 293 294 295 298 300 302 303 303 303 304 305 304 304 303 302 302 302 300 299 298 299 298 298 299 299 298 298 298 298 297 297 300 302 302
292 289 289 281 278 278 276 279 289 288 292 293 294 295 295 295 295 295 297 299 300 301 302 302 303 304 304 304 303 301 301 300 300 298 298 299 298 298 297 297 297 297 297 297 296 296 298 297 298

GFSSGP_sfc_thetae_099.txt.gz
Theta_e
336 334 328 318 301 294 290 297 302 304 306 306 312 317 316 315 312 306 337 342 347 348 350 351 355 355 354 350 347 345 348 351 353 353 354 353 353 352 349 347 345 343 342 343 344 345 344 344 344
333 329 319 310 295 287 290 297 300 308 309 320 321 320 317 318 330 334 338 346 348 349 350 350 354 355 353 351 348 346 348 349 350 352 352 353 351 349 347 345 344 343 342 342 342 343 344 345 346
331 328 312 301 293 289 288 297 300 310 313 311 317 322 320 323 333 335 344 347 348 347 348 350 354 354 354 352 350 347 346 347 349 350 351 351 348 347 346 344 343 342 343 343 344 345 345 346 344
323 318 313 297 290 293 293 298 302 310 315 315 321 319 326 333 332 340 346 347 345 346 347 351 353 354 353 352 352 349 345 344 345 347 348 349 348 345 344 342 342 342 344 344 345 346 346 344 345
320 312 300 294 292 294 297 304 305 309 312 313 321 319 324 333 341 344 346 346 344 345 348 349 353 353 352 352 352 351 347 344 342 344 344 345 344 343 343 342 342 344 344 344 345 346 345 342 343
310 310 296 292 292 296 299 304 303 308 311 313 320 320 325 337 341 343 345 344 346 346 348 348 350 351 352 351 351 352 350 345 342 342 343 344 343 343 342 342 342 343 344 344 345 345 343 340 340
306 303 295 293 293 295 299 305 302 309 311 313 323 318 328 334 340 342 342 344 346 347 347 347 347 348 348 348 350 351 350 348 345 343 343 344 343 343 342 342 342 343 343 343 343 343 340 338 338
307 305 295 293 293 294 301 306 310 311 309 318 323 318 322 331 337 340 342 342 343 343 345 344 345 345 343 343 346 347 348 347 346 343 341 339 339 341 343 342 343 342 342 342 342 341 339 337 335
313 300 292 294 296 298 302 304 310 315 315 320 321 325 331 337 337 337 337 340 342 343 344 345 344 343 340 340 341 344 344 345 343 341 337 335 333 334 335 336 340 342 341 340 339 338 336 336 332
304 298 296 304 305 300 303 306 310 312 316 318 325 331 334 335 332 334 332 334 336 338 341 343 342 341 339 341 337 337 341 342 340 337 335 335 332 332 333 333 337 341 340 340 339 338 338 333 323
305 298 305 306 310 310 303 305 309 311 308 318 323 328 331 332 330 332 333 336 336 339 341 341 341 340 337 337 334 335 337 338 338 335 334 333 333 331 330 329 330 329 331 329 332 329 328 323 323
297 306 307 308 310 308 306 305 304 306 308 317 328 331 331 331 328 329 329 329 333 338 340 341 341 338 336 335 334 335 335 334 338 336 334 332 329 329 329 327 327 326 326 323 324 324 323 323 322
295 300 306 308 309 309 309 305 303 304 320 326 329 330 330 331 330 324 327 328 336 337 340 340 340 338 335 333 331 333 333 334 335 336 335 333 330 328 328 327 326 325 324 323 322 322 322 322 322
300 303 302 306 306 308 305 305 304 304 318 324 325 325 326 328 329 329 330 328 335 337 340 340 339 339 336 333 330 330 332 333 334 334 337 334 331 330 329 327 326 325 324 324 323 323 322 321 317
303 295 299 302 305 304 307 301 301 306 309 318 322 322 324 326 328 330 332 333 333 337 339 339 339 339 336 334 333 331 331 333 332 333 333 334 331 329 329 327 326 326 325 324 323 321 321 319 320
297 294 289 300 303 304 304 295 303 306 304 304 310 310 319 325 329 329 330 331 336 338 339 340 340 339 337 335 334 334 332 332 332 332 332 330 330 329 326 325 324 324 322 321 321 322 322 321 322
294 288 288 293 303 301 301 297 302 306 304 301 302 305 314 319 321 328 330 331 332 335 336 337 338 338 337 335 334 334 333 331 332 331 330 329 329 329 327 326 326 325 323 322 323 323 322 321 322
285 288 291 290 298 299 296 297 302 304 304 301 300 301 303 310 318 323 328 330 332 333 334 335 336 338 338 336 335 334 334 332 332 331 331 330 331 330 328 327 327 328 326 324 324 324 324 324 324
291 291 290 294 299 297 295 296 300 304 302 300 300 300 302 304 309 313 318 325 328 331 333 332 333 334 336 334 334 333 333 332 332 332 334 334 333 332 330 329 328 328 327 328 328 328 327 327 328
290 289 287 294 299 296 296 295 299 301 302 301 300 299 301 302 304 308 310 315 324 328 330 331 333 332 335 336 335 334 333 333 334 334 334 335 334 334 332 331 330 330 332 332 330 328 327 327 327
287 285 286 290 296 297 294 292 294 299 303 303 303 300 301 303 304 304 307 308 316 323 328 331 333 332 333 332 331 328 330 329 329 330 331 334 335 335 333 332 332 331 332 330 330 329 327 326 327
285 292 291 293 290 284 293 282 286 296 298 301 302 298 300 301 301 303 305 306 307 317 326 329 331 332 333 331 330 329 330 328 331 329 329 330 332 331 331 331 331 332 331 329 330 329 328 327 323
289 294 293 293 288 286 288 282 286 290 292 295 300 297 298 301 302 302 304 307 307 307 319 323 326 328 328 329 329 328 327 328 325 325 326 327 326 328 327 326 326 326 326 325 326 325 325 325 323
294 291 291 291 288 282 284 285 284 286 290 291 295 297 298 301 302 302 303 305 305 302 313 319 323 324 325 325 326 326 326 322 321 320 322 320 319 320 321 322 321 321 320 320 319 318 318 318 316
292 286 281 279 280 276 283 284 285 291 291 292 294 296 296 299 301 301 301 302 302 302 305 313 318 321 322 322 324 324 322 321 320 319 318 316 315 316 317 316 313 313 314 314 314 314 313 315 314
287 287 278 274 275 277 285 281 285 292 292 294 294 294 295 295 296 299 300 303 302 302 303 308 312 315 317 317 320 319 321 318 316 316 316 316 314 313 311 310 309 309 308 308 307 308 310 311 312
287 281 289 283 277 274 281 282 287 291 291 290 291 293 293 293 295 297 299 301 302 301 304 306 308 309 308 308 309 309 311 310 311 310 311 312 312 311 310 308 306 304 303 303 303 304 304 306 309
289 291 283 282 276 273 276 277 280 285 289 290 290 292 292 293 296 298 297 299 300 301 303 304 305 305 304 304 305 306 306 307 306 306 305 305 305 304 301 300 300 300 299 299 299 299 302 303 306
287 284 286 285 283 274 273 276 284 286 288 290 292 292 291 293 294 296 298 298 299 301 302 302 303 303 303 303 302 301 301 301 301 300 299 298 299 299 298 297 297 297 297 297 297 297 299 301 303
292 289 288 282 278 276 273 277 287 287 289 290 291 293 293 294 294 294 297 298 299 300 301 302 302 303 303 302 301 300 299 298 298 298 299 299 298 297 296 296 296 296 296 296 297 297 296 297 297

GFSSGP_sfc_thetae_102.txt.gz
Theta_e
332 333 328 318 303 297 291 295 301 304 306 310 310 314 312 312 309 304 334 340 345 347 349 351 355 354 351 346 346 348 351 354 356 355 355 354 353 351 348 346 345 345 345 346 346 346 346 345 344
327 329 321 311 298 288 290 295 301 306 310 315 321 318 316 314 328 334 337 344 346 347 349 349 354 353 349 346 346 349 352 353 354 354 353 353 351 349 347 344 343 343 344 345 345 346 346 346 346
325 327 312 304 297 291 288 295 300 309 318 315 319 322 320 320 332 336 343 346 347 346 348 350 354 352 350 346 347 349 350 351 353 352 353 353 349 347 346 344 343 342 344 344 345 347 346 345 348
320 318 313 298 294 296 293 296 302 309 313 317 323 318 325 332 334 341 345 346 345 345 347 351 353 352 351 349 348 348 349 349 349 351 351 350 346 345 344 343 343 344 346 345 346 346 344 347 348
320 313 300 296 295 298 294 299 304 307 312 314 320 316 324 332 340 343 345 345 343 344 347 349 353 352 352 350 348 346 346 346 346 348 348 347 345 344 343 342 343 344 345 346 346 345 343 343 346
307 308 292 291 294 296 296 301 307 308 312 313 313 320 324 338 340 342 343 342 345 344 346 347 349 351 351 351 350 347 344 344 345 347 348 344 344 343 342 343 343 343 344 345 346 344 342 342 342
302 301 288 294 294 292 296 302 307 309 310 310 320 317 327 336 341 343 343 344 345 345 344 345 346 347 348 349 349 348 345 343 344 345 346 344 344 342 342 342 343 343 344 345 344 342 340 340 339
304 304 295 294 292 292 299 305 306 311 310 319 319 314 321 331 340 342 343 342 344 344 343 342 343 342 341 343 347 346 345 343 342 343 342 340 340 341 343 342 342 343 343 343 342 341 339 337 335
306 294 294 294 295 296 301 303 309 315 314 319 318 323 329 336 338 339 338 339 340 342 343 342 342 340 338 339 342 345 344 343 341 338 336 335 333 335 335 337 340 342 341 340 339 338 336 334 331
298 295 295 302 303 300 303 305 310 313 316 319 324 331 333 335 335 333 333 332 336 337 340 341 341 339 336 341 337 338 343 341 336 332 330 330 329 331 333 333 338 341 340 340 339 338 336 328 322
297 296 301 304 308 310 304 305 307 313 310 318 319 328 332 332 331 331 331 333 334 336 339 339 339 338 336 335 333 335 341 340 335 332 332 330 329 328 327 328 330 329 330 328 330 327 325 321 321
294 297 297 308 309 309 305 304 303 305 310 322 328 331 330 327 323 321 331 333 333 337 339 339 339 338 334 334 333 335 339 340 336 334 332 330 327 327 325 325 325 324 325 322 322 322 321 321 320
293 295 302 307 309 308 308 303 304 304 314 327 329 329 327 327 328 329 334 334 334 336 339 339 339 337 334 333 331 333 336 338 339 334 333 331 328 328 327 325 325 323 323 321 320 320 321 320 321
296 298 298 304 306 307 305 303 304 305 309 324 326 327 327 327 326 325 326 326 329 335 337 340 339 338 334 331 329 332 332 333 336 336 334 332 330 329 329 326 325 324 323 322 322 321 321 320 317
299 293 293 301 304 303 305 301 301 304 310 315 319 325 326 327 326 323 324 323 327 333 336 335 337 339 334 331 329 330 331 333 333 334 334 333 331 329 328 327 325 325 324 324 322 321 321 319 319
295 291 285 296 302 303 303 295 300 304 303 302 308 316 322 325 327 326 326 327 331 330 327 329 339 337 336 333 331 329 331 330 332 333 334 334 332 330 328 327 326 326 324 323 321 320 321 320 320
294 286 286 289 301 301 299 294 301 305 302 300 301 305 313 320 324 329 330 329 330 327 326 327 337 336 337 335 333 332 330 331 332 331 330 331 332 330 327 326 325 324 322 320 321 321 321 320 321
288 287 289 287 296 298 295 294 299 301 303 300 300 300 304 309 320 325 330 331 330 331 335 337 337 335 336 336 334 333 332 330 331 331 330 330 329 328 328 326 325 324 322 321 321 322 323 323 323
291 290 289 292 298 294 293 294 297 300 299 299 299 300 300 304 310 318 325 328 329 331 333 334 336 336 338 333 331 331 332 331 330 330 331 331 330 329 327 326 326 326 325 324 324 324 325 324 325
290 289 288 294 298 296 294 292 299 299 298 299 300 300 300 301 304 306 313 322 326 329 331 332 334 335 336 336 336 335 335 333 333 332 331 331 330 330 330 330 329 328 327 326 326 327 326 325 326
286 285 287 290 296 296 293 291 294 299 299 301 302 302 301 301 302 304 306 311 320 325 327 330 332 333 334 334 333 330 331 330 330 331 331 332 332 333 331 332 331 330 329 328 329 328 326 324 325
283 290 291 292 290 284 293 282 290 295 297 299 300 299 301 300 301 302 304 307 308 318 326 330 331 331 332 331 331 328 329 328 330 329 330 331 331 331 331 330 330 329 329 328 329 329 327 326 322
287 293 291 292 287 285 287 283 286 293 293 297 299 300 299 300 301 302 302 305 309 309 317 324 328 328 329 328 330 328 327 328 325 326 327 326 327 327 328 328 328 328 328 326 326 325 324 324 324
293 290 290 288 287 280 284 285 284 287 291 295 299 298 299 300 300 302 303 303 305 305 311 320 324 326 327 326 327 327 327 325 321 320 322 323 323 323 323 324 325 324 323 322 321 320 319 317 317
290 285 280 279 280 276 282 283 287 291 291 292 294 294 296 297 298 299 300 301 303 302 304 314 319 321 323 324 326 327 326 324 322 320 320 319 318 318 319 319 319 319 319 316 316 315 314 314 312
285 284 277 273 274 274 283 280 285 291 293 294 294 293 292 293 294 296 300 302 302 302 301 305 312 316 319 322 323 324 325 324 322 319 316 319 316 314 313 311 310 311 311 309 308 309 310 311 309
286 280 287 278 276 272 278 282 286 290 290 291 291 292 291 292 295 295 298 299 301 301 302 303 307 309 313 315 319 317 317 316 316 314 313 312 311 311 309 308 307 306 305 305 303 305 304 303 305
290 290 282 284 276 274 275 276 280 284 287 289 291 290 291 292 295 298 297 297 298 299 301 303 306 308 308 307 309 308 308 309 308 308 308 308 306 305 305 305 304 302 300 299 299 298 300 300 302
288 287 286 285 281 274 273 276 283 285 288 289 291 291 291 292 294 297 298 297 298 299 301 302 304 304 303 304 303 303 304 304 304 304 304 304 304 303 303 300 298 297 296 296 296 296 297 298 299
292 288 287 281 277 276 273 277 285 286 288 290 290 293 293 293 293 294 296 298 298 299 299 301 301 302 302 302 301 300 300 299 298 298 297 298 297 298 297 298 297 296 295 295 294 294 295 295 295

GFSSGP_sfc_thetae_105.txt.gz
Theta_e
328 328 331 321 305 302 296 300 307 306 308 313 314 317 315 317 313 308 339 342 347 349 351 351 354 353 349 349 351 352 355 354 356 356 357 356 354 351 348 347 347 349 347 347 346 347 347 347 347
327 325 323 313 298 292 295 303 302 308 313 316 320 322 319 316 329 333 336 344 348 349 351 350 353 352 347 349 351 353 355 356 354 355 355 356 351 349 347 346 346 347 346 346 346 346 347 347 346
323 323 311 304 298 292 294 300 304 310 314 316 317 324 322 322 332 335 343 346 348 349 349 351 352 351 346 350 351 354 354 355 354 353 354 354 349 347 345 344 346 348 348 346 346 346 346 349 348
316 315 313 299 294 299 300 300 305 311 315 321 322 318 329 336 336 342 345 346 347 348 350 351 351 351 348 351 352 353 354 353 352 352 353 351 348 346 344 344 346 346 347 348 346 346 348 348 347
315 310 298 296 296 301 304 301 308 310 313 316 318 314 324 334 342 344 343 345 344 347 350 348 351 350 349 349 351 351 351 353 351 352 350 348 346 344 344 343 343 346 346 347 345 345 347 345 344
303 306 294 290 295 301 303 305 306 312 314 316 315 314 323 338 341 343 344 343 345 346 349 347 349 350 348 348 348 349 349 350 350 350 348 345 344 343 343 343 344 346 346 346 344 343 343 343 342
300 298 291 290 295 298 302 305 305 310 313 314 319 312 324 335 341 344 342 343 345 347 347 348 347 348 347 346 346 347 347 346 348 348 347 345 344 343 343 343 344 344 347 346 344 342 341 341 340
305 301 294 290 294 297 303 303 309 310 310 320 321 312 315 332 341 341 341 343 343 345 346 347 347 347 347 346 344 343 343 344 345 343 343 341 340 341 344 341 341 343 345 345 343 341 339 338 337
306 295 289 294 295 299 302 303 313 317 316 318 318 319 323 336 340 338 338 338 339 342 343 345 344 344 346 347 344 342 341 341 341 340 337 337 340 341 340 338 340 344 344 343 341 339 336 334 334
299 294 292 300 302 302 306 306 312 314 317 313 316 322 330 333 336 334 333 333 335 338 341 343 342 342 343 345 345 344 341 339 340 340 339 339 340 340 339 337 339 342 341 341 339 337 334 329 330
299 295 297 299 305 306 305 306 311 313 312 314 314 321 328 330 332 333 332 334 333 339 340 340 341 341 341 341 344 343 342 339 337 337 337 338 338 338 339 340 339 339 334 337 337 336 332 329 330
294 298 298 299 300 307 304 307 307 312 313 320 321 326 327 326 323 322 329 333 336 337 339 339 340 339 339 339 341 343 342 340 336 335 335 335 334 334 335 335 335 334 334 332 333 331 330 328 328
295 296 299 300 302 308 308 304 306 307 311 324 327 328 329 324 322 323 326 333 335 336 338 337 338 338 337 336 338 340 341 340 338 337 336 335 333 332 332 332 332 332 332 329 329 330 329 329 330
296 297 297 299 300 302 305 305 306 308 309 322 323 326 328 325 322 321 324 332 335 336 337 339 338 338 337 335 336 338 338 340 340 338 338 336 334 334 333 332 332 331 331 330 329 330 330 330 329
298 293 295 298 297 299 305 302 300 306 310 319 321 325 326 326 323 324 331 331 334 336 339 339 339 338 336 335 335 335 338 339 337 338 338 337 335 334 335 334 333 332 331 330 330 330 330 330 327
293 293 287 295 296 296 303 296 302 306 306 306 314 320 322 325 325 325 330 330 332 336 337 339 339 339 337 334 333 334 335 337 339 338 340 339 337 336 335 335 334 334 332 331 331 330 328 328 328
293 286 286 290 296 296 300 296 301 304 304 303 305 309 319 321 324 326 327 326 328 333 334 333 337 339 337 335 334 333 334 335 337 338 339 340 338 337 337 336 336 334 332 330 329 327 329 329 329
287 287 289 288 292 296 295 295 298 302 302 302 302 305 310 320 322 326 327 327 330 330 329 326 330 337 339 335 335 335 333 333 335 336 336 337 339 337 336 336 335 333 330 329 327 327 328 329 329
292 290 288 291 294 294 292 294 297 300 301 302 302 303 305 309 316 324 328 330 328 329 329 329 331 337 336 333 332 332 333 333 333 335 336 335 336 335 335 335 333 331 329 328 327 328 327 328 331
292 290 289 293 296 294 292 292 297 300 300 302 302 303 304 304 308 314 323 328 329 331 332 335 333 336 336 335 334 335 333 334 335 337 336 336 335 335 334 333 332 331 328 329 329 329 330 330 330
289 289 289 290 295 297 293 290 294 298 300 301 303 304 304 305 305 306 312 321 327 328 331 332 334 334 332 334 332 331 333 332 332 334 332 332 334 334 335 332 332 331 330 329 332 331 330 327 328
287 292 292 293 291 285 293 283 290 294 297 299 302 303 304 304 305 305 308 311 318 326 330 331 332 333 334 334 332 326 327 327 331 332 333 334 333 333 334 334 333 333 333 330 331 330 330 328 322
288 294 293 293 288 288 289 285 289 292 293 296 299 303 304 304 305 306 306 308 312 315 325 330 330 332 333 334 332 331 328 331 332 331 331 330 332 333 333 334 333 332 331 330 328 326 325 327 325
294 291 290 290 288 282 286 285 285 289 293 296 299 302 302 304 304 305 307 307 308 311 313 323 328 329 331 331 331 330 329 329 327 328 327 328 328 328 329 330 330 329 327 327 326 325 322 322 322
292 287 280 280 280 278 283 284 287 292 294 295 297 299 301 303 304 304 305 305 307 308 309 317 324 326 328 328 329 330 329 327 327 325 326 324 323 321 323 324 325 325 326 326 325 323 318 317 318
288 286 279 273 276 278 285 282 287 294 296 296 297 297 296 299 300 301 303 305 306 307 307 311 319 323 326 327 328 330 330 329 328 325 324 324 322 321 321 321 320 317 319 318 317 315 314 315 316
287 285 288 279 278 277 281 284 288 291 291 292 293 294 295 297 298 298 298 302 305 306 307 307 311 316 321 324 325 325 325 325 325 323 322 322 321 318 316 315 313 312 311 309 308 307 307 309 311
290 291 284 285 275 274 277 278 282 286 288 291 293 294 294 296 298 300 299 299 302 304 305 306 308 313 317 319 322 320 319 319 319 318 318 317 315 313 311 309 308 307 305 304 305 303 304 305 308
288 287 287 286 283 277 274 279 285 287 288 289 290 294 295 295 296 299 299 299 301 303 304 306 308 310 311 312 312 312 311 312 312 313 313 312 310 309 308 306 304 302 301 301 302 302 303 303 304
290 287 286 282 279 278 277 280 287 288 290 291 291 294 295 296 296 297 299 300 301 302 303 305 307 308 308 308 307 307 307 307 307 307 307 307 305 303 302 301 300 300 300 300 300 300 300 300 300

GFSSGP_sfc_thetae_108.txt.gz
Theta_e
324 325 328 322 307 306 300 304 313 312 315 321 320 321 321 323 319 316 340 345 346 348 351 352 353 353 352 354 354 354 356 356 357 357 356 355 353 351 350 352 352 350 348 348 351 350 348 347 346
323 321 322 313 300 295 299 307 307 313 319 321 319 322 321 319 328 335 337 344 348 350 351 350 353 352 352 353 353 354 355 356 356 355 355 353 352 349 348 351 351 349 347 347 347 347 346 346 346
321 320 309 304 298 295 299 306 310 314 319 319 318 323 322 322 333 337 344 345 348 349 349 349 352 351 352 353 354 355 355 356 355 355 353 354 350 348 347 350 350 350 346 347 347 347 347 346 345
314 314 309 297 295 301 304 307 311 312 316 320 320 317 331 338 337 341 346 346 346 348 348 351 350 350 353 354 355 356 356 355 355 353 352 352 350 346 348 349 349 348 348 347 347 348 348 346 344
315 307 294 294 297 302 306 309 311 310 315 317 320 317 323 337 344 345 344 345 345 347 348 349 350 350 353 353 354 354 355 354 353 353 352 349 346 346 345 346 348 348 349 346 348 347 346 344 340
303 304 293 289 296 302 305 311 310 310 314 319 319 319 324 340 342 343 344 344 347 346 347 347 347 349 351 352 353 353 353 352 352 352 350 348 346 345 344 345 347 348 347 345 346 346 345 343 340
300 298 293 293 293 296 303 312 307 309 312 315 322 317 323 335 343 344 343 344 345 347 345 345 344 345 347 349 350 350 351 350 350 349 347 345 345 345 343 345 347 347 347 345 344 344 343 342 340
304 300 294 293 293 296 305 306 311 309 312 322 325 317 319 329 344 343 342 343 344 346 344 344 342 338 345 347 345 346 346 347 347 345 342 341 341 342 343 344 343 348 347 344 343 342 341 340 339
309 295 292 293 293 299 305 304 310 314 315 320 323 322 327 335 340 338 338 339 342 344 343 343 340 340 336 340 343 342 343 343 342 340 337 337 340 342 339 339 341 345 346 344 341 340 338 337 336
301 295 293 299 300 299 304 305 307 308 313 317 320 324 330 337 335 333 333 333 337 339 342 342 340 340 341 337 338 340 343 344 343 340 340 337 338 340 340 337 340 343 343 342 340 337 334 331 334
300 295 299 300 301 303 303 304 310 306 308 316 317 322 325 323 321 331 332 333 335 338 341 341 340 342 345 341 337 334 335 337 339 338 337 337 337 339 340 341 341 341 335 338 337 334 332 331 332
296 300 300 300 303 300 302 304 305 309 312 320 322 324 325 323 321 318 321 331 334 337 339 340 342 341 344 344 341 337 333 334 336 337 336 336 336 336 336 336 337 336 335 334 334 333 331 330 331
299 300 300 302 302 301 304 305 304 309 317 319 323 324 325 323 320 321 323 323 329 335 339 340 342 341 340 345 342 343 338 334 332 335 336 335 334 334 334 334 334 332 332 330 329 328 327 328 331
301 300 300 301 299 300 300 305 307 310 315 314 322 323 322 322 321 321 321 322 320 335 338 340 340 338 338 340 343 342 341 339 336 333 333 332 331 331 331 331 330 330 330 329 330 331 330 332 332
301 296 299 299 299 297 299 300 303 310 312 313 321 322 324 322 321 320 322 323 324 336 337 338 340 338 334 334 341 343 342 342 340 337 337 335 334 334 334 332 332 331 332 331 333 333 334 333 331
296 297 291 296 298 298 297 294 306 309 310 314 318 321 324 323 321 323 324 325 331 336 336 337 338 338 337 334 334 339 342 341 340 340 339 340 338 337 339 338 336 335 335 334 333 332 332 332 332
294 289 290 292 298 297 295 295 304 308 310 311 316 320 322 322 322 324 326 326 330 336 338 338 339 338 338 338 336 334 336 340 342 341 342 341 340 338 339 339 338 338 336 335 333 332 332 332 333
289 289 291 291 294 296 293 294 303 306 307 309 312 316 318 320 321 324 326 328 331 335 338 340 341 341 341 340 339 336 335 334 336 338 341 342 342 341 340 340 340 338 336 336 335 332 333 333 333
295 293 291 293 296 294 292 292 298 303 307 307 308 310 313 318 322 325 327 327 329 331 330 331 336 340 339 338 336 336 334 335 334 335 336 338 339 341 341 341 339 338 336 335 335 332 331 331 335
295 293 292 295 296 295 294 292 298 301 306 307 305 307 311 313 318 324 326 326 327 327 329 329 333 337 338 338 337 338 338 339 339 338 338 339 339 340 340 340 339 339 336 335 334 332 331 333 335
294 293 292 292 295 296 295 294 295 300 305 307 306 308 308 311 317 322 325 326 326 327 329 331 332 336 337 338 336 332 332 334 335 338 339 340 339 340 340 339 339 338 336 332 332 333 333 331 333
290 295 295 294 292 287 295 289 294 297 302 305 308 308 308 308 309 315 320 325 324 327 331 331 331 335 335 334 331 327 325 324 333 335 338 336 337 336 334 333 334 336 334 333 333 333 332 329 323
292 297 295 295 291 290 290 288 295 298 295 301 307 308 310 310 310 310 311 317 327 329 328 332 330 331 331 332 330 329 326 326 329 331 330 330 331 334 335 335 334 334 334 334 333 331 329 328 326
297 296 295 295 292 284 289 288 290 295 299 301 305 307 310 311 311 311 312 313 315 323 329 332 331 330 331 330 332 332 328 326 326 328 327 328 329 332 333 334 333 334 334 333 332 332 328 326 327
295 292 284 282 282 282 288 288 291 296 299 300 301 305 307 310 311 310 310 310 311 314 318 326 331 330 331 332 332 332 331 328 327 328 328 329 329 327 329 331 331 332 332 331 329 328 327 324 322
292 291 285 277 279 283 287 285 291 298 300 302 301 303 303 304 309 310 310 312 312 314 315 318 323 329 333 332 331 333 332 332 331 331 331 330 328 327 327 328 329 328 326 325 325 322 321 321 321
289 287 292 285 284 284 287 289 294 296 296 298 299 299 301 302 306 307 307 310 312 313 315 316 319 323 329 331 329 330 332 332 331 331 331 329 328 327 326 324 322 320 319 319 320 322 320 317 315
292 293 285 287 279 277 282 284 286 291 292 295 297 298 300 301 304 305 305 305 307 309 313 314 316 320 325 329 329 328 329 330 330 330 328 326 324 322 321 318 315 313 314 314 313 311 311 312 312
289 287 288 286 286 281 280 284 290 291 293 295 296 298 300 302 304 305 305 305 305 307 310 311 313 316 321 326 325 324 324 325 324 325 321 319 317 316 313 312 310 309 309 309 308 307 308 308 309
291 287 287 283 281 283 283 284 293 294 295 295 296 298 300 301 302 305 305 306 305 308 309 311 313 315 318 321 322 322 320 319 319 319 316 315 314 313 310 309 307 307 306 306 306 305 306 306 306

GFSSGP_sfc_thetae_111.txt.gz
Theta_e
325 324 328 318 304 304 301 303 310 309 312 320 323 321 321 323 319 316 341 345 345 349 351 352 354 353 354 355 355 357 358 357 356 357 356 354 352 351 353 353 351 348 350 351 348 348 348 346 346
321 321 322 311 299 293 299 308 306 311 315 320 322 322 321 319 330 334 338 344 346 350 350 350 353 353 355 356 355 356 357 357 356 356 355 353 352 351 354 352 352 351 351 350 349 348 345 346 345
318 319 307 301 296 294 298 305 309 312 317 317 319 324 323 322 331 337 343 345 347 349 349 350 353 353 355 355 354 355 356 356 355 354 354 353 353 350 351 352 351 349 349 349 347 347 346 345 343
313 312 308 296 292 298 303 307 311 311 315 319 321 317 326 339 336 341 345 345 348 348 348 350 351 353 352 354 354 354 355 354 354 353 353 353 351 351 350 350 349 347 348 348 348 347 347 344 340
312 307 295 291 293 300 304 308 309 309 312 315 319 317 321 336 343 344 344 345 346 347 347 349 351 352 354 355 354 354 354 354 353 353 353 352 350 350 348 349 347 348 348 348 348 347 345 341 339
302 302 291 289 292 297 303 308 309 308 312 314 316 318 324 340 342 343 344 344 346 346 347 347 347 352 353 354 354 354 354 353 352 352 351 350 349 349 347 346 348 348 346 349 347 346 343 339 338
300 295 291 291 292 294 299 306 306 307 309 312 318 314 327 336 343 344 344 344 345 346 344 344 342 350 349 351 351 352 352 350 350 350 349 343 345 346 346 343 348 347 346 348 347 345 343 340 339
302 299 291 292 292 293 301 304 308 307 307 317 319 313 320 336 343 344 344 343 343 344 343 341 338 349 349 349 347 348 348 347 347 346 344 342 341 341 344 342 345 347 346 345 345 343 342 341 339
306 293 289 291 292 296 302 303 309 313 310 313 314 321 327 339 344 340 339 340 340 342 342 340 335 342 348 347 345 344 344 343 342 340 337 337 339 339 341 340 343 346 345 344 342 341 339 339 338
298 292 292 297 299 299 302 302 304 305 308 310 315 322 333 341 340 336 334 334 336 338 341 338 333 334 343 345 343 343 343 342 341 339 338 336 337 339 339 338 340 344 344 342 341 338 336 334 333
298 292 298 300 301 302 300 301 304 305 305 310 310 321 329 336 335 335 334 334 337 339 340 338 334 331 337 344 344 344 343 342 342 339 335 334 336 338 339 339 340 342 337 339 336 333 330 330 331
295 300 301 302 303 302 299 302 302 306 308 313 314 319 329 331 333 327 319 321 324 336 338 338 335 335 333 334 339 341 341 342 337 337 333 334 336 336 336 338 338 338 338 336 334 332 331 330 330
298 299 302 303 303 302 302 299 299 305 311 313 316 319 327 330 328 325 323 322 321 321 337 338 336 339 338 333 333 333 334 334 335 336 334 335 335 335 335 334 335 335 334 333 332 330 328 326 328
301 301 301 302 301 301 299 299 301 307 312 313 315 317 325 325 324 322 321 318 319 322 325 339 335 340 340 336 335 332 330 332 334 335 335 334 334 334 334 334 333 332 331 329 327 326 326 326 329
301 297 300 300 300 299 302 299 300 308 311 310 313 320 324 325 325 320 320 318 320 322 324 338 338 335 339 339 337 335 334 331 331 332 332 331 331 332 331 329 329 329 329 327 329 330 331 330 330
296 298 292 300 299 300 300 292 302 308 309 310 313 318 322 324 322 321 321 321 321 322 325 337 338 336 335 340 338 339 337 336 333 332 332 330 330 332 332 332 331 331 331 331 331 332 331 331 331
295 290 291 294 301 299 297 294 301 306 309 309 313 316 319 322 322 321 321 321 323 325 327 337 337 335 330 333 338 341 340 339 338 336 336 335 334 334 335 337 335 335 334 333 332 331 331 330 331
291 290 292 291 297 297 295 296 300 302 308 310 314 315 319 321 320 321 323 325 327 330 332 336 335 337 335 333 333 334 339 340 341 340 340 338 338 336 337 339 337 336 335 334 334 331 332 332 332
295 294 292 294 298 295 296 297 298 302 308 310 314 317 319 319 323 324 326 327 327 329 331 336 336 336 336 337 334 333 330 332 335 339 342 340 339 338 338 340 339 338 335 335 335 334 331 331 334
296 294 293 296 297 296 297 296 301 302 307 310 312 316 318 318 320 323 325 326 327 327 328 328 332 335 336 337 337 338 336 337 336 336 337 338 338 340 338 338 339 339 337 336 335 335 331 333 338
295 294 293 293 296 298 296 295 298 302 308 309 311 315 318 318 318 320 322 325 325 325 327 327 328 332 335 337 336 336 337 337 336 338 338 339 339 341 342 340 340 339 340 338 335 334 333 332 333
290 297 296 294 293 289 296 288 297 299 304 307 308 310 312 316 319 320 322 324 323 322 324 327 327 329 336 336 333 331 329 329 334 336 338 338 338 339 339 339 338 337 337 335 334 334 334 331 326
292 298 296 295 293 292 292 289 295 301 300 304 308 309 310 313 317 319 323 325 324 322 323 327 327 328 330 332 331 331 329 331 334 333 331 331 331 336 337 336 335 334 334 333 334 331 329 329 327
298 296 295 295 292 285 290 289 292 296 300 303 308 310 310 310 311 314 321 326 324 327 329 327 326 327 329 329 330 330 329 327 328 327 327 327 328 329 333 335 335 333 332 331 331 331 331 329 328
296 292 284 282 284 283 290 288 291 297 300 304 306 309 311 311 311 311 311 313 319 323 326 326 327 326 327 327 326 328 329 327 326 324 324 325 326 327 329 332 332 332 332 332 332 331 331 329 325
292 291 284 278 280 284 290 285 291 299 301 303 303 306 308 310 312 311 312 312 314 318 322 326 327 326 327 326 327 329 329 328 325 325 325 325 326 327 331 331 333 331 331 330 330 329 327 324 322
290 288 293 286 287 283 287 290 294 297 298 300 301 301 303 304 306 312 313 313 313 314 317 321 325 327 328 328 328 329 329 327 327 327 328 328 330 329 329 328 327 326 325 325 324 322 319 321 321
292 293 285 287 278 277 284 284 286 291 294 297 298 300 302 303 306 309 308 309 312 314 316 318 320 323 329 331 331 331 330 331 331 331 330 329 329 326 325 323 320 320 318 318 317 317 315 316 316
288 286 287 285 285 280 279 282 292 293 295 296 297 300 302 304 306 307 307 307 306 309 313 315 317 320 323 330 330 328 330 330 330 328 327 326 323 321 319 316 313 312 313 312 312 312 312 311 311
291 287 287 283 281 285 284 283 297 297 296 297 298 300 302 303 304 307 307 307 307 307 309 312 314 316 321 326 327 326 326 325 324 324 321 320 318 317 315 312 310 308 308 309 309 306 307 307 307

GFSSGP_sfc_thetae_114.txt.gz
Theta_e
320 322 327 319 305 304 296 299 306 305 306 314 317 315 316 319 316 312 339 341 349 347 350 352 355 355 355 355 358 358 357 357 356 356 356 354 353 354 353 351 349 351 352 347 350 350 348 347 345
319 319 320 310 297 292 293 301 302 306 310 313 316 316 315 315 329 331 334 341 349 348 349 349 354 355 355 355 358 358 358 356 356 356 356 355 354 354 353 352 350 353 352 349 348 347 345 345 342
316 318 307 300 295 290 292 300 303 309 311 311 311 318 317 318 331 333 340 342 348 347 348 349 353 354 356 356 356 358 357 357 355 354 354 354 355 354 352 352 352 351 352 350 347 346 344 343 340
312 308 306 294 291 295 297 301 305 306 311 313 312 312 323 335 332 336 340 345 345 346 347 350 353 354 355 355 355 357 356 356 355 354 353 354 354 354 353 351 349 350 350 349 347 346 344 341 338
309 304 292 290 291 295 300 303 304 303 307 308 312 312 319 334 339 339 339 346 344 345 348 349 352 354 355 355 354 355 355 355 355 353 352 353 354 352 352 349 348 349 349 349 347 345 341 339 338
299 299 288 285 289 294 299 302 302 303 304 308 308 316 320 337 338 338 342 344 345 345 346 347 349 351 353 354 353 354 353 354 353 352 352 352 352 351 350 348 348 348 348 348 346 343 339 339 338
296 294 287 288 288 291 294 302 301 302 302 304 311 306 325 332 339 339 342 345 345 345 345 344 345 348 350 351 352 352 352 351 351 350 350 348 348 348 348 345 348 347 349 348 346 343 340 339 338
300 296 289 290 287 288 296 299 303 302 301 311 312 307 314 332 339 340 341 343 343 344 342 340 342 347 347 348 349 348 348 348 347 347 343 342 342 343 341 344 346 347 348 347 346 343 341 340 338
305 291 286 288 290 292 297 299 304 307 305 308 312 313 316 329 339 338 338 340 340 339 339 336 341 345 346 346 345 345 345 344 342 340 338 337 337 337 336 339 342 345 345 345 343 342 341 340 338
297 289 289 295 295 294 299 301 301 301 301 303 308 314 317 327 335 334 335 335 336 336 336 334 339 343 344 345 344 343 342 341 339 338 337 335 333 335 337 338 340 344 343 342 342 340 339 334 329
297 290 295 297 299 301 300 300 303 301 298 303 305 311 317 320 331 333 334 335 335 336 337 332 333 342 342 342 342 341 341 339 337 336 334 332 335 335 337 338 340 339 334 335 335 332 328 326 326
293 298 298 299 302 301 299 301 298 299 300 307 309 313 317 319 318 332 332 323 322 323 333 331 328 339 341 341 340 340 339 338 336 334 333 331 332 333 333 335 337 335 334 331 329 326 324 324 323
296 297 300 302 302 302 302 299 298 298 303 309 311 312 314 316 314 333 325 321 321 322 323 324 326 326 339 339 340 340 340 338 336 332 329 330 332 331 333 333 333 331 332 329 328 326 324 322 322
301 300 300 301 301 301 298 298 300 301 306 308 309 311 314 314 313 321 321 320 320 321 322 325 323 329 327 332 335 338 337 331 332 329 328 330 330 329 329 329 329 328 327 326 324 321 319 318 321
300 296 299 300 301 299 301 295 296 302 307 308 310 313 315 315 314 321 321 320 322 324 324 324 325 332 328 327 327 326 327 329 329 328 329 329 330 328 327 326 324 323 323 321 320 320 321 321 324
295 295 289 298 300 301 299 290 298 305 305 307 310 312 315 317 321 322 320 319 321 323 323 324 326 334 335 330 328 327 325 325 326 327 327 327 327 326 324 324 323 324 323 323 324 324 324 324 323
293 286 289 293 300 299 296 292 299 306 307 307 309 311 314 318 320 319 320 320 321 323 323 323 325 332 334 334 330 330 328 327 326 325 325 325 326 327 328 327 327 325 326 326 326 325 325 324 325
289 289 291 290 296 297 295 293 297 303 306 305 306 310 315 318 318 319 319 320 321 322 324 325 326 331 333 335 334 334 333 332 332 330 328 329 328 330 330 332 330 330 330 328 327 326 326 325 325
294 291 290 293 297 295 293 293 296 302 302 304 306 309 314 317 319 319 320 321 322 324 323 324 325 331 328 329 330 332 331 333 334 335 336 333 333 332 331 334 334 332 330 330 329 328 325 325 327
293 291 292 295 297 293 293 293 297 301 301 305 307 309 314 316 317 319 321 322 323 325 325 329 329 331 330 330 328 327 328 332 336 337 337 337 335 335 334 334 334 334 331 330 330 329 325 325 328
292 291 292 291 296 295 293 291 293 301 302 306 308 311 313 316 317 319 320 321 324 324 323 326 327 330 332 333 333 332 332 331 330 330 330 332 335 335 335 336 336 334 333 331 330 329 328 326 327
288 295 294 293 291 286 293 281 294 298 298 303 304 309 313 316 318 319 320 321 322 322 324 326 325 327 330 334 332 330 329 328 330 332 332 333 335 335 335 334 334 332 332 329 327 330 328 327 323
290 296 293 292 290 288 289 282 292 298 297 300 303 306 310 315 317 316 318 322 322 322 322 323 324 326 327 328 328 326 325 326 331 331 329 327 328 332 333 332 332 331 330 331 328 328 327 326 325
296 292 292 291 290 278 287 285 286 293 297 301 304 306 308 312 315 317 317 323 321 320 320 323 323 323 326 326 327 326 324 325 325 325 325 325 325 326 330 332 331 331 330 328 328 328 328 327 326
293 287 277 275 274 275 287 284 286 294 298 302 302 305 307 310 310 312 317 321 320 318 320 323 323 322 326 325 326 326 325 325 324 323 323 323 323 323 325 329 330 329 329 328 328 328 328 328 327
288 287 281 277 278 281 287 283 285 294 297 302 304 303 307 307 307 310 311 314 319 321 322 324 323 321 323 325 325 325 326 325 324 323 323 323 321 322 325 327 327 328 329 330 329 329 329 329 327
287 282 290 284 284 279 283 285 290 294 294 296 298 301 300 300 305 308 309 310 313 316 321 324 323 322 324 325 325 325 325 326 324 323 323 323 323 324 325 326 326 326 328 328 328 324 322 323 321
290 292 282 283 272 274 279 279 283 288 290 294 295 295 298 303 304 304 305 306 308 311 315 320 324 324 325 326 325 325 325 327 326 325 323 323 324 324 324 324 325 323 323 323 323 320 321 320 318
287 283 285 284 282 278 277 280 289 289 290 292 294 296 298 300 303 303 303 303 302 304 311 314 319 320 321 325 326 325 325 326 326 325 323 324 325 324 323 323 321 319 318 318 319 315 316 314 311
289 286 283 278 276 281 282 281 293 292 293 295 295 296 297 299 302 303 303 302 303 304 306 309 310 314 317 323 324 324 324 323 323 324 324 323 321 320 317 316 314 314 314 312 310 308 309 309 307

GFSSGP_sfc_thetae_117.txt.gz
Theta_e
318 319 320 314 301 302 294 295 303 300 302 308 313 310 312 315 312 308 335 341 347 346 350 353 356 356 358 360 359 358 357 357 355 357 357 355 354 354 351 350 352 351 349 351 351 348 348 347 348
316 318 314 305 295 288 287 298 298 302 306 308 309 312 311 309 326 330 333 346 347 347 349 350 355 355 356 359 359 358 357 356 356 357 356 356 355 354 353 352 354 351 351 349 348 346 345 345 344
316 316 303 296 292 289 288 295 297 303 306 306 305 310 313 312 328 333 339 347 346 346 347 350 354 355 355 358 358 357 357 356 356 356 355 355 355 354 352 353 352 352 350 348 346 345 342 340 339
308 305 304 293 289 294 295 297 300 300 303 307 307 303 312 331 331 334 346 346 345 345 346 351 354 355 354 357 357 357 357 356 355 355 354 355 354 355 354 352 351 350 349 348 345 344 341 338 340
307 301 290 288 288 293 296 298 300 299 300 302 306 303 307 325 336 339 344 346 343 344 347 349 353 355 354 356 357 356 356 355 354 354 354 355 353 353 351 351 350 350 349 347 344 341 339 338 339
295 296 287 283 287 292 294 297 299 299 300 302 303 305 307 325 334 340 344 344 345 345 347 348 350 353 353 353 356 355 355 355 354 353 353 353 353 352 350 350 350 350 349 347 343 340 339 338 338
296 292 284 286 286 289 292 296 294 297 299 300 306 302 308 315 328 339 343 344 344 346 345 346 348 350 350 350 353 353 353 352 352 351 351 350 349 348 349 348 348 350 350 346 342 340 339 338 337
300 296 288 288 286 287 294 295 297 296 298 305 309 302 306 320 324 324 340 341 342 343 343 343 344 346 348 347 349 349 350 349 349 347 346 344 343 343 345 344 347 349 348 347 345 341 340 339 337
304 291 285 287 288 290 296 294 299 304 301 303 308 308 313 318 322 322 323 338 339 340 341 341 342 344 346 346 346 346 346 345 344 342 339 338 338 336 337 339 343 346 347 346 344 342 341 339 336
296 291 289 293 294 292 295 296 299 300 300 301 304 308 313 318 321 319 317 334 335 335 337 338 342 343 345 346 345 344 344 343 340 338 337 337 333 334 337 337 339 343 343 343 343 342 340 335 329
295 289 294 294 296 297 298 298 301 299 297 301 301 305 310 314 317 320 320 335 333 334 334 338 341 342 343 343 343 342 341 338 338 336 335 333 332 335 338 337 337 336 334 335 335 333 329 326 325
292 296 296 296 298 298 296 301 298 300 300 305 306 308 310 311 313 316 317 329 333 332 332 337 341 341 342 343 341 340 339 337 336 335 334 332 332 334 336 337 335 333 331 329 327 325 324 324 324
295 297 298 299 300 299 301 299 298 298 302 305 306 307 309 310 311 316 319 321 331 324 326 325 333 339 340 340 340 339 337 336 335 333 332 333 332 332 331 334 335 332 331 328 326 323 322 322 320
300 299 298 299 299 300 298 298 299 300 303 303 304 305 310 312 315 315 319 320 325 325 326 326 326 330 339 339 339 338 336 336 334 332 331 333 333 332 331 331 330 330 331 328 326 324 321 319 319
299 294 297 299 299 299 301 295 296 301 302 302 303 308 311 314 317 315 319 322 325 325 327 327 328 327 331 337 338 337 337 336 332 330 328 332 331 332 331 331 330 329 328 325 322 319 317 316 320
295 294 287 297 299 300 297 289 297 302 303 303 308 310 313 314 315 316 322 322 324 325 325 327 330 328 327 329 337 334 335 333 329 327 330 331 329 330 329 328 324 322 321 319 319 321 321 321 321
291 283 287 291 298 298 296 290 297 301 303 302 307 309 311 315 319 316 318 320 322 325 326 325 327 326 327 328 328 329 329 329 327 326 327 327 327 325 325 323 322 321 321 321 322 323 323 322 323
287 287 290 290 296 297 294 292 297 300 303 303 304 305 308 316 319 319 320 321 322 323 324 325 326 327 329 328 327 326 326 325 325 324 324 325 325 325 325 324 323 323 324 324 324 323 324 324 324
292 290 289 293 297 295 294 293 295 297 301 300 302 304 308 315 319 319 320 321 321 322 321 323 325 328 331 328 327 324 324 325 324 324 325 326 326 327 328 328 327 327 327 325 326 325 323 322 326
292 290 290 295 297 294 292 291 295 298 300 300 302 303 312 314 316 318 319 321 321 320 322 323 325 329 330 331 330 327 327 328 329 328 328 328 329 330 330 332 330 329 328 328 327 327 324 323 326
289 289 290 290 294 294 292 289 292 297 301 304 304 310 313 313 315 318 319 320 322 323 324 326 324 329 329 331 330 329 332 332 330 331 330 331 331 331 331 333 333 332 330 329 329 328 325 324 325
285 293 292 290 287 282 292 281 292 296 299 302 303 309 312 313 316 318 319 321 322 323 325 324 328 328 330 330 329 327 326 325 328 330 332 333 333 333 333 333 333 332 331 329 328 329 326 326 322
288 293 290 290 287 284 286 284 288 298 296 300 302 308 311 315 317 317 319 321 322 321 321 323 325 328 327 327 328 327 325 326 329 331 329 330 331 332 332 332 332 331 330 328 328 327 328 327 325
294 290 289 288 287 275 284 285 286 289 295 299 301 305 310 314 315 316 319 320 320 321 321 321 321 324 326 326 325 325 325 328 327 325 324 325 326 329 330 330 330 329 329 329 328 327 327 325 325
291 285 272 274 271 274 285 283 284 291 299 299 299 301 308 311 315 314 317 317 316 318 319 321 320 321 324 325 325 324 323 324 324 325 326 323 322 322 326 328 327 327 328 328 328 327 327 326 324
286 286 280 275 277 277 286 278 284 291 296 301 303 302 305 307 311 313 315 318 318 317 318 321 319 320 323 324 324 324 324 323 323 322 323 322 322 323 324 327 327 326 327 325 326 327 327 327 327
285 280 289 283 284 280 280 284 287 292 292 295 299 300 301 302 303 307 312 315 318 319 318 322 321 320 322 322 324 323 324 323 323 323 323 322 322 321 322 324 324 324 324 324 325 325 326 326 327
288 290 279 279 273 276 279 278 282 287 288 292 294 296 299 303 302 303 303 305 311 316 319 322 323 321 321 322 323 323 324 325 325 324 322 322 322 322 322 322 323 324 324 324 325 323 322 323 321
284 281 283 278 280 278 275 280 290 287 289 290 292 295 297 300 301 301 301 303 302 305 313 319 321 321 322 323 324 323 323 324 325 324 323 322 323 323 323 323 323 321 321 322 322 321 321 320 317
286 283 280 273 274 282 277 281 293 292 290 292 292 294 295 296 299 302 302 303 303 302 306 311 316 320 322 323 324 323 324 324 324 325 325 325 322 323 322 321 320 320 320 320 320 317 318 315 313